Wetterdaten: Donnerstag, 12.09.2019
Datum Zeit Temp. A. Feuchte A. Luftdruck Regen Wind Richtung Richtung Sonnenschein ET UV Solar Taupunkt Windchill Windböen
12.09.2019 00:00 13,4 °C 83 % 1026,5 hPa 0,0 mm 1,5 km/h (1 Bft) W 269 ° 0 min 0,000 mm 0,0 UV-I 0 W/m² 10,6 °C 13,4 °C 3,2 km/h (1 Bft)
12.09.2019 00:01 13,4 °C 83 % 1026,5 hPa 0,0 mm 2,0 km/h (1 Bft) W 270 ° 0 min 0,000 mm 0,0 UV-I 0 W/m² 10,6 °C 13,4 °C 4,8 km/h (1 Bft)
12.09.2019 00:02 13,4 °C 83 % 1026,5 hPa 0,0 mm 2,6 km/h (1 Bft) W 270 ° 0 min 0,000 mm 0,0 UV-I 0 W/m² 10,6 °C 13,4 °C 3,2 km/h (1 Bft)
12.09.2019 00:03 13,4 °C 83 % 1026,5 hPa 0,0 mm 3,2 km/h (1 Bft) W 271 ° 0 min 0,000 mm 0,0 UV-I 0 W/m² 10,6 °C 13,4 °C 6,4 km/h (2 Bft)
12.09.2019 00:04 13,4 °C 83 % 1026,5 hPa 0,0 mm 5,7 km/h (1 Bft) W 260 ° 0 min 0,000 mm 0,0 UV-I 0 W/m² 10,6 °C 13,4 °C 9,7 km/h (2 Bft)
12.09.2019 00:05 13,4 °C 84 % 1026,6 hPa 0,0 mm 3,2 km/h (1 Bft) W-SW 241 ° 0 min 0,000 mm 0,0 UV-I 0 W/m² 10,8 °C 13,4 °C 6,4 km/h (2 Bft)
12.09.2019 00:06 13,4 °C 83 % 1026,6 hPa 0,0 mm 3,3 km/h (1 Bft) SW 229 ° 0 min 0,000 mm 0,0 UV-I 0 W/m² 10,6 °C 13,4 °C 4,8 km/h (1 Bft)
12.09.2019 00:07 13,4 °C 83 % 1026,6 hPa 0,0 mm 2,5 km/h (1 Bft) SW 229 ° 0 min 0,000 mm 0,0 UV-I 0 W/m² 10,6 °C 13,4 °C 4,8 km/h (1 Bft)
12.09.2019 00:08 13,4 °C 83 % 1026,6 hPa 0,0 mm 1,3 km/h (1 Bft) SW 230 ° 0 min 0,000 mm 0,0 UV-I 0 W/m² 10,6 °C 13,4 °C 1,6 km/h (1 Bft)
12.09.2019 00:09 13,5 °C 83 % 1026,6 hPa 0,0 mm 2,9 km/h (1 Bft) S-SW 205 ° 0 min 0,000 mm 0,0 UV-I 0 W/m² 10,7 °C 13,5 °C 6,4 km/h (2 Bft)
12.09.2019 00:10 13,5 °C 83 % 1026,5 hPa 0,0 mm 0,5 km/h (0 Bft) S-SW 205 ° 0 min 0,000 mm 0,0 UV-I 0 W/m² 10,7 °C 13,5 °C 3,2 km/h (1 Bft)
12.09.2019 00:11 13,6 °C 83 % 1026,6 hPa 0,0 mm 0,0 km/h (0 Bft) S-SW 205 ° 0 min 0,000 mm 0,0 UV-I 0 W/m² 10,8 °C 13,6 °C 0,0 km/h (0 Bft)
12.09.2019 00:12 13,6 °C 83 % 1026,5 hPa 0,0 mm 0,0 km/h (0 Bft) S-SW 205 ° 0 min 0,000 mm 0,0 UV-I 0 W/m² 10,8 °C 13,6 °C 0,0 km/h (0 Bft)
12.09.2019 00:13 13,6 °C 83 % 1026,6 hPa 0,0 mm 2,2 km/h (1 Bft) W-SW 255 ° 0 min 0,000 mm 0,0 UV-I 0 W/m² 10,8 °C 13,6 °C 4,8 km/h (1 Bft)
12.09.2019 00:14 13,6 °C 83 % 1026,5 hPa 0,0 mm 2,1 km/h (1 Bft) W-SW 250 ° 0 min 0,000 mm 0,0 UV-I 0 W/m² 10,8 °C 13,6 °C 4,8 km/h (1 Bft)
12.09.2019 00:15 13,6 °C 83 % 1026,5 hPa 0,0 mm 2,7 km/h (1 Bft) S-SW 200 ° 0 min 0,000 mm 0,0 UV-I 0 W/m² 10,8 °C 13,6 °C 4,8 km/h (1 Bft)
12.09.2019 00:16 13,6 °C 83 % 1026,5 hPa 0,0 mm 4,0 km/h (1 Bft) S-SW 194 ° 0 min 0,000 mm 0,0 UV-I 0 W/m² 10,8 °C 13,6 °C 6,4 km/h (2 Bft)
12.09.2019 00:17 13,6 °C 83 % 1026,5 hPa 0,0 mm 3,5 km/h (1 Bft) S-SW 193 ° 0 min 0,000 mm 0,0 UV-I 0 W/m² 10,8 °C 13,6 °C 6,4 km/h (2 Bft)
12.09.2019 00:18 13,6 °C 83 % 1026,5 hPa 0,0 mm 3,2 km/h (1 Bft) SW 222 ° 0 min 0,000 mm 0,0 UV-I 0 W/m² 10,8 °C 13,6 °C 6,4 km/h (2 Bft)
12.09.2019 00:19 13,7 °C 83 % 1026,5 hPa 0,0 mm 4,7 km/h (1 Bft) W-SW 243 ° 0 min 0,000 mm 0,0 UV-I 0 W/m² 10,9 °C 13,7 °C 6,4 km/h (2 Bft)
12.09.2019 00:20 13,7 °C 83 % 1026,5 hPa 0,0 mm 3,3 km/h (1 Bft) S-SW 199 ° 0 min 0,000 mm 0,0 UV-I 0 W/m² 10,9 °C 13,7 °C 4,8 km/h (1 Bft)
12.09.2019 00:21 13,7 °C 83 % 1026,5 hPa 0,0 mm 4,4 km/h (1 Bft) SW 228 ° 0 min 0,000 mm 0,0 UV-I 0 W/m² 10,9 °C 13,7 °C 6,4 km/h (2 Bft)
12.09.2019 00:22 13,7 °C 83 % 1026,5 hPa 0,0 mm 2,6 km/h (1 Bft) SW 227 ° 0 min 0,000 mm 0,0 UV-I 0 W/m² 10,9 °C 13,7 °C 4,8 km/h (1 Bft)
12.09.2019 00:23 13,7 °C 83 % 1026,5 hPa 0,0 mm 2,4 km/h (1 Bft) SW 216 ° 0 min 0,000 mm 0,0 UV-I 0 W/m² 10,9 °C 13,7 °C 3,2 km/h (1 Bft)
12.09.2019 00:24 13,7 °C 83 % 1026,5 hPa 0,0 mm 2,5 km/h (1 Bft) SW 215 ° 0 min 0,000 mm 0,0 UV-I 0 W/m² 10,9 °C 13,7 °C 3,2 km/h (1 Bft)
12.09.2019 00:25 13,7 °C 83 % 1026,5 hPa 0,0 mm 1,5 km/h (1 Bft) SW 216 ° 0 min 0,000 mm 0,0 UV-I 0 W/m² 10,9 °C 13,7 °C 1,6 km/h (1 Bft)
12.09.2019 00:26 13,7 °C 83 % 1026,5 hPa 0,0 mm 2,1 km/h (1 Bft) SW 218 ° 0 min 0,000 mm 0,0 UV-I 0 W/m² 10,9 °C 13,7 °C 3,2 km/h (1 Bft)
12.09.2019 00:27 13,6 °C 84 % 1026,5 hPa 0,0 mm 1,4 km/h (1 Bft) SW 215 ° 0 min 0,000 mm 0,0 UV-I 0 W/m² 10,9 °C 13,6 °C 3,2 km/h (1 Bft)
12.09.2019 00:28 13,6 °C 84 % 1026,4 hPa 0,0 mm 5,6 km/h (1 Bft) S-SO 153 ° 0 min 0,000 mm 0,0 UV-I 0 W/m² 10,9 °C 13,6 °C 8,0 km/h (2 Bft)
12.09.2019 00:29 13,6 °C 83 % 1026,4 hPa 0,0 mm 6,1 km/h (2 Bft) SW 225 ° 0 min 0,000 mm 0,0 UV-I 0 W/m² 10,8 °C 13,6 °C 9,7 km/h (2 Bft)
12.09.2019 00:30 13,6 °C 83 % 1026,4 hPa 0,0 mm 1,9 km/h (1 Bft) SW 224 ° 0 min 0,000 mm 0,0 UV-I 0 W/m² 10,8 °C 13,6 °C 4,8 km/h (1 Bft)
12.09.2019 00:31 13,6 °C 83 % 1026,5 hPa 0,0 mm 2,4 km/h (1 Bft) S 190 ° 0 min 0,000 mm 0,0 UV-I 0 W/m² 10,8 °C 13,6 °C 4,8 km/h (1 Bft)
12.09.2019 00:32 13,6 °C 84 % 1026,5 hPa 0,0 mm 0,0 km/h (0 Bft) S 190 ° 0 min 0,000 mm 0,0 UV-I 0 W/m² 10,9 °C 13,6 °C 0,0 km/h (0 Bft)
12.09.2019 00:33 13,5 °C 84 % 1026,5 hPa 0,0 mm 0,0 km/h (0 Bft) S 190 ° 0 min 0,000 mm 0,0 UV-I 0 W/m² 10,8 °C 13,5 °C 0,0 km/h (0 Bft)
12.09.2019 00:34 13,4 °C 85 % 1026,5 hPa 0,0 mm 0,9 km/h (0 Bft) S 190 ° 0 min 0,000 mm 0,0 UV-I 0 W/m² 10,9 °C 13,4 °C 3,2 km/h (1 Bft)
12.09.2019 00:35 13,4 °C 85 % 1026,5 hPa 0,0 mm 0,9 km/h (0 Bft) S 190 ° 0 min 0,000 mm 0,0 UV-I 0 W/m² 10,9 °C 13,4 °C 1,6 km/h (1 Bft)
12.09.2019 00:36 13,3 °C 85 % 1026,5 hPa 0,0 mm 0,0 km/h (0 Bft) S 190 ° 0 min 0,000 mm 0,0 UV-I 0 W/m² 10,8 °C 13,3 °C 0,0 km/h (0 Bft)
12.09.2019 00:37 13,3 °C 85 % 1026,5 hPa 0,0 mm 0,0 km/h (0 Bft) S 190 ° 0 min 0,000 mm 0,0 UV-I 0 W/m² 10,8 °C 13,3 °C 0,0 km/h (0 Bft)
12.09.2019 00:38 13,3 °C 86 % 1026,5 hPa 0,0 mm 0,0 km/h (0 Bft) S 190 ° 0 min 0,000 mm 0,0 UV-I 0 W/m² 11,0 °C 13,3 °C 0,0 km/h (0 Bft)
12.09.2019 00:39 13,2 °C 85 % 1026,5 hPa 0,0 mm 2,3 km/h (1 Bft) S 190 ° 0 min 0,000 mm 0,0 UV-I 0 W/m² 10,7 °C 13,2 °C 4,8 km/h (1 Bft)
12.09.2019 00:40 13,2 °C 85 % 1026,5 hPa 0,0 mm 0,7 km/h (0 Bft) S 190 ° 0 min 0,000 mm 0,0 UV-I 0 W/m² 10,7 °C 13,2 °C 1,6 km/h (1 Bft)
12.09.2019 00:41 13,2 °C 86 % 1026,5 hPa 0,0 mm 1,7 km/h (1 Bft) S 189 ° 0 min 0,000 mm 0,0 UV-I 0 W/m² 10,9 °C 13,2 °C 3,2 km/h (1 Bft)
12.09.2019 00:42 13,1 °C 86 % 1026,5 hPa 0,0 mm 1,7 km/h (1 Bft) S 189 ° 0 min 0,000 mm 0,0 UV-I 0 W/m² 10,8 °C 13,1 °C 3,2 km/h (1 Bft)
12.09.2019 00:43 13,1 °C 86 % 1026,5 hPa 0,0 mm 1,5 km/h (1 Bft) S 189 ° 0 min 0,000 mm 0,0 UV-I 0 W/m² 10,8 °C 13,1 °C 3,2 km/h (1 Bft)
12.09.2019 00:44 13,1 °C 86 % 1026,5 hPa 0,0 mm 0,0 km/h (0 Bft) S 189 ° 0 min 0,000 mm 0,0 UV-I 0 W/m² 10,8 °C 13,1 °C 0,0 km/h (0 Bft)
12.09.2019 00:45 13,1 °C 86 % 1026,5 hPa 0,0 mm 0,0 km/h (0 Bft) S 189 ° 0 min 0,000 mm 0,0 UV-I 0 W/m² 10,8 °C 13,1 °C 0,0 km/h (0 Bft)
12.09.2019 00:46 13,1 °C 86 % 1026,5 hPa 0,0 mm 0,0 km/h (0 Bft) S 189 ° 0 min 0,000 mm 0,0 UV-I 0 W/m² 10,8 °C 13,1 °C 0,0 km/h (0 Bft)
12.09.2019 00:47 13,0 °C 86 % 1026,6 hPa 0,0 mm 0,0 km/h (0 Bft) S 189 ° 0 min 0,000 mm 0,0 UV-I 0 W/m² 10,7 °C 13,0 °C 0,0 km/h (0 Bft)
12.09.2019 00:48 13,0 °C 86 % 1026,6 hPa 0,0 mm 0,0 km/h (0 Bft) S 189 ° 0 min 0,000 mm 0,0 UV-I 0 W/m² 10,7 °C 13,0 °C 0,0 km/h (0 Bft)
12.09.2019 00:49 13,0 °C 86 % 1026,6 hPa 0,0 mm 0,0 km/h (0 Bft) S 189 ° 0 min 0,000 mm 0,0 UV-I 0 W/m² 10,7 °C 13,0 °C 0,0 km/h (0 Bft)
12.09.2019 00:50 12,9 °C 86 % 1026,6 hPa 0,0 mm 0,0 km/h (0 Bft) S 189 ° 0 min 0,000 mm 0,0 UV-I 0 W/m² 10,6 °C 12,9 °C 0,0 km/h (0 Bft)
12.09.2019 00:51 12,9 °C 87 % 1026,6 hPa 0,0 mm 0,0 km/h (0 Bft) S 189 ° 0 min 0,000 mm 0,0 UV-I 0 W/m² 10,8 °C 12,9 °C 0,0 km/h (0 Bft)
12.09.2019 00:52 12,9 °C 87 % 1026,5 hPa 0,0 mm 0,0 km/h (0 Bft) S 189 ° 0 min 0,000 mm 0,0 UV-I 0 W/m² 10,8 °C 12,9 °C 0,0 km/h (0 Bft)
12.09.2019 00:53 12,8 °C 87 % 1026,5 hPa 0,0 mm 0,0 km/h (0 Bft) S 189 ° 0 min 0,000 mm 0,0 UV-I 0 W/m² 10,7 °C 12,8 °C 0,0 km/h (0 Bft)
12.09.2019 00:54 12,8 °C 87 % 1026,6 hPa 0,0 mm 0,0 km/h (0 Bft) S 189 ° 0 min 0,000 mm 0,0 UV-I 0 W/m² 10,7 °C 12,8 °C 0,0 km/h (0 Bft)
12.09.2019 00:55 12,8 °C 87 % 1026,6 hPa 0,0 mm 0,0 km/h (0 Bft) S 189 ° 0 min 0,000 mm 0,0 UV-I 0 W/m² 10,7 °C 12,8 °C 0,0 km/h (0 Bft)
12.09.2019 00:56 12,8 °C 87 % 1026,5 hPa 0,0 mm 0,0 km/h (0 Bft) S 189 ° 0 min 0,000 mm 0,0 UV-I 0 W/m² 10,7 °C 12,8 °C 0,0 km/h (0 Bft)
12.09.2019 00:57 12,8 °C 88 % 1026,4 hPa 0,0 mm 0,0 km/h (0 Bft) S 189 ° 0 min 0,000 mm 0,0 UV-I 0 W/m² 10,9 °C 12,8 °C 0,0 km/h (0 Bft)
12.09.2019 00:58 12,7 °C 88 % 1026,4 hPa 0,0 mm 0,0 km/h (0 Bft) S 189 ° 0 min 0,000 mm 0,0 UV-I 0 W/m² 10,8 °C 12,7 °C 0,0 km/h (0 Bft)
12.09.2019 00:59 12,7 °C 88 % 1026,4 hPa 0,0 mm 0,0 km/h (0 Bft) S 189 ° 0 min 0,000 mm 0,0 UV-I 0 W/m² 10,8 °C 12,7 °C 0,0 km/h (0 Bft)
12.09.2019 01:00 12,7 °C 88 % 1026,4 hPa 0,0 mm 0,0 km/h (0 Bft) S 189 ° 0 min 0,000 mm 0,0 UV-I 0 W/m² 10,8 °C 12,7 °C 0,0 km/h (0 Bft)
12.09.2019 01:01 12,6 °C 88 % 1026,4 hPa 0,0 mm 0,0 km/h (0 Bft) S 189 ° 0 min 0,025 mm 0,0 UV-I 0 W/m² 10,7 °C 12,6 °C 0,0 km/h (0 Bft)
12.09.2019 01:02 12,6 °C 88 % 1026,4 hPa 0,0 mm 0,0 km/h (0 Bft) S 189 ° 0 min 0,000 mm 0,0 UV-I 0 W/m² 10,7 °C 12,6 °C 0,0 km/h (0 Bft)
12.09.2019 01:03 12,6 °C 88 % 1026,4 hPa 0,0 mm 0,0 km/h (0 Bft) S 189 ° 0 min 0,000 mm 0,0 UV-I 0 W/m² 10,7 °C 12,6 °C 0,0 km/h (0 Bft)
12.09.2019 01:04 12,7 °C 88 % 1026,4 hPa 0,0 mm 0,0 km/h (0 Bft) S 189 ° 0 min 0,000 mm 0,0 UV-I 0 W/m² 10,8 °C 12,7 °C 0,0 km/h (0 Bft)
12.09.2019 01:05 12,6 °C 88 % 1026,5 hPa 0,0 mm 0,0 km/h (0 Bft) S 189 ° 0 min 0,000 mm 0,0 UV-I 0 W/m² 10,7 °C 12,6 °C 0,0 km/h (0 Bft)
12.09.2019 01:06 12,7 °C 88 % 1026,5 hPa 0,0 mm 0,0 km/h (0 Bft) S 189 ° 0 min 0,000 mm 0,0 UV-I 0 W/m² 10,8 °C 12,7 °C 0,0 km/h (0 Bft)
12.09.2019 01:07 12,6 °C 88 % 1026,5 hPa 0,0 mm 0,0 km/h (0 Bft) S 189 ° 0 min 0,000 mm 0,0 UV-I 0 W/m² 10,7 °C 12,6 °C 0,0 km/h (0 Bft)
12.09.2019 01:08 12,6 °C 88 % 1026,5 hPa 0,0 mm 0,0 km/h (0 Bft) S 189 ° 0 min 0,000 mm 0,0 UV-I 0 W/m² 10,7 °C 12,6 °C 0,0 km/h (0 Bft)
12.09.2019 01:09 12,7 °C 88 % 1026,5 hPa 0,0 mm 0,0 km/h (0 Bft) S 189 ° 0 min 0,000 mm 0,0 UV-I 0 W/m² 10,8 °C 12,7 °C 0,0 km/h (0 Bft)
12.09.2019 01:10 12,6 °C 88 % 1026,5 hPa 0,0 mm 0,0 km/h (0 Bft) S 189 ° 0 min 0,000 mm 0,0 UV-I 0 W/m² 10,7 °C 12,6 °C 0,0 km/h (0 Bft)
12.09.2019 01:11 12,6 °C 88 % 1026,5 hPa 0,0 mm 0,0 km/h (0 Bft) S 189 ° 0 min 0,000 mm 0,0 UV-I 0 W/m² 10,7 °C 12,6 °C 0,0 km/h (0 Bft)
12.09.2019 01:12 12,6 °C 88 % 1026,5 hPa 0,0 mm 0,0 km/h (0 Bft) S 189 ° 0 min 0,000 mm 0,0 UV-I 0 W/m² 10,7 °C 12,6 °C 0,0 km/h (0 Bft)
12.09.2019 01:13 12,6 °C 89 % 1026,6 hPa 0,0 mm 0,0 km/h (0 Bft) S 189 ° 0 min 0,000 mm 0,0 UV-I 0 W/m² 10,8 °C 12,6 °C 0,0 km/h (0 Bft)
12.09.2019 01:14 12,6 °C 89 % 1026,6 hPa 0,0 mm 0,0 km/h (0 Bft) S 189 ° 0 min 0,000 mm 0,0 UV-I 0 W/m² 10,8 °C 12,6 °C 0,0 km/h (0 Bft)
12.09.2019 01:15 12,6 °C 89 % 1026,6 hPa 0,0 mm 0,0 km/h (0 Bft) S 189 ° 0 min 0,000 mm 0,0 UV-I 0 W/m² 10,8 °C 12,6 °C 0,0 km/h (0 Bft)
12.09.2019 01:16 12,6 °C 89 % 1026,6 hPa 0,0 mm 0,0 km/h (0 Bft) S 189 ° 0 min 0,000 mm 0,0 UV-I 0 W/m² 10,8 °C 12,6 °C 0,0 km/h (0 Bft)
12.09.2019 01:17 12,6 °C 89 % 1026,6 hPa 0,0 mm 0,0 km/h (0 Bft) S 189 ° 0 min 0,000 mm 0,0 UV-I 0 W/m² 10,8 °C 12,6 °C 0,0 km/h (0 Bft)
12.09.2019 01:18 12,5 °C 89 % 1026,6 hPa 0,0 mm 0,0 km/h (0 Bft) S 189 ° 0 min 0,000 mm 0,0 UV-I 0 W/m² 10,7 °C 12,5 °C 0,0 km/h (0 Bft)
12.09.2019 01:19 12,5 °C 89 % 1026,6 hPa 0,0 mm 0,0 km/h (0 Bft) S 189 ° 0 min 0,000 mm 0,0 UV-I 0 W/m² 10,7 °C 12,5 °C 0,0 km/h (0 Bft)
12.09.2019 01:20 12,4 °C 90 % 1026,5 hPa 0,0 mm 0,0 km/h (0 Bft) S 189 ° 0 min 0,000 mm 0,0 UV-I 0 W/m² 10,8 °C 12,4 °C 0,0 km/h (0 Bft)
12.09.2019 01:21 12,4 °C 90 % 1026,5 hPa 0,0 mm 0,0 km/h (0 Bft) S 189 ° 0 min 0,000 mm 0,0 UV-I 0 W/m² 10,8 °C 12,4 °C 0,0 km/h (0 Bft)
12.09.2019 01:22 12,4 °C 90 % 1026,6 hPa 0,0 mm 0,0 km/h (0 Bft) S 189 ° 0 min 0,000 mm 0,0 UV-I 0 W/m² 10,8 °C 12,4 °C 0,0 km/h (0 Bft)
12.09.2019 01:23 12,4 °C 90 % 1026,5 hPa 0,0 mm 0,0 km/h (0 Bft) S 189 ° 0 min 0,000 mm 0,0 UV-I 0 W/m² 10,8 °C 12,4 °C 0,0 km/h (0 Bft)
12.09.2019 01:24 12,4 °C 90 % 1026,6 hPa 0,0 mm 0,0 km/h (0 Bft) S 189 ° 0 min 0,000 mm 0,0 UV-I 0 W/m² 10,8 °C 12,4 °C 0,0 km/h (0 Bft)
12.09.2019 01:25 12,4 °C 90 % 1026,6 hPa 0,0 mm 0,0 km/h (0 Bft) S 189 ° 0 min 0,000 mm 0,0 UV-I 0 W/m² 10,8 °C 12,4 °C 0,0 km/h (0 Bft)
12.09.2019 01:26 12,4 °C 90 % 1026,6 hPa 0,0 mm 0,0 km/h (0 Bft) S 189 ° 0 min 0,000 mm 0,0 UV-I 0 W/m² 10,8 °C 12,4 °C 0,0 km/h (0 Bft)
12.09.2019 01:27 12,5 °C 90 % 1026,6 hPa 0,0 mm 0,0 km/h (0 Bft) S 189 ° 0 min 0,000 mm 0,0 UV-I 0 W/m² 10,9 °C 12,5 °C 0,0 km/h (0 Bft)
12.09.2019 01:28 12,6 °C 90 % 1026,6 hPa 0,0 mm 0,0 km/h (0 Bft) S 189 ° 0 min 0,000 mm 0,0 UV-I 0 W/m² 11,0 °C 12,6 °C 0,0 km/h (0 Bft)
12.09.2019 01:29 12,6 °C 90 % 1026,6 hPa 0,0 mm 0,0 km/h (0 Bft) S 189 ° 0 min 0,000 mm 0,0 UV-I 0 W/m² 11,0 °C 12,6 °C 0,0 km/h (0 Bft)
12.09.2019 01:30 12,6 °C 89 % 1026,6 hPa 0,0 mm 0,5 km/h (0 Bft) S 189 ° 0 min 0,000 mm 0,0 UV-I 0 W/m² 10,8 °C 12,6 °C 3,2 km/h (1 Bft)
12.09.2019 01:31 12,6 °C 89 % 1026,6 hPa 0,0 mm 0,9 km/h (0 Bft) S 189 ° 0 min 0,000 mm 0,0 UV-I 0 W/m² 10,8 °C 12,6 °C 1,6 km/h (1 Bft)
12.09.2019 01:32 12,7 °C 89 % 1026,6 hPa 0,2 mm 2,0 km/h (1 Bft) S-SW 194 ° 0 min 0,000 mm 0,0 UV-I 0 W/m² 10,9 °C 12,7 °C 4,8 km/h (1 Bft)
12.09.2019 01:33 12,7 °C 89 % 1026,6 hPa 0,0 mm 1,7 km/h (1 Bft) S-SW 194 ° 0 min 0,000 mm 0,0 UV-I 0 W/m² 10,9 °C 12,7 °C 4,8 km/h (1 Bft)
12.09.2019 01:34 12,7 °C 89 % 1026,7 hPa 0,0 mm 1,1 km/h (1 Bft) S-SW 194 ° 0 min 0,000 mm 0,0 UV-I 0 W/m² 10,9 °C 12,7 °C 3,2 km/h (1 Bft)
12.09.2019 01:35 12,8 °C 89 % 1026,7 hPa 0,0 mm 0,0 km/h (0 Bft) S-SW 194 ° 0 min 0,000 mm 0,0 UV-I 0 W/m² 11,0 °C 12,8 °C 0,0 km/h (0 Bft)
12.09.2019 01:36 12,8 °C 89 % 1026,7 hPa 0,0 mm 1,0 km/h (0 Bft) S-SW 195 ° 0 min 0,000 mm 0,0 UV-I 0 W/m² 11,0 °C 12,8 °C 4,8 km/h (1 Bft)
12.09.2019 01:37 12,9 °C 88 % 1026,7 hPa 0,0 mm 2,6 km/h (1 Bft) S-SW 195 ° 0 min 0,000 mm 0,0 UV-I 0 W/m² 11,0 °C 12,9 °C 4,8 km/h (1 Bft)
12.09.2019 01:38 12,9 °C 88 % 1026,7 hPa 0,0 mm 1,6 km/h (1 Bft) S 191 ° 0 min 0,000 mm 0,0 UV-I 0 W/m² 11,0 °C 12,9 °C 6,4 km/h (2 Bft)
12.09.2019 01:39 12,9 °C 88 % 1026,7 hPa 0,0 mm 3,5 km/h (1 Bft) S-SW 194 ° 0 min 0,000 mm 0,0 UV-I 0 W/m² 11,0 °C 12,9 °C 4,8 km/h (1 Bft)
12.09.2019 01:40 12,9 °C 88 % 1026,7 hPa 0,0 mm 5,4 km/h (1 Bft) S-SW 192 ° 0 min 0,000 mm 0,0 UV-I 0 W/m² 11,0 °C 12,9 °C 8,0 km/h (2 Bft)
12.09.2019 01:41 13,1 °C 88 % 1026,7 hPa 0,0 mm 4,5 km/h (1 Bft) S-SW 192 ° 0 min 0,000 mm 0,0 UV-I 0 W/m² 11,2 °C 13,1 °C 6,4 km/h (2 Bft)
12.09.2019 01:42 13,1 °C 88 % 1026,7 hPa 0,0 mm 3,4 km/h (1 Bft) SW 223 ° 0 min 0,000 mm 0,0 UV-I 0 W/m² 11,2 °C 13,1 °C 4,8 km/h (1 Bft)
12.09.2019 01:43 13,1 °C 87 % 1026,7 hPa 0,0 mm 5,0 km/h (1 Bft) S-SW 209 ° 0 min 0,000 mm 0,0 UV-I 0 W/m² 11,0 °C 13,1 °C 8,0 km/h (2 Bft)
12.09.2019 01:44 13,1 °C 88 % 1026,7 hPa 0,0 mm 3,4 km/h (1 Bft) S-SW 194 ° 0 min 0,000 mm 0,0 UV-I 0 W/m² 11,2 °C 13,1 °C 6,4 km/h (2 Bft)
12.09.2019 01:45 13,1 °C 87 % 1026,7 hPa 0,0 mm 4,4 km/h (1 Bft) S-SW 211 ° 0 min 0,000 mm 0,0 UV-I 0 W/m² 11,0 °C 13,1 °C 6,4 km/h (2 Bft)
12.09.2019 01:46 13,2 °C 87 % 1026,7 hPa 0,0 mm 3,5 km/h (1 Bft) S-SW 200 ° 0 min 0,000 mm 0,0 UV-I 0 W/m² 11,1 °C 13,2 °C 6,4 km/h (2 Bft)
12.09.2019 01:47 13,2 °C 87 % 1026,7 hPa 0,0 mm 4,6 km/h (1 Bft) S-SW 197 ° 0 min 0,000 mm 0,0 UV-I 0 W/m² 11,1 °C 13,2 °C 6,4 km/h (2 Bft)
12.09.2019 01:48 13,2 °C 87 % 1026,7 hPa 0,0 mm 3,2 km/h (1 Bft) S-SW 200 ° 0 min 0,000 mm 0,0 UV-I 0 W/m² 11,1 °C 13,2 °C 8,0 km/h (2 Bft)
12.09.2019 01:49 13,3 °C 87 % 1026,7 hPa 0,0 mm 0,2 km/h (0 Bft) S-SW 200 ° 0 min 0,000 mm 0,0 UV-I 0 W/m² 11,2 °C 13,3 °C 1,6 km/h (1 Bft)
12.09.2019 01:50 13,3 °C 87 % 1026,7 hPa 0,0 mm 2,1 km/h (1 Bft) S-SW 199 ° 0 min 0,000 mm 0,0 UV-I 0 W/m² 11,2 °C 13,3 °C 3,2 km/h (1 Bft)
12.09.2019 01:51 13,2 °C 87 % 1026,8 hPa 0,0 mm 2,2 km/h (1 Bft) S-SW 200 ° 0 min 0,000 mm 0,0 UV-I 0 W/m² 11,1 °C 13,2 °C 3,2 km/h (1 Bft)
12.09.2019 01:52 13,2 °C 87 % 1026,7 hPa 0,0 mm 2,6 km/h (1 Bft) S-SW 200 ° 0 min 0,000 mm 0,0 UV-I 0 W/m² 11,1 °C 13,2 °C 4,8 km/h (1 Bft)
12.09.2019 01:53 13,2 °C 87 % 1026,8 hPa 0,0 mm 2,2 km/h (1 Bft) W-SW 246 ° 0 min 0,000 mm 0,0 UV-I 0 W/m² 11,1 °C 13,2 °C 4,8 km/h (1 Bft)
12.09.2019 01:54 13,2 °C 88 % 1026,8 hPa 0,0 mm 0,7 km/h (0 Bft) W-SW 246 ° 0 min 0,000 mm 0,0 UV-I 0 W/m² 11,3 °C 13,2 °C 3,2 km/h (1 Bft)
12.09.2019 01:55 13,1 °C 88 % 1026,8 hPa 0,0 mm 0,0 km/h (0 Bft) W-SW 246 ° 0 min 0,000 mm 0,0 UV-I 0 W/m² 11,2 °C 13,1 °C 0,0 km/h (0 Bft)
12.09.2019 01:56 13,0 °C 88 % 1026,9 hPa 0,0 mm 2,8 km/h (1 Bft) W-SW 246 ° 0 min 0,000 mm 0,0 UV-I 0 W/m² 11,1 °C 13,0 °C 3,2 km/h (1 Bft)
12.09.2019 01:57 13,0 °C 88 % 1026,9 hPa 0,0 mm 2,4 km/h (1 Bft) W-SW 246 ° 0 min 0,000 mm 0,0 UV-I 0 W/m² 11,1 °C 13,0 °C 4,8 km/h (1 Bft)
12.09.2019 01:58 13,0 °C 88 % 1026,9 hPa 0,0 mm 3,0 km/h (1 Bft) W-SW 246 ° 0 min 0,000 mm 0,0 UV-I 0 W/m² 11,1 °C 13,0 °C 4,8 km/h (1 Bft)
12.09.2019 01:59 12,9 °C 89 % 1026,9 hPa 0,0 mm 3,2 km/h (1 Bft) W-SW 246 ° 0 min 0,000 mm 0,0 UV-I 0 W/m² 11,1 °C 12,9 °C 4,8 km/h (1 Bft)
12.09.2019 02:00 12,9 °C 89 % 1026,9 hPa 0,0 mm 0,7 km/h (0 Bft) W-SW 246 ° 0 min 0,000 mm 0,0 UV-I 0 W/m² 11,1 °C 12,9 °C 3,2 km/h (1 Bft)
12.09.2019 02:01 12,9 °C 89 % 1026,9 hPa 0,0 mm 0,0 km/h (0 Bft) W-SW 246 ° 0 min 0,000 mm 0,0 UV-I 0 W/m² 11,1 °C 12,9 °C 0,0 km/h (0 Bft)
12.09.2019 02:02 12,8 °C 89 % 1026,9 hPa 0,0 mm 0,0 km/h (0 Bft) W-SW 246 ° 0 min 0,000 mm 0,0 UV-I 0 W/m² 11,0 °C 12,8 °C 0,0 km/h (0 Bft)
12.09.2019 02:03 12,9 °C 89 % 1026,9 hPa 0,0 mm 0,0 km/h (0 Bft) W-SW 246 ° 0 min 0,000 mm 0,0 UV-I 0 W/m² 11,1 °C 12,9 °C 0,0 km/h (0 Bft)
12.09.2019 02:04 12,8 °C 89 % 1027,0 hPa 0,0 mm 0,0 km/h (0 Bft) W-SW 246 ° 0 min 0,000 mm 0,0 UV-I 0 W/m² 11,0 °C 12,8 °C 0,0 km/h (0 Bft)
12.09.2019 02:05 12,8 °C 89 % 1026,9 hPa 0,0 mm 0,0 km/h (0 Bft) W-SW 246 ° 0 min 0,000 mm 0,0 UV-I 0 W/m² 11,0 °C 12,8 °C 0,0 km/h (0 Bft)
12.09.2019 02:06 12,8 °C 89 % 1026,9 hPa 0,0 mm 0,0 km/h (0 Bft) W-SW 246 ° 0 min 0,000 mm 0,0 UV-I 0 W/m² 11,0 °C 12,8 °C 0,0 km/h (0 Bft)
12.09.2019 02:07 12,8 °C 89 % 1027,0 hPa 0,0 mm 0,0 km/h (0 Bft) W-SW 246 ° 0 min 0,000 mm 0,0 UV-I 0 W/m² 11,0 °C 12,8 °C 0,0 km/h (0 Bft)
12.09.2019 02:08 12,8 °C 89 % 1027,0 hPa 0,0 mm 0,0 km/h (0 Bft) W-SW 246 ° 0 min 0,000 mm 0,0 UV-I 0 W/m² 11,0 °C 12,8 °C 0,0 km/h (0 Bft)
12.09.2019 02:09 12,8 °C 89 % 1026,9 hPa 0,0 mm 0,0 km/h (0 Bft) W-SW 246 ° 0 min 0,000 mm 0,0 UV-I 0 W/m² 11,0 °C 12,8 °C 0,0 km/h (0 Bft)
12.09.2019 02:10 12,8 °C 89 % 1027,0 hPa 0,0 mm 0,0 km/h (0 Bft) W-SW 246 ° 0 min 0,000 mm 0,0 UV-I 0 W/m² 11,0 °C 12,8 °C 0,0 km/h (0 Bft)
12.09.2019 02:11 12,8 °C 89 % 1026,9 hPa 0,0 mm 0,0 km/h (0 Bft) W-SW 246 ° 0 min 0,000 mm 0,0 UV-I 0 W/m² 11,0 °C 12,8 °C 0,0 km/h (0 Bft)
12.09.2019 02:12 12,8 °C 89 % 1026,9 hPa 0,0 mm 0,0 km/h (0 Bft) W-SW 246 ° 0 min 0,000 mm 0,0 UV-I 0 W/m² 11,0 °C 12,8 °C 0,0 km/h (0 Bft)
12.09.2019 02:13 12,8 °C 89 % 1026,9 hPa 0,0 mm 0,0 km/h (0 Bft) W-SW 246 ° 0 min 0,000 mm 0,0 UV-I 0 W/m² 11,0 °C 12,8 °C 0,0 km/h (0 Bft)
12.09.2019 02:14 12,8 °C 90 % 1026,9 hPa 0,0 mm 0,0 km/h (0 Bft) W-SW 246 ° 0 min 0,000 mm 0,0 UV-I 0 W/m² 11,2 °C 12,8 °C 0,0 km/h (0 Bft)
12.09.2019 02:15 12,8 °C 90 % 1026,9 hPa 0,0 mm 0,0 km/h (0 Bft) W-SW 246 ° 0 min 0,000 mm 0,0 UV-I 0 W/m² 11,2 °C 12,8 °C 0,0 km/h (0 Bft)
12.09.2019 02:16 12,8 °C 90 % 1026,9 hPa 0,0 mm 0,0 km/h (0 Bft) W-SW 246 ° 0 min 0,000 mm 0,0 UV-I 0 W/m² 11,2 °C 12,8 °C 0,0 km/h (0 Bft)
12.09.2019 02:17 12,8 °C 90 % 1026,9 hPa 0,0 mm 0,0 km/h (0 Bft) W-SW 246 ° 0 min 0,000 mm 0,0 UV-I 0 W/m² 11,2 °C 12,8 °C 0,0 km/h (0 Bft)
12.09.2019 02:18 12,8 °C 90 % 1026,9 hPa 0,0 mm 0,0 km/h (0 Bft) W-SW 246 ° 0 min 0,000 mm 0,0 UV-I 0 W/m² 11,2 °C 12,8 °C 0,0 km/h (0 Bft)
12.09.2019 02:19 12,8 °C 90 % 1026,9 hPa 0,0 mm 0,0 km/h (0 Bft) W-SW 246 ° 0 min 0,000 mm 0,0 UV-I 0 W/m² 11,2 °C 12,8 °C 0,0 km/h (0 Bft)
12.09.2019 02:20 12,8 °C 90 % 1026,9 hPa 0,0 mm 0,0 km/h (0 Bft) W-SW 246 ° 0 min 0,000 mm 0,0 UV-I 0 W/m² 11,2 °C 12,8 °C 0,0 km/h (0 Bft)
12.09.2019 02:21 12,7 °C 90 % 1026,9 hPa 0,0 mm 0,0 km/h (0 Bft) W-SW 246 ° 0 min 0,000 mm 0,0 UV-I 0 W/m² 11,1 °C 12,7 °C 0,0 km/h (0 Bft)
12.09.2019 02:22 12,7 °C 90 % 1026,9 hPa 0,0 mm 0,0 km/h (0 Bft) W-SW 246 ° 0 min 0,000 mm 0,0 UV-I 0 W/m² 11,1 °C 12,7 °C 0,0 km/h (0 Bft)
12.09.2019 02:23 12,6 °C 90 % 1027,0 hPa 0,0 mm 0,0 km/h (0 Bft) W-SW 246 ° 0 min 0,000 mm 0,0 UV-I 0 W/m² 11,0 °C 12,6 °C 0,0 km/h (0 Bft)
12.09.2019 02:24 12,6 °C 90 % 1027,0 hPa 0,0 mm 0,0 km/h (0 Bft) W-SW 246 ° 0 min 0,000 mm 0,0 UV-I 0 W/m² 11,0 °C 12,6 °C 0,0 km/h (0 Bft)
12.09.2019 02:25 12,6 °C 90 % 1026,9 hPa 0,0 mm 0,0 km/h (0 Bft) W-SW 246 ° 0 min 0,000 mm 0,0 UV-I 0 W/m² 11,0 °C 12,6 °C 0,0 km/h (0 Bft)
12.09.2019 02:26 12,6 °C 90 % 1026,9 hPa 0,0 mm 0,0 km/h (0 Bft) W-SW 246 ° 0 min 0,000 mm 0,0 UV-I 0 W/m² 11,0 °C 12,6 °C 0,0 km/h (0 Bft)
12.09.2019 02:27 12,5 °C 91 % 1027,0 hPa 0,0 mm 0,0 km/h (0 Bft) W-SW 246 ° 0 min 0,000 mm 0,0 UV-I 0 W/m² 11,1 °C 12,5 °C 0,0 km/h (0 Bft)
12.09.2019 02:28 12,4 °C 91 % 1027,0 hPa 0,0 mm 0,0 km/h (0 Bft) W-SW 246 ° 0 min 0,000 mm 0,0 UV-I 0 W/m² 11,0 °C 12,4 °C 0,0 km/h (0 Bft)
12.09.2019 02:29 12,4 °C 91 % 1027,0 hPa 0,0 mm 0,0 km/h (0 Bft) W-SW 246 ° 0 min 0,000 mm 0,0 UV-I 0 W/m² 11,0 °C 12,4 °C 0,0 km/h (0 Bft)
12.09.2019 02:30 12,5 °C 91 % 1027,0 hPa 0,0 mm 0,0 km/h (0 Bft) W-SW 246 ° 0 min 0,000 mm 0,0 UV-I 0 W/m² 11,1 °C 12,5 °C 0,0 km/h (0 Bft)
12.09.2019 02:31 12,4 °C 91 % 1027,0 hPa 0,0 mm 3,4 km/h (1 Bft) S-SW 205 ° 0 min 0,000 mm 0,0 UV-I 0 W/m² 11,0 °C 12,4 °C 8,0 km/h (2 Bft)
12.09.2019 02:32 12,5 °C 91 % 1027,0 hPa 0,0 mm 2,9 km/h (1 Bft) S-SW 205 ° 0 min 0,000 mm 0,0 UV-I 0 W/m² 11,1 °C 12,5 °C 4,8 km/h (1 Bft)
12.09.2019 02:33 12,5 °C 91 % 1027,0 hPa 0,0 mm 3,3 km/h (1 Bft) S-SW 205 ° 0 min 0,000 mm 0,0 UV-I 0 W/m² 11,1 °C 12,5 °C 4,8 km/h (1 Bft)
12.09.2019 02:34 12,6 °C 91 % 1027,0 hPa 0,0 mm 2,5 km/h (1 Bft) S-SW 205 ° 0 min 0,000 mm 0,0 UV-I 0 W/m² 11,2 °C 12,6 °C 4,8 km/h (1 Bft)
12.09.2019 02:35 12,6 °C 91 % 1027,0 hPa 0,0 mm 0,9 km/h (0 Bft) S-SW 205 ° 0 min 0,000 mm 0,0 UV-I 0 W/m² 11,2 °C 12,6 °C 3,2 km/h (1 Bft)
12.09.2019 02:36 12,6 °C 91 % 1027,0 hPa 0,0 mm 1,4 km/h (1 Bft) S-SW 205 ° 0 min 0,000 mm 0,0 UV-I 0 W/m² 11,2 °C 12,6 °C 3,2 km/h (1 Bft)
12.09.2019 02:37 12,6 °C 90 % 1027,1 hPa 0,0 mm 2,4 km/h (1 Bft) S-SW 202 ° 0 min 0,000 mm 0,0 UV-I 0 W/m² 11,0 °C 12,6 °C 4,8 km/h (1 Bft)
12.09.2019 02:38 12,6 °C 90 % 1027,1 hPa 0,0 mm 2,3 km/h (1 Bft) S-SW 202 ° 0 min 0,000 mm 0,0 UV-I 0 W/m² 11,0 °C 12,6 °C 4,8 km/h (1 Bft)
12.09.2019 02:39 12,6 °C 90 % 1027,1 hPa 0,0 mm 0,0 km/h (0 Bft) S-SW 202 ° 0 min 0,000 mm 0,0 UV-I 0 W/m² 11,0 °C 12,6 °C 0,0 km/h (0 Bft)
12.09.2019 02:40 12,6 °C 90 % 1027,1 hPa 0,0 mm 0,0 km/h (0 Bft) S-SW 202 ° 0 min 0,000 mm 0,0 UV-I 0 W/m² 11,0 °C 12,6 °C 0,0 km/h (0 Bft)
12.09.2019 02:41 12,7 °C 90 % 1027,1 hPa 0,0 mm 0,0 km/h (0 Bft) S-SW 202 ° 0 min 0,000 mm 0,0 UV-I 0 W/m² 11,1 °C 12,7 °C 0,0 km/h (0 Bft)
12.09.2019 02:42 12,7 °C 90 % 1027,2 hPa 0,0 mm 3,4 km/h (1 Bft) S-SW 200 ° 0 min 0,000 mm 0,0 UV-I 0 W/m² 11,1 °C 12,7 °C 6,4 km/h (2 Bft)
12.09.2019 02:43 12,7 °C 90 % 1027,2 hPa 0,0 mm 1,5 km/h (1 Bft) S-SW 200 ° 0 min 0,000 mm 0,0 UV-I 0 W/m² 11,1 °C 12,7 °C 3,2 km/h (1 Bft)
12.09.2019 02:44 12,7 °C 90 % 1027,2 hPa 0,0 mm 4,0 km/h (1 Bft) S-SW 205 ° 0 min 0,000 mm 0,0 UV-I 0 W/m² 11,1 °C 12,7 °C 4,8 km/h (1 Bft)
12.09.2019 02:45 12,7 °C 90 % 1027,2 hPa 0,0 mm 2,1 km/h (1 Bft) S-SW 208 ° 0 min 0,000 mm 0,0 UV-I 0 W/m² 11,1 °C 12,7 °C 4,8 km/h (1 Bft)
12.09.2019 02:46 12,7 °C 90 % 1027,2 hPa 0,0 mm 0,3 km/h (0 Bft) S-SW 208 ° 0 min 0,000 mm 0,0 UV-I 0 W/m² 11,1 °C 12,7 °C 1,6 km/h (1 Bft)
12.09.2019 02:47 12,7 °C 90 % 1027,2 hPa 0,0 mm 0,1 km/h (0 Bft) S-SW 207 ° 0 min 0,000 mm 0,0 UV-I 0 W/m² 11,1 °C 12,7 °C 3,2 km/h (1 Bft)
12.09.2019 02:48 12,7 °C 90 % 1027,2 hPa 0,0 mm 3,2 km/h (1 Bft) S 178 ° 0 min 0,000 mm 0,0 UV-I 0 W/m² 11,1 °C 12,7 °C 4,8 km/h (1 Bft)
12.09.2019 02:49 12,8 °C 90 % 1027,2 hPa 0,0 mm 1,8 km/h (1 Bft) S 178 ° 0 min 0,000 mm 0,0 UV-I 0 W/m² 11,2 °C 12,8 °C 3,2 km/h (1 Bft)
12.09.2019 02:50 12,7 °C 90 % 1027,2 hPa 0,0 mm 1,7 km/h (1 Bft) S 178 ° 0 min 0,000 mm 0,0 UV-I 0 W/m² 11,1 °C 12,7 °C 3,2 km/h (1 Bft)
12.09.2019 02:51 12,7 °C 90 % 1027,2 hPa 0,0 mm 0,7 km/h (0 Bft) S 178 ° 0 min 0,000 mm 0,0 UV-I 0 W/m² 11,1 °C 12,7 °C 3,2 km/h (1 Bft)
12.09.2019 02:52 12,7 °C 90 % 1027,1 hPa 0,0 mm 1,0 km/h (0 Bft) S 179 ° 0 min 0,000 mm 0,0 UV-I 0 W/m² 11,1 °C 12,7 °C 3,2 km/h (1 Bft)
12.09.2019 02:53 12,7 °C 90 % 1027,1 hPa 0,0 mm 3,6 km/h (1 Bft) SW 217 ° 0 min 0,000 mm 0,0 UV-I 0 W/m² 11,1 °C 12,7 °C 4,8 km/h (1 Bft)
12.09.2019 02:54 12,8 °C 89 % 1027,1 hPa 0,0 mm 2,2 km/h (1 Bft) S-SW 196 ° 0 min 0,000 mm 0,0 UV-I 0 W/m² 11,0 °C 12,8 °C 6,4 km/h (2 Bft)
12.09.2019 02:55 12,8 °C 89 % 1027,1 hPa 0,0 mm 2,9 km/h (1 Bft) S 180 ° 0 min 0,000 mm 0,0 UV-I 0 W/m² 11,0 °C 12,8 °C 4,8 km/h (1 Bft)
12.09.2019 02:56 12,8 °C 89 % 1027,1 hPa 0,0 mm 1,4 km/h (1 Bft) S 180 ° 0 min 0,000 mm 0,0 UV-I 0 W/m² 11,0 °C 12,8 °C 3,2 km/h (1 Bft)
12.09.2019 02:57 12,8 °C 89 % 1027,2 hPa 0,0 mm 4,4 km/h (1 Bft) S 184 ° 0 min 0,000 mm 0,0 UV-I 0 W/m² 11,0 °C 12,8 °C 4,8 km/h (1 Bft)
12.09.2019 02:58 12,9 °C 88 % 1027,2 hPa 0,0 mm 4,0 km/h (1 Bft) S 184 ° 0 min 0,000 mm 0,0 UV-I 0 W/m² 11,0 °C 12,9 °C 4,8 km/h (1 Bft)
12.09.2019 02:59 12,9 °C 88 % 1027,2 hPa 0,0 mm 4,1 km/h (1 Bft) S 178 ° 0 min 0,000 mm 0,0 UV-I 0 W/m² 11,0 °C 12,9 °C 6,4 km/h (2 Bft)
12.09.2019 03:00 13,0 °C 88 % 1027,2 hPa 0,0 mm 3,6 km/h (1 Bft) S 178 ° 0 min 0,000 mm 0,0 UV-I 0 W/m² 11,1 °C 13,0 °C 4,8 km/h (1 Bft)
12.09.2019 03:01 12,9 °C 88 % 1027,2 hPa 0,0 mm 3,4 km/h (1 Bft) S-SW 202 ° 0 min 0,000 mm 0,0 UV-I 0 W/m² 11,0 °C 12,9 °C 8,0 km/h (2 Bft)
12.09.2019 03:02 13,1 °C 88 % 1027,2 hPa 0,0 mm 2,5 km/h (1 Bft) S 190 ° 0 min 0,000 mm 0,0 UV-I 0 W/m² 11,2 °C 13,1 °C 3,2 km/h (1 Bft)
12.09.2019 03:03 13,1 °C 88 % 1027,3 hPa 0,0 mm 1,5 km/h (1 Bft) S 190 ° 0 min 0,000 mm 0,0 UV-I 0 W/m² 11,2 °C 13,1 °C 3,2 km/h (1 Bft)
12.09.2019 03:04 13,1 °C 87 % 1027,3 hPa 0,0 mm 2,3 km/h (1 Bft) S 189 ° 0 min 0,000 mm 0,0 UV-I 0 W/m² 11,0 °C 13,1 °C 3,2 km/h (1 Bft)
12.09.2019 03:05 13,1 °C 87 % 1027,3 hPa 0,0 mm 1,2 km/h (1 Bft) S 190 ° 0 min 0,000 mm 0,0 UV-I 0 W/m² 11,0 °C 13,1 °C 3,2 km/h (1 Bft)
12.09.2019 03:06 13,1 °C 87 % 1027,2 hPa 0,0 mm 0,5 km/h (0 Bft) S 190 ° 0 min 0,000 mm 0,0 UV-I 0 W/m² 11,0 °C 13,1 °C 1,6 km/h (1 Bft)
12.09.2019 03:07 13,1 °C 86 % 1027,2 hPa 0,0 mm 2,2 km/h (1 Bft) S 189 ° 0 min 0,000 mm 0,0 UV-I 0 W/m² 10,8 °C 13,1 °C 6,4 km/h (2 Bft)
12.09.2019 03:08 13,2 °C 86 % 1027,3 hPa 0,0 mm 3,7 km/h (1 Bft) S 190 ° 0 min 0,000 mm 0,0 UV-I 0 W/m² 10,9 °C 13,2 °C 4,8 km/h (1 Bft)
12.09.2019 03:09 13,2 °C 86 % 1027,3 hPa 0,0 mm 5,0 km/h (1 Bft) S 182 ° 0 min 0,000 mm 0,0 UV-I 0 W/m² 10,9 °C 13,2 °C 6,4 km/h (2 Bft)
12.09.2019 03:10 13,2 °C 86 % 1027,3 hPa 0,0 mm 4,7 km/h (1 Bft) S-SW 202 ° 0 min 0,000 mm 0,0 UV-I 0 W/m² 10,9 °C 13,2 °C 8,0 km/h (2 Bft)
12.09.2019 03:11 13,2 °C 86 % 1027,3 hPa 0,0 mm 4,0 km/h (1 Bft) S-SW 198 ° 0 min 0,000 mm 0,0 UV-I 0 W/m² 10,9 °C 13,2 °C 6,4 km/h (2 Bft)
12.09.2019 03:12 13,2 °C 86 % 1027,3 hPa 0,0 mm 4,4 km/h (1 Bft) S-SW 195 ° 0 min 0,000 mm 0,0 UV-I 0 W/m² 10,9 °C 13,2 °C 6,4 km/h (2 Bft)
12.09.2019 03:13 13,2 °C 86 % 1027,3 hPa 0,0 mm 4,6 km/h (1 Bft) S-SW 192 ° 0 min 0,000 mm 0,0 UV-I 0 W/m² 10,9 °C 13,2 °C 8,0 km/h (2 Bft)
12.09.2019 03:14 13,2 °C 86 % 1027,3 hPa 0,0 mm 1,5 km/h (1 Bft) S-SW 193 ° 0 min 0,000 mm 0,0 UV-I 0 W/m² 10,9 °C 13,2 °C 3,2 km/h (1 Bft)
12.09.2019 03:15 13,2 °C 86 % 1027,3 hPa 0,0 mm 1,5 km/h (1 Bft) S-SW 192 ° 0 min 0,000 mm 0,0 UV-I 0 W/m² 10,9 °C 13,2 °C 3,2 km/h (1 Bft)
12.09.2019 03:16 13,2 °C 85 % 1027,3 hPa 0,0 mm 1,9 km/h (1 Bft) S-SW 192 ° 0 min 0,000 mm 0,0 UV-I 0 W/m² 10,7 °C 13,2 °C 4,8 km/h (1 Bft)
12.09.2019 03:17 13,2 °C 85 % 1027,3 hPa 0,0 mm 1,0 km/h (0 Bft) S-SW 192 ° 0 min 0,000 mm 0,0 UV-I 0 W/m² 10,7 °C 13,2 °C 3,2 km/h (1 Bft)
12.09.2019 03:18 13,3 °C 85 % 1027,3 hPa 0,0 mm 0,1 km/h (0 Bft) S-SW 192 ° 0 min 0,000 mm 0,0 UV-I 0 W/m² 10,8 °C 13,3 °C 1,6 km/h (1 Bft)
12.09.2019 03:19 13,3 °C 85 % 1027,3 hPa 0,0 mm 3,8 km/h (1 Bft) S-SW 192 ° 0 min 0,000 mm 0,0 UV-I 0 W/m² 10,8 °C 13,3 °C 6,4 km/h (2 Bft)
12.09.2019 03:20 13,3 °C 85 % 1027,3 hPa 0,0 mm 2,0 km/h (1 Bft) S-SW 192 ° 0 min 0,000 mm 0,0 UV-I 0 W/m² 10,8 °C 13,3 °C 4,8 km/h (1 Bft)
12.09.2019 03:21 13,3 °C 85 % 1027,3 hPa 0,0 mm 3,2 km/h (1 Bft) S 183 ° 0 min 0,000 mm 0,0 UV-I 0 W/m² 10,8 °C 13,3 °C 6,4 km/h (2 Bft)
12.09.2019 03:22 13,3 °C 85 % 1027,3 hPa 0,0 mm 4,0 km/h (1 Bft) S 182 ° 0 min 0,000 mm 0,0 UV-I 0 W/m² 10,8 °C 13,3 °C 8,0 km/h (2 Bft)
12.09.2019 03:23 13,3 °C 85 % 1027,4 hPa 0,0 mm 5,1 km/h (1 Bft) S 190 ° 0 min 0,000 mm 0,0 UV-I 0 W/m² 10,8 °C 13,3 °C 8,0 km/h (2 Bft)
12.09.2019 03:24 13,3 °C 84 % 1027,4 hPa 0,0 mm 5,6 km/h (1 Bft) S 180 ° 0 min 0,000 mm 0,0 UV-I 0 W/m² 10,7 °C 13,3 °C 8,0 km/h (2 Bft)
12.09.2019 03:25 13,3 °C 84 % 1027,3 hPa 0,0 mm 4,4 km/h (1 Bft) S 180 ° 0 min 0,000 mm 0,0 UV-I 0 W/m² 10,7 °C 13,3 °C 6,4 km/h (2 Bft)
12.09.2019 03:26 13,3 °C 84 % 1027,4 hPa 0,0 mm 3,4 km/h (1 Bft) S 180 ° 0 min 0,000 mm 0,0 UV-I 0 W/m² 10,7 °C 13,3 °C 4,8 km/h (1 Bft)
12.09.2019 03:27 13,3 °C 84 % 1027,4 hPa 0,0 mm 2,7 km/h (1 Bft) S 186 ° 0 min 0,000 mm 0,0 UV-I 0 W/m² 10,7 °C 13,3 °C 3,2 km/h (1 Bft)
12.09.2019 03:28 13,3 °C 84 % 1027,4 hPa 0,0 mm 3,6 km/h (1 Bft) S 190 ° 0 min 0,000 mm 0,0 UV-I 0 W/m² 10,7 °C 13,3 °C 4,8 km/h (1 Bft)
12.09.2019 03:29 13,3 °C 84 % 1027,4 hPa 0,0 mm 3,8 km/h (1 Bft) S 189 ° 0 min 0,000 mm 0,0 UV-I 0 W/m² 10,7 °C 13,3 °C 4,8 km/h (1 Bft)
12.09.2019 03:30 13,3 °C 84 % 1027,4 hPa 0,0 mm 0,6 km/h (0 Bft) S 190 ° 0 min 0,000 mm 0,0 UV-I 0 W/m² 10,7 °C 13,3 °C 3,2 km/h (1 Bft)
12.09.2019 03:31 13,3 °C 84 % 1027,4 hPa 0,0 mm 2,2 km/h (1 Bft) S 189 ° 0 min 0,000 mm 0,0 UV-I 0 W/m² 10,7 °C 13,3 °C 4,8 km/h (1 Bft)
12.09.2019 03:32 13,3 °C 84 % 1027,4 hPa 0,0 mm 1,4 km/h (1 Bft) S 189 ° 0 min 0,000 mm 0,0 UV-I 0 W/m² 10,7 °C 13,3 °C 3,2 km/h (1 Bft)
12.09.2019 03:33 13,3 °C 84 % 1027,4 hPa 0,0 mm 1,6 km/h (1 Bft) S 189 ° 0 min 0,000 mm 0,0 UV-I 0 W/m² 10,7 °C 13,3 °C 3,2 km/h (1 Bft)
12.09.2019 03:34 13,3 °C 84 % 1027,4 hPa 0,0 mm 0,0 km/h (0 Bft) S 189 ° 0 min 0,000 mm 0,0 UV-I 0 W/m² 10,7 °C 13,3 °C 0,0 km/h (0 Bft)
12.09.2019 03:35 13,3 °C 84 % 1027,4 hPa 0,0 mm 0,0 km/h (0 Bft) S 189 ° 0 min 0,000 mm 0,0 UV-I 0 W/m² 10,7 °C 13,3 °C 0,0 km/h (0 Bft)
12.09.2019 03:36 13,3 °C 84 % 1027,4 hPa 0,0 mm 0,0 km/h (0 Bft) S 190 ° 0 min 0,000 mm 0,0 UV-I 0 W/m² 10,7 °C 13,3 °C 0,0 km/h (0 Bft)
12.09.2019 03:37 13,3 °C 84 % 1027,4 hPa 0,0 mm 0,0 km/h (0 Bft) S 190 ° 0 min 0,000 mm 0,0 UV-I 0 W/m² 10,7 °C 13,3 °C 0,0 km/h (0 Bft)
12.09.2019 03:38 13,3 °C 84 % 1027,4 hPa 0,0 mm 2,1 km/h (1 Bft) SW 215 ° 0 min 0,000 mm 0,0 UV-I 0 W/m² 10,7 °C 13,3 °C 4,8 km/h (1 Bft)
12.09.2019 03:39 13,3 °C 83 % 1027,4 hPa 0,0 mm 0,4 km/h (0 Bft) SW 215 ° 0 min 0,000 mm 0,0 UV-I 0 W/m² 10,5 °C 13,3 °C 3,2 km/h (1 Bft)
12.09.2019 03:40 13,2 °C 83 % 1027,4 hPa 0,0 mm 1,0 km/h (0 Bft) SW 232 ° 0 min 0,000 mm 0,0 UV-I 0 W/m² 10,4 °C 13,2 °C 3,2 km/h (1 Bft)
12.09.2019 03:41 13,3 °C 83 % 1027,4 hPa 0,0 mm 2,5 km/h (1 Bft) SW 236 ° 0 min 0,000 mm 0,0 UV-I 0 W/m² 10,5 °C 13,3 °C 4,8 km/h (1 Bft)
12.09.2019 03:42 13,3 °C 83 % 1027,4 hPa 0,0 mm 2,6 km/h (1 Bft) W-SW 244 ° 0 min 0,000 mm 0,0 UV-I 0 W/m² 10,5 °C 13,3 °C 3,2 km/h (1 Bft)
12.09.2019 03:43 13,3 °C 83 % 1027,4 hPa 0,0 mm 2,3 km/h (1 Bft) W-SW 244 ° 0 min 0,000 mm 0,0 UV-I 0 W/m² 10,5 °C 13,3 °C 4,8 km/h (1 Bft)
12.09.2019 03:44 13,3 °C 83 % 1027,4 hPa 0,0 mm 1,9 km/h (1 Bft) W-SW 244 ° 0 min 0,000 mm 0,0 UV-I 0 W/m² 10,5 °C 13,3 °C 4,8 km/h (1 Bft)
12.09.2019 03:45 13,3 °C 83 % 1027,4 hPa 0,0 mm 3,0 km/h (1 Bft) W-SW 244 ° 0 min 0,000 mm 0,0 UV-I 0 W/m² 10,5 °C 13,3 °C 4,8 km/h (1 Bft)
12.09.2019 03:46 13,3 °C 82 % 1027,4 hPa 0,0 mm 2,2 km/h (1 Bft) W-SW 244 ° 0 min 0,000 mm 0,0 UV-I 0 W/m² 10,3 °C 13,3 °C 3,2 km/h (1 Bft)
12.09.2019 03:47 13,3 °C 82 % 1027,5 hPa 0,0 mm 2,4 km/h (1 Bft) S-SW 211 ° 0 min 0,000 mm 0,0 UV-I 0 W/m² 10,3 °C 13,3 °C 4,8 km/h (1 Bft)
12.09.2019 03:48 13,3 °C 82 % 1027,5 hPa 0,0 mm 2,0 km/h (1 Bft) S-SW 210 ° 0 min 0,000 mm 0,0 UV-I 0 W/m² 10,3 °C 13,3 °C 4,8 km/h (1 Bft)
12.09.2019 03:49 13,3 °C 82 % 1027,5 hPa 0,0 mm 2,7 km/h (1 Bft) S-SW 211 ° 0 min 0,000 mm 0,0 UV-I 0 W/m² 10,3 °C 13,3 °C 4,8 km/h (1 Bft)
12.09.2019 03:50 13,3 °C 82 % 1027,4 hPa 0,0 mm 3,8 km/h (1 Bft) S-SW 194 ° 0 min 0,000 mm 0,0 UV-I 0 W/m² 10,3 °C 13,3 °C 4,8 km/h (1 Bft)
12.09.2019 03:51 13,3 °C 81 % 1027,5 hPa 0,0 mm 3,4 km/h (1 Bft) S-SW 202 ° 0 min 0,000 mm 0,0 UV-I 0 W/m² 10,1 °C 13,3 °C 4,8 km/h (1 Bft)
12.09.2019 03:52 13,3 °C 81 % 1027,5 hPa 0,0 mm 3,2 km/h (1 Bft) S-SW 202 ° 0 min 0,000 mm 0,0 UV-I 0 W/m² 10,1 °C 13,3 °C 4,8 km/h (1 Bft)
12.09.2019 03:53 13,4 °C 81 % 1027,5 hPa 0,0 mm 3,3 km/h (1 Bft) S-SW 201 ° 0 min 0,000 mm 0,0 UV-I 0 W/m² 10,2 °C 13,4 °C 4,8 km/h (1 Bft)
12.09.2019 03:54 13,3 °C 81 % 1027,5 hPa 0,0 mm 3,0 km/h (1 Bft) S-SW 201 ° 0 min 0,000 mm 0,0 UV-I 0 W/m² 10,1 °C 13,3 °C 4,8 km/h (1 Bft)
12.09.2019 03:55 13,4 °C 81 % 1027,5 hPa 0,0 mm 2,1 km/h (1 Bft) S-SW 201 ° 0 min 0,000 mm 0,0 UV-I 0 W/m² 10,2 °C 13,4 °C 3,2 km/h (1 Bft)
12.09.2019 03:56 13,4 °C 81 % 1027,5 hPa 0,0 mm 2,2 km/h (1 Bft) S-SW 201 ° 0 min 0,000 mm 0,0 UV-I 0 W/m² 10,2 °C 13,4 °C 4,8 km/h (1 Bft)
12.09.2019 03:57 13,4 °C 81 % 1027,5 hPa 0,0 mm 0,7 km/h (0 Bft) S-SW 201 ° 0 min 0,000 mm 0,0 UV-I 0 W/m² 10,2 °C 13,4 °C 3,2 km/h (1 Bft)
12.09.2019 03:58 13,4 °C 81 % 1027,5 hPa 0,0 mm 0,0 km/h (0 Bft) S-SW 201 ° 0 min 0,000 mm 0,0 UV-I 0 W/m² 10,2 °C 13,4 °C 0,0 km/h (0 Bft)
12.09.2019 03:59 13,4 °C 81 % 1027,6 hPa 0,0 mm 0,0 km/h (0 Bft) S-SW 201 ° 0 min 0,000 mm 0,0 UV-I 0 W/m² 10,2 °C 13,4 °C 0,0 km/h (0 Bft)
12.09.2019 04:00 13,4 °C 80 % 1027,5 hPa 0,0 mm 2,0 km/h (1 Bft) S-SW 201 ° 0 min 0,000 mm 0,0 UV-I 0 W/m² 10,0 °C 13,4 °C 4,8 km/h (1 Bft)
12.09.2019 04:01 13,4 °C 81 % 1027,6 hPa 0,0 mm 3,0 km/h (1 Bft) SW 216 ° 0 min 0,026 mm 0,0 UV-I 0 W/m² 10,2 °C 13,4 °C 6,4 km/h (2 Bft)
12.09.2019 04:02 13,4 °C 80 % 1027,5 hPa 0,0 mm 1,5 km/h (1 Bft) SW 216 ° 0 min 0,000 mm 0,0 UV-I 0 W/m² 10,0 °C 13,4 °C 3,2 km/h (1 Bft)
12.09.2019 04:03 13,4 °C 80 % 1027,6 hPa 0,0 mm 5,1 km/h (1 Bft) S-SW 193 ° 0 min 0,000 mm 0,0 UV-I 0 W/m² 10,0 °C 13,4 °C 8,0 km/h (2 Bft)
12.09.2019 04:04 13,4 °C 80 % 1027,6 hPa 0,0 mm 3,9 km/h (1 Bft) S-SW 194 ° 0 min 0,000 mm 0,0 UV-I 0 W/m² 10,0 °C 13,4 °C 4,8 km/h (1 Bft)
12.09.2019 04:05 13,4 °C 80 % 1027,6 hPa 0,0 mm 3,6 km/h (1 Bft) S-SW 197 ° 0 min 0,000 mm 0,0 UV-I 0 W/m² 10,0 °C 13,4 °C 4,8 km/h (1 Bft)
12.09.2019 04:06 13,4 °C 80 % 1027,6 hPa 0,0 mm 2,2 km/h (1 Bft) S-SW 197 ° 0 min 0,000 mm 0,0 UV-I 0 W/m² 10,0 °C 13,4 °C 4,8 km/h (1 Bft)
12.09.2019 04:07 13,4 °C 80 % 1027,6 hPa 0,0 mm 4,1 km/h (1 Bft) S-SW 196 ° 0 min 0,000 mm 0,0 UV-I 0 W/m² 10,0 °C 13,4 °C 6,4 km/h (2 Bft)
12.09.2019 04:08 13,4 °C 80 % 1027,6 hPa 0,0 mm 4,2 km/h (1 Bft) S-SW 196 ° 0 min 0,000 mm 0,0 UV-I 0 W/m² 10,0 °C 13,4 °C 6,4 km/h (2 Bft)
12.09.2019 04:09 13,4 °C 80 % 1027,5 hPa 0,0 mm 5,6 km/h (1 Bft) S-SW 198 ° 0 min 0,000 mm 0,0 UV-I 0 W/m² 10,0 °C 13,4 °C 8,0 km/h (2 Bft)
12.09.2019 04:10 13,4 °C 80 % 1027,6 hPa 0,0 mm 6,0 km/h (2 Bft) S-SW 194 ° 0 min 0,000 mm 0,0 UV-I 0 W/m² 10,0 °C 13,4 °C 8,0 km/h (2 Bft)
12.09.2019 04:11 13,4 °C 80 % 1027,6 hPa 0,0 mm 3,8 km/h (1 Bft) S-SW 200 ° 0 min 0,000 mm 0,0 UV-I 0 W/m² 10,0 °C 13,4 °C 6,4 km/h (2 Bft)
12.09.2019 04:12 13,4 °C 80 % 1027,6 hPa 0,0 mm 3,8 km/h (1 Bft) S-SW 199 ° 0 min 0,000 mm 0,0 UV-I 0 W/m² 10,0 °C 13,4 °C 6,4 km/h (2 Bft)
12.09.2019 04:13 13,4 °C 81 % 1027,6 hPa 0,0 mm 2,5 km/h (1 Bft) S-SW 199 ° 0 min 0,000 mm 0,0 UV-I 0 W/m² 10,2 °C 13,4 °C 4,8 km/h (1 Bft)
12.09.2019 04:14 13,4 °C 81 % 1027,6 hPa 0,0 mm 4,1 km/h (1 Bft) S-SW 199 ° 0 min 0,000 mm 0,0 UV-I 0 W/m² 10,2 °C 13,4 °C 6,4 km/h (2 Bft)
12.09.2019 04:15 13,3 °C 81 % 1027,6 hPa 0,0 mm 3,5 km/h (1 Bft) S-SW 212 ° 0 min 0,000 mm 0,0 UV-I 0 W/m² 10,1 °C 13,3 °C 6,4 km/h (2 Bft)
12.09.2019 04:16 13,3 °C 82 % 1027,6 hPa 0,0 mm 0,3 km/h (0 Bft) S-SW 212 ° 0 min 0,000 mm 0,0 UV-I 0 W/m² 10,3 °C 13,3 °C 1,6 km/h (1 Bft)
12.09.2019 04:17 13,2 °C 83 % 1027,6 hPa 0,0 mm 1,2 km/h (1 Bft) S-SW 212 ° 0 min 0,000 mm 0,0 UV-I 0 W/m² 10,4 °C 13,2 °C 3,2 km/h (1 Bft)
12.09.2019 04:18 13,1 °C 82 % 1027,6 hPa 0,0 mm 3,9 km/h (1 Bft) S-SW 196 ° 0 min 0,000 mm 0,0 UV-I 0 W/m² 10,1 °C 13,1 °C 4,8 km/h (1 Bft)
12.09.2019 04:19 13,1 °C 83 % 1027,6 hPa 0,0 mm 4,7 km/h (1 Bft) S-SW 202 ° 0 min 0,000 mm 0,0 UV-I 0 W/m² 10,3 °C 13,1 °C 6,4 km/h (2 Bft)
12.09.2019 04:20 13,1 °C 82 % 1027,6 hPa 0,0 mm 4,8 km/h (1 Bft) S 188 ° 0 min 0,000 mm 0,0 UV-I 0 W/m² 10,1 °C 13,1 °C 8,0 km/h (2 Bft)
12.09.2019 04:21 13,1 °C 82 % 1027,6 hPa 0,0 mm 3,1 km/h (1 Bft) S 190 ° 0 min 0,000 mm 0,0 UV-I 0 W/m² 10,1 °C 13,1 °C 6,4 km/h (2 Bft)
12.09.2019 04:22 13,0 °C 83 % 1027,6 hPa 0,0 mm 3,4 km/h (1 Bft) S-SW 193 ° 0 min 0,000 mm 0,0 UV-I 0 W/m² 10,2 °C 13,0 °C 4,8 km/h (1 Bft)
12.09.2019 04:23 12,9 °C 84 % 1027,5 hPa 0,0 mm 2,2 km/h (1 Bft) S-SW 193 ° 0 min 0,000 mm 0,0 UV-I 0 W/m² 10,3 °C 12,9 °C 4,8 km/h (1 Bft)
12.09.2019 04:24 12,9 °C 84 % 1027,5 hPa 0,0 mm 1,3 km/h (1 Bft) S-SW 193 ° 0 min 0,000 mm 0,0 UV-I 0 W/m² 10,3 °C 12,9 °C 3,2 km/h (1 Bft)
12.09.2019 04:25 12,8 °C 85 % 1027,5 hPa 0,0 mm 0,0 km/h (0 Bft) S-SW 193 ° 0 min 0,000 mm 0,0 UV-I 0 W/m² 10,3 °C 12,8 °C 0,0 km/h (0 Bft)
12.09.2019 04:26 12,7 °C 85 % 1027,5 hPa 0,0 mm 2,5 km/h (1 Bft) S 188 ° 0 min 0,000 mm 0,0 UV-I 0 W/m² 10,2 °C 12,7 °C 4,8 km/h (1 Bft)
12.09.2019 04:27 12,7 °C 84 % 1027,5 hPa 0,0 mm 2,1 km/h (1 Bft) S 187 ° 0 min 0,000 mm 0,0 UV-I 0 W/m² 10,1 °C 12,7 °C 3,2 km/h (1 Bft)
12.09.2019 04:28 12,7 °C 85 % 1027,5 hPa 0,0 mm 0,7 km/h (0 Bft) S 187 ° 0 min 0,000 mm 0,0 UV-I 0 W/m² 10,2 °C 12,7 °C 3,2 km/h (1 Bft)
12.09.2019 04:29 12,6 °C 85 % 1027,5 hPa 0,0 mm 1,2 km/h (1 Bft) S 188 ° 0 min 0,000 mm 0,0 UV-I 0 W/m² 10,1 °C 12,6 °C 3,2 km/h (1 Bft)
12.09.2019 04:30 12,6 °C 86 % 1027,5 hPa 0,0 mm 1,9 km/h (1 Bft) S 188 ° 0 min 0,000 mm 0,0 UV-I 0 W/m² 10,3 °C 12,6 °C 3,2 km/h (1 Bft)
12.09.2019 04:31 12,5 °C 86 % 1027,5 hPa 0,0 mm 1,5 km/h (1 Bft) S 188 ° 0 min 0,000 mm 0,0 UV-I 0 W/m² 10,2 °C 12,5 °C 3,2 km/h (1 Bft)
12.09.2019 04:32 12,5 °C 86 % 1027,5 hPa 0,0 mm 1,2 km/h (1 Bft) S 188 ° 0 min 0,000 mm 0,0 UV-I 0 W/m² 10,2 °C 12,5 °C 1,6 km/h (1 Bft)
12.09.2019 04:33 12,4 °C 86 % 1027,5 hPa 0,0 mm 0,7 km/h (0 Bft) S 188 ° 0 min 0,000 mm 0,0 UV-I 0 W/m² 10,1 °C 12,4 °C 3,2 km/h (1 Bft)
12.09.2019 04:34 12,4 °C 86 % 1027,6 hPa 0,0 mm 0,9 km/h (0 Bft) S 188 ° 0 min 0,000 mm 0,0 UV-I 0 W/m² 10,1 °C 12,4 °C 1,6 km/h (1 Bft)
12.09.2019 04:35 12,4 °C 87 % 1027,6 hPa 0,2 mm 0,5 km/h (0 Bft) S 188 ° 0 min 0,000 mm 0,0 UV-I 0 W/m² 10,3 °C 12,4 °C 3,2 km/h (1 Bft)
12.09.2019 04:36 12,3 °C 87 % 1027,5 hPa 0,0 mm 0,0 km/h (0 Bft) S 188 ° 0 min 0,000 mm 0,0 UV-I 0 W/m² 10,2 °C 12,3 °C 0,0 km/h (0 Bft)
12.09.2019 04:37 12,3 °C 87 % 1027,5 hPa 0,0 mm 0,1 km/h (0 Bft) S 188 ° 0 min 0,000 mm 0,0 UV-I 0 W/m² 10,2 °C 12,3 °C 1,6 km/h (1 Bft)
12.09.2019 04:38 12,2 °C 87 % 1027,6 hPa 0,0 mm 0,5 km/h (0 Bft) S 188 ° 0 min 0,000 mm 0,0 UV-I 0 W/m² 10,1 °C 12,2 °C 3,2 km/h (1 Bft)
12.09.2019 04:39 12,2 °C 87 % 1027,6 hPa 0,0 mm 0,0 km/h (0 Bft) S 188 ° 0 min 0,000 mm 0,0 UV-I 0 W/m² 10,1 °C 12,2 °C 0,0 km/h (0 Bft)
12.09.2019 04:40 12,2 °C 87 % 1027,6 hPa 0,0 mm 0,0 km/h (0 Bft) S 188 ° 0 min 0,000 mm 0,0 UV-I 0 W/m² 10,1 °C 12,2 °C 0,0 km/h (0 Bft)
12.09.2019 04:41 12,2 °C 87 % 1027,6 hPa 0,0 mm 0,0 km/h (0 Bft) S 188 ° 0 min 0,000 mm 0,0 UV-I 0 W/m² 10,1 °C 12,2 °C 0,0 km/h (0 Bft)
12.09.2019 04:42 12,2 °C 87 % 1027,6 hPa 0,0 mm 2,0 km/h (1 Bft) S-SW 213 ° 0 min 0,000 mm 0,0 UV-I 0 W/m² 10,1 °C 12,2 °C 4,8 km/h (1 Bft)
12.09.2019 04:43 12,2 °C 87 % 1027,5 hPa 0,0 mm 1,5 km/h (1 Bft) S-SW 212 ° 0 min 0,000 mm 0,0 UV-I 0 W/m² 10,1 °C 12,2 °C 3,2 km/h (1 Bft)
12.09.2019 04:44 12,2 °C 87 % 1027,5 hPa 0,0 mm 2,5 km/h (1 Bft) SW 233 ° 0 min 0,000 mm 0,0 UV-I 0 W/m² 10,1 °C 12,2 °C 3,2 km/h (1 Bft)
12.09.2019 04:45 12,2 °C 87 % 1027,6 hPa 0,0 mm 2,4 km/h (1 Bft) SW 233 ° 0 min 0,000 mm 0,0 UV-I 0 W/m² 10,1 °C 12,2 °C 4,8 km/h (1 Bft)
12.09.2019 04:46 12,2 °C 88 % 1027,5 hPa 0,0 mm 0,0 km/h (0 Bft) SW 233 ° 0 min 0,000 mm 0,0 UV-I 0 W/m² 10,3 °C 12,2 °C 0,0 km/h (0 Bft)
12.09.2019 04:47 12,1 °C 88 % 1027,5 hPa 0,0 mm 0,0 km/h (0 Bft) SW 233 ° 0 min 0,000 mm 0,0 UV-I 0 W/m² 10,2 °C 12,1 °C 0,0 km/h (0 Bft)
12.09.2019 04:48 12,1 °C 88 % 1027,5 hPa 0,0 mm 0,0 km/h (0 Bft) SW 233 ° 0 min 0,000 mm 0,0 UV-I 0 W/m² 10,2 °C 12,1 °C 0,0 km/h (0 Bft)
12.09.2019 04:49 12,1 °C 88 % 1027,5 hPa 0,0 mm 0,0 km/h (0 Bft) SW 233 ° 0 min 0,000 mm 0,0 UV-I 0 W/m² 10,2 °C 12,1 °C 0,0 km/h (0 Bft)
12.09.2019 04:50 12,1 °C 88 % 1027,5 hPa 0,0 mm 0,0 km/h (0 Bft) SW 233 ° 0 min 0,000 mm 0,0 UV-I 0 W/m² 10,2 °C 12,1 °C 0,0 km/h (0 Bft)
12.09.2019 04:51 12,1 °C 88 % 1027,5 hPa 0,0 mm 0,0 km/h (0 Bft) SW 233 ° 0 min 0,000 mm 0,0 UV-I 0 W/m² 10,2 °C 12,1 °C 0,0 km/h (0 Bft)
12.09.2019 04:52 12,0 °C 88 % 1027,5 hPa 0,0 mm 0,8 km/h (0 Bft) SW 233 ° 0 min 0,000 mm 0,0 UV-I 0 W/m² 10,1 °C 12,0 °C 3,2 km/h (1 Bft)
12.09.2019 04:53 12,0 °C 88 % 1027,5 hPa 0,0 mm 0,8 km/h (0 Bft) SW 234 ° 0 min 0,000 mm 0,0 UV-I 0 W/m² 10,1 °C 12,0 °C 3,2 km/h (1 Bft)
12.09.2019 04:54 12,1 °C 88 % 1027,5 hPa 0,0 mm 3,1 km/h (1 Bft) SW 233 ° 0 min 0,000 mm 0,0 UV-I 0 W/m² 10,2 °C 12,1 °C 4,8 km/h (1 Bft)
12.09.2019 04:55 12,1 °C 87 % 1027,5 hPa 0,0 mm 2,0 km/h (1 Bft) SW 233 ° 0 min 0,000 mm 0,0 UV-I 0 W/m² 10,0 °C 12,1 °C 3,2 km/h (1 Bft)
12.09.2019 04:56 12,1 °C 87 % 1027,5 hPa 0,0 mm 2,3 km/h (1 Bft) SW 216 ° 0 min 0,000 mm 0,0 UV-I 0 W/m² 10,0 °C 12,1 °C 4,8 km/h (1 Bft)
12.09.2019 04:57 12,1 °C 87 % 1027,5 hPa 0,0 mm 2,4 km/h (1 Bft) S-SW 197 ° 0 min 0,000 mm 0,0 UV-I 0 W/m² 10,0 °C 12,1 °C 4,8 km/h (1 Bft)
12.09.2019 04:58 12,1 °C 87 % 1027,5 hPa 0,0 mm 1,2 km/h (1 Bft) S-SW 197 ° 0 min 0,000 mm 0,0 UV-I 0 W/m² 10,0 °C 12,1 °C 3,2 km/h (1 Bft)
12.09.2019 04:59 12,1 °C 87 % 1027,5 hPa 0,0 mm 1,7 km/h (1 Bft) S-SW 197 ° 0 min 0,000 mm 0,0 UV-I 0 W/m² 10,0 °C 12,1 °C 3,2 km/h (1 Bft)
12.09.2019 05:00 12,1 °C 87 % 1027,5 hPa 0,0 mm 1,3 km/h (1 Bft) S-SW 197 ° 0 min 0,000 mm 0,0 UV-I 0 W/m² 10,0 °C 12,1 °C 3,2 km/h (1 Bft)
12.09.2019 05:01 12,1 °C 88 % 1027,5 hPa 0,0 mm 1,8 km/h (1 Bft) S-SW 197 ° 0 min 0,025 mm 0,0 UV-I 0 W/m² 10,2 °C 12,1 °C 3,2 km/h (1 Bft)
12.09.2019 05:02 12,1 °C 88 % 1027,6 hPa 0,0 mm 1,9 km/h (1 Bft) S-SW 197 ° 0 min 0,000 mm 0,0 UV-I 0 W/m² 10,2 °C 12,1 °C 3,2 km/h (1 Bft)
12.09.2019 05:03 12,1 °C 88 % 1027,6 hPa 0,0 mm 1,1 km/h (1 Bft) S-SW 199 ° 0 min 0,000 mm 0,0 UV-I 0 W/m² 10,2 °C 12,1 °C 4,8 km/h (1 Bft)
12.09.2019 05:04 12,0 °C 87 % 1027,6 hPa 0,0 mm 0,0 km/h (0 Bft) S-SW 199 ° 0 min 0,000 mm 0,0 UV-I 0 W/m² 9,9 °C 12,0 °C 0,0 km/h (0 Bft)
12.09.2019 05:05 12,0 °C 87 % 1027,6 hPa 0,0 mm 0,0 km/h (0 Bft) S-SW 199 ° 0 min 0,000 mm 0,0 UV-I 0 W/m² 9,9 °C 12,0 °C 0,0 km/h (0 Bft)
12.09.2019 05:06 12,0 °C 88 % 1027,6 hPa 0,0 mm 0,0 km/h (0 Bft) S-SW 199 ° 0 min 0,000 mm 0,0 UV-I 0 W/m² 10,1 °C 12,0 °C 0,0 km/h (0 Bft)
12.09.2019 05:07 12,0 °C 87 % 1027,6 hPa 0,0 mm 0,0 km/h (0 Bft) S-SW 199 ° 0 min 0,000 mm 0,0 UV-I 0 W/m² 9,9 °C 12,0 °C 0,0 km/h (0 Bft)
12.09.2019 05:08 12,1 °C 87 % 1027,5 hPa 0,0 mm 0,0 km/h (0 Bft) S-SW 199 ° 0 min 0,000 mm 0,0 UV-I 0 W/m² 10,0 °C 12,1 °C 0,0 km/h (0 Bft)
12.09.2019 05:09 12,1 °C 87 % 1027,5 hPa 0,0 mm 0,0 km/h (0 Bft) S-SW 199 ° 0 min 0,000 mm 0,0 UV-I 0 W/m² 10,0 °C 12,1 °C 0,0 km/h (0 Bft)
12.09.2019 05:10 12,1 °C 88 % 1027,5 hPa 0,0 mm 0,0 km/h (0 Bft) S-SW 199 ° 0 min 0,000 mm 0,0 UV-I 0 W/m² 10,2 °C 12,1 °C 0,0 km/h (0 Bft)
12.09.2019 05:11 12,1 °C 88 % 1027,6 hPa 0,0 mm 0,0 km/h (0 Bft) S-SW 199 ° 0 min 0,000 mm 0,0 UV-I 0 W/m² 10,2 °C 12,1 °C 0,0 km/h (0 Bft)
12.09.2019 05:12 12,0 °C 88 % 1027,6 hPa 0,0 mm 0,0 km/h (0 Bft) S-SW 199 ° 0 min 0,000 mm 0,0 UV-I 0 W/m² 10,1 °C 12,0 °C 0,0 km/h (0 Bft)
12.09.2019 05:13 12,0 °C 88 % 1027,5 hPa 0,0 mm 0,0 km/h (0 Bft) S-SW 199 ° 0 min 0,000 mm 0,0 UV-I 0 W/m² 10,1 °C 12,0 °C 0,0 km/h (0 Bft)
12.09.2019 05:14 12,0 °C 87 % 1027,5 hPa 0,0 mm 0,0 km/h (0 Bft) S-SW 199 ° 0 min 0,000 mm 0,0 UV-I 0 W/m² 9,9 °C 12,0 °C 0,0 km/h (0 Bft)
12.09.2019 05:15 12,0 °C 88 % 1027,5 hPa 0,0 mm 0,0 km/h (0 Bft) S-SW 199 ° 0 min 0,000 mm 0,0 UV-I 0 W/m² 10,1 °C 12,0 °C 0,0 km/h (0 Bft)
12.09.2019 05:16 11,9 °C 88 % 1027,5 hPa 0,0 mm 0,0 km/h (0 Bft) S-SW 199 ° 0 min 0,000 mm 0,0 UV-I 0 W/m² 10,0 °C 11,9 °C 0,0 km/h (0 Bft)
12.09.2019 05:17 11,9 °C 88 % 1027,5 hPa 0,0 mm 0,0 km/h (0 Bft) S-SW 199 ° 0 min 0,000 mm 0,0 UV-I 0 W/m² 10,0 °C 11,9 °C 0,0 km/h (0 Bft)
12.09.2019 05:18 11,9 °C 88 % 1027,5 hPa 0,0 mm 0,0 km/h (0 Bft) S-SW 199 ° 0 min 0,000 mm 0,0 UV-I 0 W/m² 10,0 °C 11,9 °C 0,0 km/h (0 Bft)
12.09.2019 05:19 11,9 °C 87 % 1027,5 hPa 0,0 mm 0,0 km/h (0 Bft) S-SW 200 ° 0 min 0,000 mm 0,0 UV-I 0 W/m² 9,8 °C 11,9 °C 0,0 km/h (0 Bft)
12.09.2019 05:20 11,9 °C 88 % 1027,4 hPa 0,0 mm 0,0 km/h (0 Bft) S-SW 200 ° 0 min 0,000 mm 0,0 UV-I 0 W/m² 10,0 °C 11,9 °C 0,0 km/h (0 Bft)
12.09.2019 05:21 11,9 °C 87 % 1027,5 hPa 0,0 mm 0,0 km/h (0 Bft) S-SW 200 ° 0 min 0,000 mm 0,0 UV-I 0 W/m² 9,8 °C 11,9 °C 0,0 km/h (0 Bft)
12.09.2019 05:22 12,0 °C 87 % 1027,5 hPa 0,0 mm 0,0 km/h (0 Bft) S-SW 200 ° 0 min 0,000 mm 0,0 UV-I 0 W/m² 9,9 °C 12,0 °C 0,0 km/h (0 Bft)
12.09.2019 05:23 12,0 °C 87 % 1027,5 hPa 0,0 mm 0,0 km/h (0 Bft) S-SW 200 ° 0 min 0,000 mm 0,0 UV-I 0 W/m² 9,9 °C 12,0 °C 0,0 km/h (0 Bft)
12.09.2019 05:24 12,0 °C 87 % 1027,5 hPa 0,0 mm 0,0 km/h (0 Bft) S-SW 200 ° 0 min 0,000 mm 0,0 UV-I 0 W/m² 9,9 °C 12,0 °C 0,0 km/h (0 Bft)
12.09.2019 05:25 12,1 °C 87 % 1027,6 hPa 0,0 mm 0,0 km/h (0 Bft) S-SW 200 ° 0 min 0,000 mm 0,0 UV-I 0 W/m² 10,0 °C 12,1 °C 0,0 km/h (0 Bft)
12.09.2019 05:26 12,0 °C 87 % 1027,5 hPa 0,0 mm 0,0 km/h (0 Bft) S-SW 200 ° 0 min 0,000 mm 0,0 UV-I 0 W/m² 9,9 °C 12,0 °C 0,0 km/h (0 Bft)
12.09.2019 05:27 12,1 °C 87 % 1027,6 hPa 0,0 mm 0,0 km/h (0 Bft) S-SW 200 ° 0 min 0,000 mm 0,0 UV-I 0 W/m² 10,0 °C 12,1 °C 0,0 km/h (0 Bft)
12.09.2019 05:28 12,1 °C 87 % 1027,6 hPa 0,0 mm 0,0 km/h (0 Bft) S-SW 200 ° 0 min 0,000 mm 0,0 UV-I 0 W/m² 10,0 °C 12,1 °C 0,0 km/h (0 Bft)
12.09.2019 05:29 12,1 °C 87 % 1027,6 hPa 0,0 mm 0,0 km/h (0 Bft) S-SW 200 ° 0 min 0,000 mm 0,0 UV-I 0 W/m² 10,0 °C 12,1 °C 0,0 km/h (0 Bft)
12.09.2019 05:30 12,1 °C 87 % 1027,6 hPa 0,0 mm 0,0 km/h (0 Bft) S-SW 200 ° 0 min 0,000 mm 0,0 UV-I 0 W/m² 10,0 °C 12,1 °C 0,0 km/h (0 Bft)
12.09.2019 05:31 12,1 °C 87 % 1027,6 hPa 0,0 mm 0,0 km/h (0 Bft) S-SW 200 ° 0 min 0,000 mm 0,0 UV-I 0 W/m² 10,0 °C 12,1 °C 0,0 km/h (0 Bft)
12.09.2019 05:32 12,1 °C 87 % 1027,6 hPa 0,0 mm 0,0 km/h (0 Bft) S-SW 200 ° 0 min 0,000 mm 0,0 UV-I 0 W/m² 10,0 °C 12,1 °C 0,0 km/h (0 Bft)
12.09.2019 05:33 12,1 °C 88 % 1027,6 hPa 0,0 mm 0,0 km/h (0 Bft) S-SW 200 ° 0 min 0,000 mm 0,0 UV-I 0 W/m² 10,2 °C 12,1 °C 0,0 km/h (0 Bft)
12.09.2019 05:34 12,0 °C 88 % 1027,6 hPa 0,0 mm 0,0 km/h (0 Bft) S-SW 200 ° 0 min 0,000 mm 0,0 UV-I 0 W/m² 10,1 °C 12,0 °C 0,0 km/h (0 Bft)
12.09.2019 05:35 11,9 °C 88 % 1027,6 hPa 0,0 mm 0,0 km/h (0 Bft) S-SW 200 ° 0 min 0,000 mm 0,0 UV-I 0 W/m² 10,0 °C 11,9 °C 0,0 km/h (0 Bft)
12.09.2019 05:36 11,9 °C 89 % 1027,6 hPa 0,0 mm 0,0 km/h (0 Bft) S-SW 200 ° 0 min 0,000 mm 0,0 UV-I 0 W/m² 10,1 °C 11,9 °C 0,0 km/h (0 Bft)
12.09.2019 05:37 11,9 °C 89 % 1027,6 hPa 0,0 mm 0,0 km/h (0 Bft) S-SW 200 ° 0 min 0,000 mm 0,0 UV-I 0 W/m² 10,1 °C 11,9 °C 0,0 km/h (0 Bft)
12.09.2019 05:38 11,9 °C 89 % 1027,6 hPa 0,0 mm 0,0 km/h (0 Bft) S-SW 200 ° 0 min 0,000 mm 0,0 UV-I 0 W/m² 10,1 °C 11,9 °C 0,0 km/h (0 Bft)
12.09.2019 05:39 11,9 °C 89 % 1027,6 hPa 0,0 mm 0,0 km/h (0 Bft) S-SW 200 ° 0 min 0,000 mm 0,0 UV-I 0 W/m² 10,1 °C 11,9 °C 0,0 km/h (0 Bft)
12.09.2019 05:40 11,9 °C 90 % 1027,6 hPa 0,0 mm 0,0 km/h (0 Bft) S-SW 200 ° 0 min 0,000 mm 0,0 UV-I 0 W/m² 10,3 °C 11,9 °C 0,0 km/h (0 Bft)
12.09.2019 05:41 11,9 °C 90 % 1027,6 hPa 0,0 mm 0,0 km/h (0 Bft) S-SW 200 ° 0 min 0,000 mm 0,0 UV-I 0 W/m² 10,3 °C 11,9 °C 0,0 km/h (0 Bft)
12.09.2019 05:42 11,9 °C 90 % 1027,6 hPa 0,0 mm 0,0 km/h (0 Bft) S-SW 200 ° 0 min 0,000 mm 0,0 UV-I 0 W/m² 10,3 °C 11,9 °C 0,0 km/h (0 Bft)
12.09.2019 05:43 11,8 °C 90 % 1027,6 hPa 0,0 mm 0,0 km/h (0 Bft) S-SW 200 ° 0 min 0,000 mm 0,0 UV-I 0 W/m² 10,2 °C 11,8 °C 0,0 km/h (0 Bft)
12.09.2019 05:44 11,8 °C 90 % 1027,6 hPa 0,0 mm 0,0 km/h (0 Bft) S-SW 200 ° 0 min 0,000 mm 0,0 UV-I 0 W/m² 10,2 °C 11,8 °C 0,0 km/h (0 Bft)
12.09.2019 05:45 11,8 °C 90 % 1027,6 hPa 0,0 mm 0,0 km/h (0 Bft) S-SW 200 ° 0 min 0,000 mm 0,0 UV-I 0 W/m² 10,2 °C 11,8 °C 0,0 km/h (0 Bft)
12.09.2019 05:46 11,8 °C 90 % 1027,6 hPa 0,0 mm 0,0 km/h (0 Bft) S-SW 200 ° 0 min 0,000 mm 0,0 UV-I 0 W/m² 10,2 °C 11,8 °C 0,0 km/h (0 Bft)
12.09.2019 05:47 11,8 °C 90 % 1027,6 hPa 0,0 mm 0,0 km/h (0 Bft) S-SW 200 ° 0 min 0,000 mm 0,0 UV-I 0 W/m² 10,2 °C 11,8 °C 0,0 km/h (0 Bft)
12.09.2019 05:48 11,8 °C 90 % 1027,6 hPa 0,0 mm 0,0 km/h (0 Bft) S-SW 200 ° 0 min 0,000 mm 0,0 UV-I 0 W/m² 10,2 °C 11,8 °C 0,0 km/h (0 Bft)
12.09.2019 05:49 11,8 °C 90 % 1027,6 hPa 0,0 mm 0,0 km/h (0 Bft) S-SW 200 ° 0 min 0,000 mm 0,0 UV-I 0 W/m² 10,2 °C 11,8 °C 0,0 km/h (0 Bft)
12.09.2019 05:50 11,8 °C 90 % 1027,6 hPa 0,0 mm 0,0 km/h (0 Bft) S-SW 200 ° 0 min 0,000 mm 0,0 UV-I 0 W/m² 10,2 °C 11,8 °C 0,0 km/h (0 Bft)
12.09.2019 05:51 11,8 °C 90 % 1027,6 hPa 0,0 mm 0,0 km/h (0 Bft) S-SW 200 ° 0 min 0,000 mm 0,0 UV-I 0 W/m² 10,2 °C 11,8 °C 0,0 km/h (0 Bft)
12.09.2019 05:52 11,8 °C 90 % 1027,6 hPa 0,0 mm 0,0 km/h (0 Bft) S-SW 200 ° 0 min 0,000 mm 0,0 UV-I 0 W/m² 10,2 °C 11,8 °C 0,0 km/h (0 Bft)
12.09.2019 05:53 11,8 °C 90 % 1027,6 hPa 0,0 mm 0,0 km/h (0 Bft) S-SW 200 ° 0 min 0,000 mm 0,0 UV-I 0 W/m² 10,2 °C 11,8 °C 0,0 km/h (0 Bft)
12.09.2019 05:54 11,8 °C 90 % 1027,7 hPa 0,0 mm 0,0 km/h (0 Bft) S-SW 200 ° 0 min 0,000 mm 0,0 UV-I 0 W/m² 10,2 °C 11,8 °C 0,0 km/h (0 Bft)
12.09.2019 05:55 11,7 °C 91 % 1027,7 hPa 0,0 mm 0,0 km/h (0 Bft) S-SW 200 ° 0 min 0,000 mm 0,0 UV-I 0 W/m² 10,3 °C 11,7 °C 0,0 km/h (0 Bft)
12.09.2019 05:56 11,7 °C 91 % 1027,7 hPa 0,0 mm 0,0 km/h (0 Bft) S-SW 200 ° 0 min 0,000 mm 0,0 UV-I 0 W/m² 10,3 °C 11,7 °C 0,0 km/h (0 Bft)
12.09.2019 05:57 11,7 °C 91 % 1027,7 hPa 0,0 mm 0,0 km/h (0 Bft) S-SW 200 ° 0 min 0,000 mm 0,0 UV-I 0 W/m² 10,3 °C 11,7 °C 0,0 km/h (0 Bft)
12.09.2019 05:58 11,7 °C 91 % 1027,7 hPa 0,0 mm 0,0 km/h (0 Bft) S-SW 200 ° 0 min 0,000 mm 0,0 UV-I 0 W/m² 10,3 °C 11,7 °C 0,0 km/h (0 Bft)
12.09.2019 05:59 11,7 °C 91 % 1027,7 hPa 0,0 mm 0,0 km/h (0 Bft) S-SW 200 ° 0 min 0,000 mm 0,0 UV-I 0 W/m² 10,3 °C 11,7 °C 0,0 km/h (0 Bft)
12.09.2019 06:00 11,7 °C 91 % 1027,7 hPa 0,0 mm 0,0 km/h (0 Bft) S-SW 200 ° 0 min 0,000 mm 0,0 UV-I 0 W/m² 10,3 °C 11,7 °C 0,0 km/h (0 Bft)
12.09.2019 06:01 11,7 °C 91 % 1027,7 hPa 0,0 mm 0,0 km/h (0 Bft) S-SW 200 ° 0 min 0,000 mm 0,0 UV-I 0 W/m² 10,3 °C 11,7 °C 0,0 km/h (0 Bft)
12.09.2019 06:02 11,7 °C 91 % 1027,7 hPa 0,0 mm 0,0 km/h (0 Bft) S-SW 200 ° 0 min 0,000 mm 0,0 UV-I 0 W/m² 10,3 °C 11,7 °C 0,0 km/h (0 Bft)
12.09.2019 06:03 11,7 °C 91 % 1027,7 hPa 0,0 mm 0,0 km/h (0 Bft) S-SW 200 ° 0 min 0,000 mm 0,0 UV-I 0 W/m² 10,3 °C 11,7 °C 0,0 km/h (0 Bft)
12.09.2019 06:04 11,7 °C 91 % 1027,7 hPa 0,0 mm 0,0 km/h (0 Bft) S-SW 200 ° 0 min 0,000 mm 0,0 UV-I 0 W/m² 10,3 °C 11,7 °C 0,0 km/h (0 Bft)
12.09.2019 06:05 11,8 °C 91 % 1027,7 hPa 0,0 mm 0,0 km/h (0 Bft) S-SW 198 ° 0 min 0,000 mm 0,0 UV-I 0 W/m² 10,4 °C 11,8 °C 0,0 km/h (0 Bft)
12.09.2019 06:06 11,7 °C 91 % 1027,7 hPa 0,0 mm 0,0 km/h (0 Bft) S-SW 198 ° 0 min 0,000 mm 0,0 UV-I 0 W/m² 10,3 °C 11,7 °C 0,0 km/h (0 Bft)
12.09.2019 06:07 11,7 °C 91 % 1027,6 hPa 0,0 mm 0,0 km/h (0 Bft) S-SW 198 ° 0 min 0,000 mm 0,0 UV-I 0 W/m² 10,3 °C 11,7 °C 0,0 km/h (0 Bft)
12.09.2019 06:08 11,8 °C 91 % 1027,7 hPa 0,0 mm 0,0 km/h (0 Bft) S-SW 198 ° 0 min 0,000 mm 0,0 UV-I 0 W/m² 10,4 °C 11,8 °C 0,0 km/h (0 Bft)
12.09.2019 06:09 11,8 °C 91 % 1027,7 hPa 0,0 mm 0,0 km/h (0 Bft) S-SW 199 ° 0 min 0,000 mm 0,0 UV-I 0 W/m² 10,4 °C 11,8 °C 0,0 km/h (0 Bft)
12.09.2019 06:10 11,7 °C 91 % 1027,7 hPa 0,0 mm 0,0 km/h (0 Bft) S-SW 199 ° 0 min 0,000 mm 0,0 UV-I 0 W/m² 10,3 °C 11,7 °C 0,0 km/h (0 Bft)
12.09.2019 06:11 11,7 °C 91 % 1027,8 hPa 0,0 mm 0,0 km/h (0 Bft) S-SW 199 ° 0 min 0,000 mm 0,0 UV-I 0 W/m² 10,3 °C 11,7 °C 0,0 km/h (0 Bft)
12.09.2019 06:12 11,7 °C 91 % 1027,8 hPa 0,0 mm 0,0 km/h (0 Bft) S-SW 200 ° 0 min 0,000 mm 0,0 UV-I 0 W/m² 10,3 °C 11,7 °C 0,0 km/h (0 Bft)
12.09.2019 06:13 11,7 °C 91 % 1027,8 hPa 0,0 mm 0,0 km/h (0 Bft) S-SW 200 ° 0 min 0,000 mm 0,0 UV-I 0 W/m² 10,3 °C 11,7 °C 0,0 km/h (0 Bft)
12.09.2019 06:14 11,7 °C 91 % 1027,8 hPa 0,0 mm 0,0 km/h (0 Bft) S-SW 200 ° 0 min 0,000 mm 0,0 UV-I 0 W/m² 10,3 °C 11,7 °C 0,0 km/h (0 Bft)
12.09.2019 06:15 11,7 °C 91 % 1027,7 hPa 0,0 mm 0,0 km/h (0 Bft) S-SW 200 ° 0 min 0,000 mm 0,0 UV-I 0 W/m² 10,3 °C 11,7 °C 0,0 km/h (0 Bft)
12.09.2019 06:16 11,7 °C 90 % 1027,8 hPa 0,0 mm 0,0 km/h (0 Bft) S-SW 200 ° 0 min 0,000 mm 0,0 UV-I 0 W/m² 10,1 °C 11,7 °C 0,0 km/h (0 Bft)
12.09.2019 06:17 11,7 °C 90 % 1027,8 hPa 0,0 mm 0,0 km/h (0 Bft) S-SW 200 ° 0 min 0,000 mm 0,0 UV-I 0 W/m² 10,1 °C 11,7 °C 0,0 km/h (0 Bft)
12.09.2019 06:18 11,7 °C 90 % 1027,8 hPa 0,0 mm 0,0 km/h (0 Bft) S-SW 200 ° 0 min 0,000 mm 0,0 UV-I 0 W/m² 10,1 °C 11,7 °C 0,0 km/h (0 Bft)
12.09.2019 06:19 11,7 °C 90 % 1027,8 hPa 0,0 mm 0,0 km/h (0 Bft) S-SW 200 ° 0 min 0,000 mm 0,0 UV-I 0 W/m² 10,1 °C 11,7 °C 0,0 km/h (0 Bft)
12.09.2019 06:20 11,7 °C 90 % 1027,8 hPa 0,0 mm 0,0 km/h (0 Bft) S-SW 200 ° 0 min 0,000 mm 0,0 UV-I 0 W/m² 10,1 °C 11,7 °C 0,0 km/h (0 Bft)
12.09.2019 06:21 11,7 °C 90 % 1027,9 hPa 0,0 mm 0,0 km/h (0 Bft) S-SW 200 ° 0 min 0,000 mm 0,0 UV-I 0 W/m² 10,1 °C 11,7 °C 0,0 km/h (0 Bft)
12.09.2019 06:22 11,7 °C 90 % 1027,9 hPa 0,0 mm 0,0 km/h (0 Bft) S-SW 200 ° 0 min 0,000 mm 0,0 UV-I 0 W/m² 10,1 °C 11,7 °C 0,0 km/h (0 Bft)
12.09.2019 06:23 11,7 °C 91 % 1027,9 hPa 0,0 mm 0,0 km/h (0 Bft) S-SW 200 ° 0 min 0,000 mm 0,0 UV-I 0 W/m² 10,3 °C 11,7 °C 0,0 km/h (0 Bft)
12.09.2019 06:24 11,7 °C 91 % 1027,9 hPa 0,0 mm 0,0 km/h (0 Bft) S-SW 200 ° 0 min 0,000 mm 0,0 UV-I 0 W/m² 10,3 °C 11,7 °C 0,0 km/h (0 Bft)
12.09.2019 06:25 11,7 °C 91 % 1027,9 hPa 0,0 mm 0,0 km/h (0 Bft) S-SW 200 ° 0 min 0,000 mm 0,0 UV-I 0 W/m² 10,3 °C 11,7 °C 0,0 km/h (0 Bft)
12.09.2019 06:26 11,6 °C 91 % 1027,9 hPa 0,0 mm 0,0 km/h (0 Bft) S-SW 200 ° 0 min 0,000 mm 0,0 UV-I 0 W/m² 10,2 °C 11,6 °C 0,0 km/h (0 Bft)
12.09.2019 06:27 11,6 °C 91 % 1028,0 hPa 0,0 mm 0,0 km/h (0 Bft) S-SW 200 ° 0 min 0,000 mm 0,0 UV-I 0 W/m² 10,2 °C 11,6 °C 0,0 km/h (0 Bft)
12.09.2019 06:28 11,6 °C 91 % 1028,0 hPa 0,0 mm 0,0 km/h (0 Bft) S-SW 200 ° 0 min 0,000 mm 0,0 UV-I 0 W/m² 10,2 °C 11,6 °C 0,0 km/h (0 Bft)
12.09.2019 06:29 11,6 °C 91 % 1028,0 hPa 0,0 mm 0,0 km/h (0 Bft) S-SW 200 ° 0 min 0,000 mm 0,0 UV-I 0 W/m² 10,2 °C 11,6 °C 0,0 km/h (0 Bft)
12.09.2019 06:30 11,6 °C 91 % 1028,0 hPa 0,0 mm 0,0 km/h (0 Bft) S-SW 200 ° 0 min 0,000 mm 0,0 UV-I 0 W/m² 10,2 °C 11,6 °C 0,0 km/h (0 Bft)
12.09.2019 06:31 11,6 °C 91 % 1028,0 hPa 0,0 mm 0,0 km/h (0 Bft) S-SW 200 ° 0 min 0,000 mm 0,0 UV-I 0 W/m² 10,2 °C 11,6 °C 0,0 km/h (0 Bft)
12.09.2019 06:32 11,6 °C 91 % 1028,0 hPa 0,0 mm 0,0 km/h (0 Bft) S-SW 200 ° 0 min 0,000 mm 0,0 UV-I 0 W/m² 10,2 °C 11,6 °C 0,0 km/h (0 Bft)
12.09.2019 06:33 11,7 °C 91 % 1028,0 hPa 0,0 mm 0,0 km/h (0 Bft) S-SW 200 ° 0 min 0,000 mm 0,0 UV-I 0 W/m² 10,3 °C 11,7 °C 0,0 km/h (0 Bft)
12.09.2019 06:34 11,7 °C 91 % 1028,0 hPa 0,0 mm 0,0 km/h (0 Bft) S-SW 200 ° 0 min 0,000 mm 0,0 UV-I 0 W/m² 10,3 °C 11,7 °C 0,0 km/h (0 Bft)
12.09.2019 06:35 11,7 °C 91 % 1028,0 hPa 0,0 mm 0,0 km/h (0 Bft) S-SW 200 ° 0 min 0,000 mm 0,0 UV-I 0 W/m² 10,3 °C 11,7 °C 0,0 km/h (0 Bft)
12.09.2019 06:36 11,7 °C 91 % 1028,0 hPa 0,0 mm 0,0 km/h (0 Bft) S-SW 200 ° 0 min 0,000 mm 0,0 UV-I 0 W/m² 10,3 °C 11,7 °C 0,0 km/h (0 Bft)
12.09.2019 06:37 11,7 °C 91 % 1028,0 hPa 0,0 mm 0,0 km/h (0 Bft) S-SW 200 ° 0 min 0,000 mm 0,0 UV-I 0 W/m² 10,3 °C 11,7 °C 0,0 km/h (0 Bft)
12.09.2019 06:38 11,7 °C 91 % 1028,1 hPa 0,0 mm 0,0 km/h (0 Bft) S-SW 200 ° 0 min 0,000 mm 0,0 UV-I 0 W/m² 10,3 °C 11,7 °C 0,0 km/h (0 Bft)
12.09.2019 06:39 11,7 °C 91 % 1028,0 hPa 0,0 mm 0,0 km/h (0 Bft) S-SW 200 ° 0 min 0,000 mm 0,0 UV-I 0 W/m² 10,3 °C 11,7 °C 0,0 km/h (0 Bft)
12.09.2019 06:40 11,7 °C 91 % 1028,1 hPa 0,0 mm 0,0 km/h (0 Bft) S-SW 200 ° 0 min 0,000 mm 0,0 UV-I 0 W/m² 10,3 °C 11,7 °C 0,0 km/h (0 Bft)
12.09.2019 06:41 11,6 °C 91 % 1028,1 hPa 0,0 mm 0,0 km/h (0 Bft) S-SW 200 ° 0 min 0,000 mm 0,0 UV-I 0 W/m² 10,2 °C 11,6 °C 0,0 km/h (0 Bft)
12.09.2019 06:42 11,6 °C 91 % 1028,1 hPa 0,0 mm 0,0 km/h (0 Bft) S-SW 200 ° 0 min 0,000 mm 0,0 UV-I 0 W/m² 10,2 °C 11,6 °C 0,0 km/h (0 Bft)
12.09.2019 06:43 11,6 °C 91 % 1028,1 hPa 0,0 mm 0,0 km/h (0 Bft) S-SW 200 ° 0 min 0,000 mm 0,0 UV-I 0 W/m² 10,2 °C 11,6 °C 0,0 km/h (0 Bft)
12.09.2019 06:44 11,6 °C 91 % 1028,1 hPa 0,0 mm 0,0 km/h (0 Bft) S-SW 200 ° 0 min 0,000 mm 0,0 UV-I 0 W/m² 10,2 °C 11,6 °C 0,0 km/h (0 Bft)
12.09.2019 06:45 11,6 °C 91 % 1028,2 hPa 0,0 mm 0,0 km/h (0 Bft) S-SW 200 ° 0 min 0,000 mm 0,0 UV-I 0 W/m² 10,2 °C 11,6 °C 0,0 km/h (0 Bft)
12.09.2019 06:46 11,6 °C 91 % 1028,2 hPa 0,0 mm 0,0 km/h (0 Bft) S-SW 200 ° 0 min 0,000 mm 0,0 UV-I 0 W/m² 10,2 °C 11,6 °C 0,0 km/h (0 Bft)
12.09.2019 06:47 11,6 °C 91 % 1028,2 hPa 0,0 mm 0,0 km/h (0 Bft) S-SW 200 ° 0 min 0,000 mm 0,0 UV-I 0 W/m² 10,2 °C 11,6 °C 0,0 km/h (0 Bft)
12.09.2019 06:48 11,6 °C 91 % 1028,2 hPa 0,0 mm 0,0 km/h (0 Bft) S-SW 200 ° 0 min 0,000 mm 0,0 UV-I 0 W/m² 10,2 °C 11,6 °C 0,0 km/h (0 Bft)
12.09.2019 06:49 11,6 °C 91 % 1028,2 hPa 0,0 mm 0,0 km/h (0 Bft) S-SW 200 ° 0 min 0,000 mm 0,0 UV-I 0 W/m² 10,2 °C 11,6 °C 0,0 km/h (0 Bft)
12.09.2019 06:50 11,6 °C 91 % 1028,3 hPa 0,0 mm 0,0 km/h (0 Bft) S-SW 200 ° 0 min 0,000 mm 0,0 UV-I 0 W/m² 10,2 °C 11,6 °C 0,0 km/h (0 Bft)
12.09.2019 06:51 11,6 °C 91 % 1028,2 hPa 0,0 mm 0,0 km/h (0 Bft) S-SW 200 ° 0 min 0,000 mm 0,0 UV-I 0 W/m² 10,2 °C 11,6 °C 0,0 km/h (0 Bft)
12.09.2019 06:52 11,6 °C 91 % 1028,2 hPa 0,0 mm 0,0 km/h (0 Bft) S-SW 200 ° 0 min 0,000 mm 0,0 UV-I 0 W/m² 10,2 °C 11,6 °C 0,0 km/h (0 Bft)
12.09.2019 06:53 11,7 °C 91 % 1028,1 hPa 0,0 mm 0,0 km/h (0 Bft) S-SW 200 ° 0 min 0,000 mm 0,0 UV-I 0 W/m² 10,3 °C 11,7 °C 0,0 km/h (0 Bft)
12.09.2019 06:54 11,6 °C 91 % 1028,1 hPa 0,0 mm 0,0 km/h (0 Bft) S-SW 200 ° 0 min 0,000 mm 0,0 UV-I 0 W/m² 10,2 °C 11,6 °C 0,0 km/h (0 Bft)
12.09.2019 06:55 11,6 °C 91 % 1028,2 hPa 0,0 mm 0,0 km/h (0 Bft) S-SW 200 ° 0 min 0,000 mm 0,0 UV-I 0 W/m² 10,2 °C 11,6 °C 0,0 km/h (0 Bft)
12.09.2019 06:56 11,6 °C 91 % 1028,1 hPa 0,0 mm 0,0 km/h (0 Bft) S-SW 200 ° 0 min 0,000 mm 0,0 UV-I 0 W/m² 10,2 °C 11,6 °C 0,0 km/h (0 Bft)
12.09.2019 06:57 11,6 °C 91 % 1028,1 hPa 0,0 mm 0,0 km/h (0 Bft) S-SW 200 ° 0 min 0,000 mm 0,0 UV-I 0 W/m² 10,2 °C 11,6 °C 0,0 km/h (0 Bft)
12.09.2019 06:58 11,6 °C 91 % 1028,2 hPa 0,0 mm 0,0 km/h (0 Bft) S-SW 200 ° 0 min 0,000 mm 0,0 UV-I 0 W/m² 10,2 °C 11,6 °C 0,0 km/h (0 Bft)
12.09.2019 06:59 11,6 °C 91 % 1028,1 hPa 0,0 mm 0,0 km/h (0 Bft) S-SW 200 ° 0 min 0,000 mm 0,0 UV-I 0 W/m² 10,2 °C 11,6 °C 0,0 km/h (0 Bft)
12.09.2019 07:00 11,6 °C 91 % 1028,1 hPa 0,0 mm 0,0 km/h (0 Bft) S-SW 200 ° 0 min 0,000 mm 0,0 UV-I 0 W/m² 10,2 °C 11,6 °C 0,0 km/h (0 Bft)
12.09.2019 07:01 11,6 °C 91 % 1028,2 hPa 0,0 mm 0,0 km/h (0 Bft) S-SW 200 ° 0 min 0,000 mm 0,0 UV-I 0 W/m² 10,2 °C 11,6 °C 0,0 km/h (0 Bft)
12.09.2019 07:02 11,6 °C 91 % 1028,2 hPa 0,0 mm 0,0 km/h (0 Bft) S-SW 200 ° 0 min 0,000 mm 0,0 UV-I 5 W/m² 10,2 °C 11,6 °C 0,0 km/h (0 Bft)
12.09.2019 07:03 11,6 °C 91 % 1028,2 hPa 0,0 mm 0,0 km/h (0 Bft) S-SW 200 ° 0 min 0,000 mm 0,0 UV-I 5 W/m² 10,2 °C 11,6 °C 0,0 km/h (0 Bft)
12.09.2019 07:04 11,6 °C 91 % 1028,2 hPa 0,0 mm 0,0 km/h (0 Bft) S-SW 200 ° 0 min 0,000 mm 0,0 UV-I 5 W/m² 10,2 °C 11,6 °C 0,0 km/h (0 Bft)
12.09.2019 07:05 11,6 °C 91 % 1028,2 hPa 0,0 mm 0,0 km/h (0 Bft) S-SW 202 ° 0 min 0,000 mm 0,0 UV-I 5 W/m² 10,2 °C 11,6 °C 0,0 km/h (0 Bft)
12.09.2019 07:06 11,6 °C 91 % 1028,2 hPa 0,0 mm 0,0 km/h (0 Bft) S-SW 202 ° 0 min 0,000 mm 0,0 UV-I 5 W/m² 10,2 °C 11,6 °C 0,0 km/h (0 Bft)
12.09.2019 07:07 11,6 °C 91 % 1028,3 hPa 0,0 mm 0,0 km/h (0 Bft) SW 215 ° 0 min 0,000 mm 0,0 UV-I 5 W/m² 10,2 °C 11,6 °C 0,0 km/h (0 Bft)
12.09.2019 07:08 11,7 °C 91 % 1028,3 hPa 0,0 mm 0,0 km/h (0 Bft) SW 215 ° 0 min 0,000 mm 0,0 UV-I 7 W/m² 10,3 °C 11,7 °C 0,0 km/h (0 Bft)
12.09.2019 07:09 11,7 °C 90 % 1028,3 hPa 0,0 mm 0,0 km/h (0 Bft) SW 215 ° 0 min 0,000 mm 0,0 UV-I 7 W/m² 10,1 °C 11,7 °C 0,0 km/h (0 Bft)
12.09.2019 07:10 11,7 °C 90 % 1028,3 hPa 0,0 mm 0,0 km/h (0 Bft) SW 215 ° 0 min 0,000 mm 0,0 UV-I 7 W/m² 10,1 °C 11,7 °C 0,0 km/h (0 Bft)
12.09.2019 07:11 11,7 °C 90 % 1028,3 hPa 0,0 mm 0,0 km/h (0 Bft) SW 215 ° 0 min 0,000 mm 0,0 UV-I 7 W/m² 10,1 °C 11,7 °C 0,0 km/h (0 Bft)
12.09.2019 07:12 11,7 °C 91 % 1028,3 hPa 0,0 mm 0,0 km/h (0 Bft) SW 215 ° 0 min 0,000 mm 0,0 UV-I 7 W/m² 10,3 °C 11,7 °C 0,0 km/h (0 Bft)
12.09.2019 07:13 11,7 °C 90 % 1028,3 hPa 0,0 mm 0,0 km/h (0 Bft) SW 215 ° 0 min 0,000 mm 0,0 UV-I 9 W/m² 10,1 °C 11,7 °C 0,0 km/h (0 Bft)
12.09.2019 07:14 11,7 °C 90 % 1028,3 hPa 0,0 mm 0,0 km/h (0 Bft) SW 215 ° 0 min 0,000 mm 0,0 UV-I 9 W/m² 10,1 °C 11,7 °C 0,0 km/h (0 Bft)
12.09.2019 07:15 11,7 °C 90 % 1028,3 hPa 0,0 mm 0,0 km/h (0 Bft) SW 215 ° 0 min 0,000 mm 0,0 UV-I 11 W/m² 10,1 °C 11,7 °C 0,0 km/h (0 Bft)
12.09.2019 07:16 11,7 °C 90 % 1028,3 hPa 0,0 mm 0,0 km/h (0 Bft) SW 215 ° 0 min 0,000 mm 0,0 UV-I 11 W/m² 10,1 °C 11,7 °C 0,0 km/h (0 Bft)
12.09.2019 07:17 11,7 °C 91 % 1028,3 hPa 0,0 mm 0,0 km/h (0 Bft) SW 215 ° 0 min 0,000 mm 0,0 UV-I 11 W/m² 10,3 °C 11,7 °C 0,0 km/h (0 Bft)
12.09.2019 07:18 11,7 °C 90 % 1028,3 hPa 0,0 mm 0,0 km/h (0 Bft) SW 215 ° 0 min 0,000 mm 0,0 UV-I 11 W/m² 10,1 °C 11,7 °C 0,0 km/h (0 Bft)
12.09.2019 07:19 11,7 °C 90 % 1028,3 hPa 0,0 mm 0,0 km/h (0 Bft) SW 215 ° 0 min 0,000 mm 0,0 UV-I 12 W/m² 10,1 °C 11,7 °C 0,0 km/h (0 Bft)
12.09.2019 07:20 11,7 °C 90 % 1028,3 hPa 0,0 mm 0,0 km/h (0 Bft) SW 215 ° 0 min 0,000 mm 0,0 UV-I 12 W/m² 10,1 °C 11,7 °C 0,0 km/h (0 Bft)
12.09.2019 07:21 11,8 °C 90 % 1028,4 hPa 0,0 mm 0,0 km/h (0 Bft) SW 215 ° 0 min 0,000 mm 0,0 UV-I 12 W/m² 10,2 °C 11,8 °C 0,0 km/h (0 Bft)
12.09.2019 07:22 11,7 °C 91 % 1028,3 hPa 0,0 mm 0,0 km/h (0 Bft) SW 215 ° 0 min 0,000 mm 0,0 UV-I 14 W/m² 10,3 °C 11,7 °C 0,0 km/h (0 Bft)
12.09.2019 07:23 11,8 °C 91 % 1028,3 hPa 0,0 mm 0,0 km/h (0 Bft) SW 215 ° 0 min 0,000 mm 0,0 UV-I 14 W/m² 10,4 °C 11,8 °C 0,0 km/h (0 Bft)
12.09.2019 07:24 11,8 °C 91 % 1028,3 hPa 0,0 mm 0,0 km/h (0 Bft) SW 215 ° 0 min 0,000 mm 0,0 UV-I 14 W/m² 10,4 °C 11,8 °C 0,0 km/h (0 Bft)
12.09.2019 07:25 11,8 °C 90 % 1028,4 hPa 0,0 mm 0,0 km/h (0 Bft) SW 215 ° 0 min 0,000 mm 0,0 UV-I 14 W/m² 10,2 °C 11,8 °C 0,0 km/h (0 Bft)
12.09.2019 07:26 11,8 °C 90 % 1028,4 hPa 0,0 mm 0,0 km/h (0 Bft) SW 215 ° 0 min 0,000 mm 0,0 UV-I 14 W/m² 10,2 °C 11,8 °C 0,0 km/h (0 Bft)
12.09.2019 07:27 11,8 °C 90 % 1028,4 hPa 0,0 mm 0,0 km/h (0 Bft) SW 215 ° 0 min 0,000 mm 0,0 UV-I 16 W/m² 10,2 °C 11,8 °C 0,0 km/h (0 Bft)
12.09.2019 07:28 11,8 °C 90 % 1028,4 hPa 0,0 mm 0,0 km/h (0 Bft) SW 215 ° 0 min 0,000 mm 0,0 UV-I 16 W/m² 10,2 °C 11,8 °C 0,0 km/h (0 Bft)
12.09.2019 07:29 11,8 °C 91 % 1028,3 hPa 0,0 mm 0,0 km/h (0 Bft) SW 215 ° 0 min 0,000 mm 0,0 UV-I 16 W/m² 10,4 °C 11,8 °C 0,0 km/h (0 Bft)
12.09.2019 07:30 11,8 °C 91 % 1028,4 hPa 0,0 mm 0,0 km/h (0 Bft) SW 215 ° 0 min 0,000 mm 0,0 UV-I 18 W/m² 10,4 °C 11,8 °C 0,0 km/h (0 Bft)
12.09.2019 07:31 11,8 °C 91 % 1028,4 hPa 0,0 mm 0,0 km/h (0 Bft) SW 215 ° 0 min 0,000 mm 0,0 UV-I 19 W/m² 10,4 °C 11,8 °C 0,0 km/h (0 Bft)
12.09.2019 07:32 11,8 °C 91 % 1028,5 hPa 0,0 mm 0,0 km/h (0 Bft) SW 215 ° 0 min 0,000 mm 0,0 UV-I 21 W/m² 10,4 °C 11,8 °C 0,0 km/h (0 Bft)
12.09.2019 07:33 11,8 °C 91 % 1028,5 hPa 0,0 mm 0,0 km/h (0 Bft) SW 215 ° 0 min 0,000 mm 0,0 UV-I 23 W/m² 10,4 °C 11,8 °C 0,0 km/h (0 Bft)
12.09.2019 07:34 11,8 °C 91 % 1028,5 hPa 0,0 mm 0,0 km/h (0 Bft) SW 215 ° 0 min 0,000 mm 0,0 UV-I 23 W/m² 10,4 °C 11,8 °C 0,0 km/h (0 Bft)
12.09.2019 07:35 11,8 °C 91 % 1028,5 hPa 0,0 mm 0,0 km/h (0 Bft) SW 215 ° 0 min 0,000 mm 0,0 UV-I 23 W/m² 10,4 °C 11,8 °C 0,0 km/h (0 Bft)
12.09.2019 07:36 11,8 °C 90 % 1028,5 hPa 0,0 mm 0,0 km/h (0 Bft) SW 215 ° 0 min 0,000 mm 0,0 UV-I 25 W/m² 10,2 °C 11,8 °C 0,0 km/h (0 Bft)
12.09.2019 07:37 11,8 °C 90 % 1028,5 hPa 0,0 mm 0,0 km/h (0 Bft) SW 215 ° 0 min 0,000 mm 0,0 UV-I 25 W/m² 10,2 °C 11,8 °C 0,0 km/h (0 Bft)
12.09.2019 07:38 11,9 °C 90 % 1028,5 hPa 0,0 mm 0,0 km/h (0 Bft) SW 215 ° 0 min 0,000 mm 0,0 UV-I 26 W/m² 10,3 °C 11,9 °C 0,0 km/h (0 Bft)
12.09.2019 07:39 11,9 °C 90 % 1028,5 hPa 0,0 mm 0,0 km/h (0 Bft) SW 215 ° 0 min 0,000 mm 0,0 UV-I 28 W/m² 10,3 °C 11,9 °C 0,0 km/h (0 Bft)
12.09.2019 07:40 11,9 °C 90 % 1028,5 hPa 0,0 mm 0,0 km/h (0 Bft) SW 215 ° 0 min 0,000 mm 0,0 UV-I 28 W/m² 10,3 °C 11,9 °C 0,0 km/h (0 Bft)
12.09.2019 07:41 11,9 °C 90 % 1028,5 hPa 0,0 mm 0,0 km/h (0 Bft) SW 215 ° 0 min 0,000 mm 0,0 UV-I 30 W/m² 10,3 °C 11,9 °C 0,0 km/h (0 Bft)
12.09.2019 07:42 11,9 °C 90 % 1028,5 hPa 0,0 mm 0,0 km/h (0 Bft) SW 215 ° 0 min 0,000 mm 0,0 UV-I 32 W/m² 10,3 °C 11,9 °C 0,0 km/h (0 Bft)
12.09.2019 07:43 11,9 °C 90 % 1028,5 hPa 0,0 mm 0,0 km/h (0 Bft) SW 215 ° 0 min 0,000 mm 0,0 UV-I 33 W/m² 10,3 °C 11,9 °C 0,0 km/h (0 Bft)
12.09.2019 07:44 11,9 °C 90 % 1028,5 hPa 0,0 mm 0,0 km/h (0 Bft) SW 215 ° 0 min 0,000 mm 0,0 UV-I 37 W/m² 10,3 °C 11,9 °C 0,0 km/h (0 Bft)
12.09.2019 07:45 12,0 °C 90 % 1028,5 hPa 0,0 mm 0,0 km/h (0 Bft) SW 215 ° 0 min 0,000 mm 0,0 UV-I 37 W/m² 10,4 °C 12,0 °C 0,0 km/h (0 Bft)
12.09.2019 07:46 12,0 °C 91 % 1028,5 hPa 0,0 mm 0,0 km/h (0 Bft) SW 215 ° 0 min 0,000 mm 0,0 UV-I 39 W/m² 10,6 °C 12,0 °C 0,0 km/h (0 Bft)
12.09.2019 07:47 12,0 °C 90 % 1028,5 hPa 0,0 mm 0,0 km/h (0 Bft) SW 215 ° 0 min 0,000 mm 0,0 UV-I 39 W/m² 10,4 °C 12,0 °C 0,0 km/h (0 Bft)
12.09.2019 07:48 12,1 °C 91 % 1028,5 hPa 0,0 mm 0,0 km/h (0 Bft) SW 215 ° 0 min 0,000 mm 0,0 UV-I 39 W/m² 10,7 °C 12,1 °C 0,0 km/h (0 Bft)
12.09.2019 07:49 12,0 °C 90 % 1028,5 hPa 0,0 mm 0,0 km/h (0 Bft) SW 215 ° 0 min 0,000 mm 0,0 UV-I 40 W/m² 10,4 °C 12,0 °C 0,0 km/h (0 Bft)
12.09.2019 07:50 12,0 °C 90 % 1028,5 hPa 0,0 mm 0,0 km/h (0 Bft) SW 215 ° 0 min 0,000 mm 0,0 UV-I 42 W/m² 10,4 °C 12,0 °C 0,0 km/h (0 Bft)
12.09.2019 07:51 12,1 °C 90 % 1028,5 hPa 0,0 mm 0,0 km/h (0 Bft) SW 215 ° 0 min 0,000 mm 0,0 UV-I 42 W/m² 10,5 °C 12,1 °C 0,0 km/h (0 Bft)
12.09.2019 07:52 12,1 °C 91 % 1028,5 hPa 0,0 mm 0,0 km/h (0 Bft) SW 215 ° 0 min 0,000 mm 0,0 UV-I 44 W/m² 10,7 °C 12,1 °C 0,0 km/h (0 Bft)
12.09.2019 07:53 12,1 °C 91 % 1028,5 hPa 0,0 mm 0,0 km/h (0 Bft) SW 215 ° 0 min 0,000 mm 0,0 UV-I 47 W/m² 10,7 °C 12,1 °C 0,0 km/h (0 Bft)
12.09.2019 07:54 12,1 °C 91 % 1028,5 hPa 0,2 mm 0,0 km/h (0 Bft) SW 215 ° 0 min 0,000 mm 0,0 UV-I 49 W/m² 10,7 °C 12,1 °C 0,0 km/h (0 Bft)
12.09.2019 07:55 12,1 °C 91 % 1028,4 hPa 0,0 mm 0,0 km/h (0 Bft) SW 215 ° 0 min 0,000 mm 0,0 UV-I 54 W/m² 10,7 °C 12,1 °C 0,0 km/h (0 Bft)
12.09.2019 07:56 12,1 °C 91 % 1028,4 hPa 0,0 mm 0,0 km/h (0 Bft) SW 215 ° 0 min 0,000 mm 0,0 UV-I 63 W/m² 10,7 °C 12,1 °C 0,0 km/h (0 Bft)
12.09.2019 07:57 12,1 °C 91 % 1028,4 hPa 0,0 mm 0,0 km/h (0 Bft) SW 215 ° 0 min 0,000 mm 0,0 UV-I 67 W/m² 10,7 °C 12,1 °C 0,0 km/h (0 Bft)
12.09.2019 07:58 12,1 °C 91 % 1028,4 hPa 0,0 mm 0,0 km/h (0 Bft) SW 215 ° 0 min 0,000 mm 0,0 UV-I 69 W/m² 10,7 °C 12,1 °C 0,0 km/h (0 Bft)
12.09.2019 07:59 12,1 °C 91 % 1028,4 hPa 0,0 mm 0,0 km/h (0 Bft) SW 215 ° 0 min 0,000 mm 0,0 UV-I 72 W/m² 10,7 °C 12,1 °C 0,0 km/h (0 Bft)
12.09.2019 08:00 12,1 °C 91 % 1028,4 hPa 0,0 mm 0,0 km/h (0 Bft) SW 215 ° 0 min 0,000 mm 0,0 UV-I 74 W/m² 10,7 °C 12,1 °C 0,0 km/h (0 Bft)
12.09.2019 08:01 12,1 °C 91 % 1028,4 hPa 0,0 mm 0,0 km/h (0 Bft) S-SW 209 ° 0 min 0,026 mm 0,0 UV-I 74 W/m² 10,7 °C 12,1 °C 0,0 km/h (0 Bft)
12.09.2019 08:02 12,2 °C 90 % 1028,4 hPa 0,0 mm 0,0 km/h (0 Bft) S-SW 209 ° 0 min 0,000 mm 0,0 UV-I 77 W/m² 10,6 °C 12,2 °C 0,0 km/h (0 Bft)
12.09.2019 08:03 12,2 °C 90 % 1028,4 hPa 0,0 mm 0,0 km/h (0 Bft) S-SW 209 ° 0 min 0,000 mm 0,0 UV-I 79 W/m² 10,6 °C 12,2 °C 0,0 km/h (0 Bft)
12.09.2019 08:04 12,3 °C 90 % 1028,3 hPa 0,0 mm 0,0 km/h (0 Bft) S-SW 209 ° 0 min 0,000 mm 0,0 UV-I 81 W/m² 10,7 °C 12,3 °C 0,0 km/h (0 Bft)
12.09.2019 08:05 12,3 °C 90 % 1028,4 hPa 0,0 mm 0,0 km/h (0 Bft) S-SW 209 ° 0 min 0,000 mm 0,5 UV-I 83 W/m² 10,7 °C 12,3 °C 0,0 km/h (0 Bft)
12.09.2019 08:06 12,3 °C 90 % 1028,3 hPa 0,0 mm 0,0 km/h (0 Bft) S-SW 209 ° 0 min 0,000 mm 0,5 UV-I 86 W/m² 10,7 °C 12,3 °C 0,0 km/h (0 Bft)
12.09.2019 08:07 12,4 °C 90 % 1028,3 hPa 0,0 mm 0,0 km/h (0 Bft) S-SW 209 ° 0 min 0,000 mm 0,5 UV-I 95 W/m² 10,8 °C 12,4 °C 0,0 km/h (0 Bft)
12.09.2019 08:08 12,4 °C 90 % 1028,3 hPa 0,0 mm 0,0 km/h (0 Bft) S-SW 209 ° 0 min 0,000 mm 0,5 UV-I 98 W/m² 10,8 °C 12,4 °C 0,0 km/h (0 Bft)
12.09.2019 08:09 12,4 °C 90 % 1028,3 hPa 0,0 mm 0,0 km/h (0 Bft) S-SW 209 ° 0 min 0,000 mm 0,5 UV-I 104 W/m² 10,8 °C 12,4 °C 0,0 km/h (0 Bft)
12.09.2019 08:10 12,4 °C 90 % 1028,3 hPa 0,0 mm 0,0 km/h (0 Bft) S-SW 209 ° 0 min 0,000 mm 0,5 UV-I 113 W/m² 10,8 °C 12,4 °C 0,0 km/h (0 Bft)
12.09.2019 08:11 12,5 °C 90 % 1028,3 hPa 0,0 mm 0,0 km/h (0 Bft) S-SW 209 ° 0 min 0,000 mm 0,5 UV-I 113 W/m² 10,9 °C 12,5 °C 0,0 km/h (0 Bft)
12.09.2019 08:12 12,6 °C 89 % 1028,4 hPa 0,0 mm 0,0 km/h (0 Bft) W-SW 247 ° 0 min 0,000 mm 0,6 UV-I 128 W/m² 10,8 °C 12,6 °C 0,0 km/h (0 Bft)
12.09.2019 08:13 12,7 °C 89 % 1028,4 hPa 0,0 mm 0,0 km/h (0 Bft) W-SW 247 ° 0 min 0,000 mm 0,6 UV-I 116 W/m² 10,9 °C 12,7 °C 0,0 km/h (0 Bft)
12.09.2019 08:14 12,7 °C 89 % 1028,4 hPa 0,0 mm 0,0 km/h (0 Bft) W-SW 248 ° 0 min 0,000 mm 0,6 UV-I 118 W/m² 10,9 °C 12,7 °C 0,0 km/h (0 Bft)
12.09.2019 08:15 12,7 °C 89 % 1028,4 hPa 0,0 mm 0,0 km/h (0 Bft) W-SW 248 ° 0 min 0,000 mm 0,6 UV-I 118 W/m² 10,9 °C 12,7 °C 0,0 km/h (0 Bft)
12.09.2019 08:16 12,7 °C 89 % 1028,3 hPa 0,0 mm 0,0 km/h (0 Bft) W-SW 248 ° 0 min 0,000 mm 0,6 UV-I 118 W/m² 10,9 °C 12,7 °C 0,0 km/h (0 Bft)
12.09.2019 08:17 12,7 °C 89 % 1028,3 hPa 0,0 mm 0,0 km/h (0 Bft) W-SW 248 ° 0 min 0,000 mm 0,6 UV-I 118 W/m² 10,9 °C 12,7 °C 0,0 km/h (0 Bft)
12.09.2019 08:18 12,8 °C 89 % 1028,3 hPa 0,0 mm 0,0 km/h (0 Bft) W-SW 248 ° 0 min 0,000 mm 0,6 UV-I 118 W/m² 11,0 °C 12,8 °C 0,0 km/h (0 Bft)
12.09.2019 08:19 12,8 °C 88 % 1028,3 hPa 0,0 mm 0,0 km/h (0 Bft) W-SW 248 ° 0 min 0,000 mm 0,6 UV-I 123 W/m² 10,9 °C 12,8 °C 0,0 km/h (0 Bft)
12.09.2019 08:20 12,8 °C 88 % 1028,3 hPa 0,0 mm 0,0 km/h (0 Bft) W-SW 248 ° 0 min 0,000 mm 0,6 UV-I 118 W/m² 10,9 °C 12,8 °C 0,0 km/h (0 Bft)
12.09.2019 08:21 12,9 °C 88 % 1028,3 hPa 0,0 mm 0,0 km/h (0 Bft) W-SW 248 ° 0 min 0,000 mm 0,6 UV-I 127 W/m² 11,0 °C 12,9 °C 0,0 km/h (0 Bft)
12.09.2019 08:22 12,9 °C 88 % 1028,3 hPa 0,0 mm 0,0 km/h (0 Bft) W-SW 248 ° 0 min 0,000 mm 0,6 UV-I 113 W/m² 11,0 °C 12,9 °C 0,0 km/h (0 Bft)
12.09.2019 08:23 12,9 °C 87 % 1028,3 hPa 0,0 mm 0,0 km/h (0 Bft) W-SW 248 ° 0 min 0,000 mm 0,6 UV-I 113 W/m² 10,8 °C 12,9 °C 0,0 km/h (0 Bft)
12.09.2019 08:24 13,0 °C 88 % 1028,4 hPa 0,0 mm 0,0 km/h (0 Bft) W-SW 248 ° 0 min 0,000 mm 0,6 UV-I 111 W/m² 11,1 °C 13,0 °C 0,0 km/h (0 Bft)
12.09.2019 08:25 13,1 °C 88 % 1028,4 hPa 0,0 mm 0,0 km/h (0 Bft) W-SW 248 ° 0 min 0,000 mm 0,6 UV-I 113 W/m² 11,2 °C 13,1 °C 0,0 km/h (0 Bft)
12.09.2019 08:26 13,1 °C 88 % 1028,4 hPa 0,0 mm 0,0 km/h (0 Bft) W-SW 248 ° 0 min 0,000 mm 0,6 UV-I 114 W/m² 11,2 °C 13,1 °C 0,0 km/h (0 Bft)
12.09.2019 08:27 13,1 °C 87 % 1028,4 hPa 0,0 mm 0,0 km/h (0 Bft) W-SW 248 ° 0 min 0,000 mm 0,6 UV-I 113 W/m² 11,0 °C 13,1 °C 0,0 km/h (0 Bft)
12.09.2019 08:28 13,1 °C 87 % 1028,4 hPa 0,0 mm 0,0 km/h (0 Bft) W-SW 248 ° 0 min 0,000 mm 0,6 UV-I 109 W/m² 11,0 °C 13,1 °C 0,0 km/h (0 Bft)
12.09.2019 08:29 13,1 °C 87 % 1028,4 hPa 0,0 mm 0,0 km/h (0 Bft) W-SW 248 ° 0 min 0,000 mm 0,6 UV-I 105 W/m² 11,0 °C 13,1 °C 0,0 km/h (0 Bft)
12.09.2019 08:30 13,2 °C 86 % 1028,4 hPa 0,0 mm 0,0 km/h (0 Bft) W-SW 248 ° 0 min 0,000 mm 0,6 UV-I 104 W/m² 10,9 °C 13,2 °C 0,0 km/h (0 Bft)
12.09.2019 08:31 13,2 °C 86 % 1028,4 hPa 0,0 mm 0,0 km/h (0 Bft) W-SW 248 ° 0 min 0,000 mm 0,6 UV-I 100 W/m² 10,9 °C 13,2 °C 0,0 km/h (0 Bft)
12.09.2019 08:32 13,2 °C 86 % 1028,5 hPa 0,0 mm 0,0 km/h (0 Bft) W-SW 248 ° 0 min 0,000 mm 0,6 UV-I 98 W/m² 10,9 °C 13,2 °C 0,0 km/h (0 Bft)
12.09.2019 08:33 13,2 °C 86 % 1028,5 hPa 0,0 mm 0,0 km/h (0 Bft) W-SW 248 ° 0 min 0,000 mm 0,6 UV-I 97 W/m² 10,9 °C 13,2 °C 0,0 km/h (0 Bft)
12.09.2019 08:34 13,3 °C 86 % 1028,5 hPa 0,0 mm 0,0 km/h (0 Bft) W-SW 248 ° 0 min 0,000 mm 0,6 UV-I 97 W/m² 11,0 °C 13,3 °C 0,0 km/h (0 Bft)
12.09.2019 08:35 13,3 °C 86 % 1028,4 hPa 0,0 mm 0,0 km/h (0 Bft) W-SW 248 ° 0 min 0,000 mm 0,6 UV-I 97 W/m² 11,0 °C 13,3 °C 0,0 km/h (0 Bft)
12.09.2019 08:36 13,4 °C 86 % 1028,4 hPa 0,0 mm 0,0 km/h (0 Bft) W-SW 248 ° 0 min 0,000 mm 0,6 UV-I 97 W/m² 11,1 °C 13,4 °C 0,0 km/h (0 Bft)
12.09.2019 08:37 13,4 °C 85 % 1028,4 hPa 0,0 mm 0,0 km/h (0 Bft) W-SW 248 ° 0 min 0,000 mm 0,6 UV-I 100 W/m² 10,9 °C 13,4 °C 0,0 km/h (0 Bft)
12.09.2019 08:38 13,4 °C 86 % 1028,3 hPa 0,0 mm 0,0 km/h (0 Bft) W-SW 248 ° 0 min 0,000 mm 0,6 UV-I 102 W/m² 11,1 °C 13,4 °C 0,0 km/h (0 Bft)
12.09.2019 08:39 13,4 °C 86 % 1028,3 hPa 0,0 mm 0,0 km/h (0 Bft) W-SW 248 ° 0 min 0,000 mm 0,6 UV-I 102 W/m² 11,1 °C 13,4 °C 0,0 km/h (0 Bft)
12.09.2019 08:40 13,4 °C 86 % 1028,3 hPa 0,0 mm 0,0 km/h (0 Bft) W-SW 248 ° 0 min 0,000 mm 0,6 UV-I 102 W/m² 11,1 °C 13,4 °C 0,0 km/h (0 Bft)
12.09.2019 08:41 13,5 °C 86 % 1028,4 hPa 0,0 mm 0,0 km/h (0 Bft) W-SW 248 ° 0 min 0,000 mm 0,6 UV-I 102 W/m² 11,2 °C 13,5 °C 0,0 km/h (0 Bft)
12.09.2019 08:42 13,5 °C 86 % 1028,4 hPa 0,0 mm 0,0 km/h (0 Bft) W-SW 248 ° 0 min 0,000 mm 0,6 UV-I 100 W/m² 11,2 °C 13,5 °C 0,0 km/h (0 Bft)
12.09.2019 08:43 13,5 °C 86 % 1028,4 hPa 0,0 mm 0,0 km/h (0 Bft) W-SW 248 ° 0 min 0,000 mm 0,6 UV-I 100 W/m² 11,2 °C 13,5 °C 0,0 km/h (0 Bft)
12.09.2019 08:44 13,5 °C 86 % 1028,4 hPa 0,0 mm 0,0 km/h (0 Bft) W-SW 248 ° 0 min 0,000 mm 0,7 UV-I 102 W/m² 11,2 °C 13,5 °C 0,0 km/h (0 Bft)
12.09.2019 08:45 13,6 °C 85 % 1028,4 hPa 0,0 mm 0,0 km/h (0 Bft) W-SW 248 ° 0 min 0,000 mm 0,7 UV-I 104 W/m² 11,1 °C 13,6 °C 0,0 km/h (0 Bft)
12.09.2019 08:46 13,6 °C 86 % 1028,5 hPa 0,0 mm 0,0 km/h (0 Bft) W-SW 248 ° 0 min 0,000 mm 0,7 UV-I 104 W/m² 11,3 °C 13,6 °C 0,0 km/h (0 Bft)
12.09.2019 08:47 13,7 °C 86 % 1028,5 hPa 0,0 mm 0,0 km/h (0 Bft) W-SW 248 ° 0 min 0,000 mm 0,7 UV-I 105 W/m² 11,4 °C 13,7 °C 0,0 km/h (0 Bft)
12.09.2019 08:48 13,7 °C 86 % 1028,5 hPa 0,0 mm 0,0 km/h (0 Bft) W-SW 248 ° 0 min 0,000 mm 0,7 UV-I 109 W/m² 11,4 °C 13,7 °C 0,0 km/h (0 Bft)
12.09.2019 08:49 13,8 °C 86 % 1028,5 hPa 0,0 mm 0,0 km/h (0 Bft) W-SW 248 ° 0 min 0,000 mm 0,7 UV-I 109 W/m² 11,5 °C 13,8 °C 0,0 km/h (0 Bft)
12.09.2019 08:50 13,8 °C 85 % 1028,5 hPa 0,0 mm 0,0 km/h (0 Bft) W-SW 248 ° 0 min 0,000 mm 0,7 UV-I 109 W/m² 11,3 °C 13,8 °C 0,0 km/h (0 Bft)
12.09.2019 08:51 13,8 °C 85 % 1028,4 hPa 0,0 mm 0,0 km/h (0 Bft) W-SW 248 ° 0 min 0,000 mm 0,8 UV-I 111 W/m² 11,3 °C 13,8 °C 0,0 km/h (0 Bft)
12.09.2019 08:52 13,8 °C 86 % 1028,4 hPa 0,0 mm 0,0 km/h (0 Bft) W-SW 248 ° 0 min 0,000 mm 0,8 UV-I 111 W/m² 11,5 °C 13,8 °C 0,0 km/h (0 Bft)
12.09.2019 08:53 13,8 °C 86 % 1028,4 hPa 0,0 mm 0,0 km/h (0 Bft) W-SW 248 ° 0 min 0,000 mm 0,8 UV-I 113 W/m² 11,5 °C 13,8 °C 0,0 km/h (0 Bft)
12.09.2019 08:54 13,9 °C 87 % 1028,4 hPa 0,0 mm 0,0 km/h (0 Bft) W-SW 248 ° 0 min 0,000 mm 0,8 UV-I 118 W/m² 11,8 °C 13,9 °C 0,0 km/h (0 Bft)
12.09.2019 08:55 13,9 °C 86 % 1028,4 hPa 0,0 mm 0,0 km/h (0 Bft) W-SW 248 ° 0 min 0,000 mm 0,8 UV-I 120 W/m² 11,6 °C 13,9 °C 0,0 km/h (0 Bft)
12.09.2019 08:56 13,9 °C 86 % 1028,4 hPa 0,0 mm 0,0 km/h (0 Bft) W-SW 248 ° 0 min 0,000 mm 0,8 UV-I 121 W/m² 11,6 °C 13,9 °C 0,0 km/h (0 Bft)
12.09.2019 08:57 13,9 °C 86 % 1028,4 hPa 0,0 mm 0,0 km/h (0 Bft) W-SW 248 ° 0 min 0,000 mm 0,8 UV-I 121 W/m² 11,6 °C 13,9 °C 0,0 km/h (0 Bft)
12.09.2019 08:58 13,9 °C 86 % 1028,4 hPa 0,0 mm 0,0 km/h (0 Bft) W-SW 248 ° 0 min 0,000 mm 0,8 UV-I 121 W/m² 11,6 °C 13,9 °C 0,0 km/h (0 Bft)
12.09.2019 08:59 13,9 °C 86 % 1028,4 hPa 0,0 mm 0,0 km/h (0 Bft) W-SW 248 ° 0 min 0,000 mm 0,8 UV-I 123 W/m² 11,6 °C 13,9 °C 0,0 km/h (0 Bft)
12.09.2019 09:00 13,9 °C 85 % 1028,4 hPa 0,0 mm 0,0 km/h (0 Bft) W-SW 248 ° 0 min 0,050 mm 0,8 UV-I 125 W/m² 11,4 °C 13,9 °C 0,0 km/h (0 Bft)
12.09.2019 09:01 13,9 °C 85 % 1028,4 hPa 0,0 mm 0,0 km/h (0 Bft) W-SW 248 ° 0 min 0,000 mm 0,9 UV-I 125 W/m² 11,4 °C 13,9 °C 0,0 km/h (0 Bft)
12.09.2019 09:02 13,9 °C 85 % 1028,4 hPa 0,0 mm 0,0 km/h (0 Bft) W-SW 248 ° 0 min 0,000 mm 0,9 UV-I 123 W/m² 11,4 °C 13,9 °C 0,0 km/h (0 Bft)
12.09.2019 09:03 14,0 °C 84 % 1028,4 hPa 0,0 mm 0,0 km/h (0 Bft) W-SW 248 ° 0 min 0,000 mm 0,9 UV-I 121 W/m² 11,3 °C 14,0 °C 0,0 km/h (0 Bft)
12.09.2019 09:04 14,1 °C 84 % 1028,4 hPa 0,0 mm 0,0 km/h (0 Bft) W-SW 248 ° 0 min 0,000 mm 0,9 UV-I 120 W/m² 11,4 °C 14,1 °C 0,0 km/h (0 Bft)
12.09.2019 09:05 14,1 °C 83 % 1028,3 hPa 0,0 mm 0,0 km/h (0 Bft) W-SW 248 ° 0 min 0,000 mm 0,9 UV-I 120 W/m² 11,3 °C 14,1 °C 0,0 km/h (0 Bft)
12.09.2019 09:06 14,1 °C 84 % 1028,4 hPa 0,0 mm 0,0 km/h (0 Bft) W-SW 248 ° 0 min 0,000 mm 0,9 UV-I 113 W/m² 11,4 °C 14,1 °C 0,0 km/h (0 Bft)
12.09.2019 09:07 14,2 °C 84 % 1028,4 hPa 0,0 mm 0,0 km/h (0 Bft) W-SW 248 ° 0 min 0,000 mm 0,8 UV-I 109 W/m² 11,5 °C 14,2 °C 0,0 km/h (0 Bft)
12.09.2019 09:08 14,2 °C 83 % 1028,4 hPa 0,0 mm 0,0 km/h (0 Bft) W-SW 248 ° 0 min 0,000 mm 0,8 UV-I 107 W/m² 11,4 °C 14,2 °C 0,0 km/h (0 Bft)
12.09.2019 09:09 14,2 °C 84 % 1028,3 hPa 0,0 mm 0,0 km/h (0 Bft) W-SW 248 ° 0 min 0,000 mm 0,8 UV-I 111 W/m² 11,5 °C 14,2 °C 0,0 km/h (0 Bft)
12.09.2019 09:10 14,3 °C 85 % 1028,4 hPa 0,0 mm 0,0 km/h (0 Bft) W-SW 248 ° 0 min 0,000 mm 0,8 UV-I 118 W/m² 11,8 °C 14,3 °C 0,0 km/h (0 Bft)
12.09.2019 09:11 14,3 °C 85 % 1028,4 hPa 0,0 mm 0,0 km/h (0 Bft) W-SW 248 ° 0 min 0,000 mm 0,9 UV-I 123 W/m² 11,8 °C 14,3 °C 0,0 km/h (0 Bft)
12.09.2019 09:12 14,3 °C 85 % 1028,4 hPa 0,0 mm 0,0 km/h (0 Bft) W-SW 248 ° 0 min 0,000 mm 0,9 UV-I 130 W/m² 11,8 °C 14,3 °C 0,0 km/h (0 Bft)
12.09.2019 09:13 14,3 °C 84 % 1028,4 hPa 0,0 mm 0,0 km/h (0 Bft) W-SW 248 ° 0 min 0,000 mm 0,9 UV-I 132 W/m² 11,6 °C 14,3 °C 0,0 km/h (0 Bft)
12.09.2019 09:14 14,3 °C 84 % 1028,4 hPa 0,0 mm 0,0 km/h (0 Bft) W-SW 248 ° 0 min 0,000 mm 0,9 UV-I 134 W/m² 11,6 °C 14,3 °C 0,0 km/h (0 Bft)
12.09.2019 09:15 14,3 °C 85 % 1028,4 hPa 0,0 mm 0,0 km/h (0 Bft) W-SW 248 ° 0 min 0,000 mm 0,9 UV-I 137 W/m² 11,8 °C 14,3 °C 0,0 km/h (0 Bft)
12.09.2019 09:16 14,3 °C 86 % 1028,4 hPa 0,0 mm 0,0 km/h (0 Bft) W-SW 248 ° 0 min 0,000 mm 1,0 UV-I 142 W/m² 12,0 °C 14,3 °C 0,0 km/h (0 Bft)
12.09.2019 09:17 14,3 °C 87 % 1028,4 hPa 0,0 mm 0,0 km/h (0 Bft) W-SW 248 ° 0 min 0,000 mm 1,0 UV-I 151 W/m² 12,2 °C 14,3 °C 0,0 km/h (0 Bft)
12.09.2019 09:18 14,3 °C 86 % 1028,4 hPa 0,0 mm 0,0 km/h (0 Bft) W-SW 248 ° 0 min 0,000 mm 1,1 UV-I 172 W/m² 12,0 °C 14,3 °C 0,0 km/h (0 Bft)
12.09.2019 09:19 14,4 °C 86 % 1028,4 hPa 0,0 mm 0,0 km/h (0 Bft) W-SW 248 ° 0 min 0,000 mm 1,2 UV-I 181 W/m² 12,1 °C 14,4 °C 0,0 km/h (0 Bft)
12.09.2019 09:20 14,4 °C 86 % 1028,5 hPa 0,0 mm 0,0 km/h (0 Bft) W-SW 248 ° 0 min 0,000 mm 1,2 UV-I 183 W/m² 12,1 °C 14,4 °C 0,0 km/h (0 Bft)
12.09.2019 09:21 14,6 °C 86 % 1028,5 hPa 0,0 mm 0,0 km/h (0 Bft) W-SW 248 ° 0 min 0,000 mm 1,2 UV-I 179 W/m² 12,3 °C 14,6 °C 0,0 km/h (0 Bft)
12.09.2019 09:22 14,7 °C 85 % 1028,5 hPa 0,0 mm 1,5 km/h (1 Bft) W-SW 248 ° 0 min 0,000 mm 1,1 UV-I 171 W/m² 12,2 °C 14,7 °C 3,2 km/h (1 Bft)
12.09.2019 09:23 14,8 °C 85 % 1028,5 hPa 0,0 mm 0,7 km/h (0 Bft) W-SW 248 ° 0 min 0,000 mm 1,1 UV-I 162 W/m² 12,3 °C 14,8 °C 1,6 km/h (1 Bft)
12.09.2019 09:24 14,8 °C 84 % 1028,6 hPa 0,0 mm 0,1 km/h (0 Bft) W-SW 248 ° 0 min 0,000 mm 1,1 UV-I 148 W/m² 12,1 °C 14,8 °C 1,6 km/h (1 Bft)
12.09.2019 09:25 14,8 °C 84 % 1028,6 hPa 0,0 mm 0,8 km/h (0 Bft) W-SW 248 ° 0 min 0,000 mm 1,1 UV-I 142 W/m² 12,1 °C 14,8 °C 3,2 km/h (1 Bft)
12.09.2019 09:26 14,8 °C 84 % 1028,6 hPa 0,0 mm 0,0 km/h (0 Bft) W-SW 248 ° 0 min 0,000 mm 1,0 UV-I 137 W/m² 12,1 °C 14,8 °C 0,0 km/h (0 Bft)
12.09.2019 09:27 14,8 °C 84 % 1028,6 hPa 0,0 mm 0,0 km/h (0 Bft) W-SW 248 ° 0 min 0,000 mm 1,0 UV-I 132 W/m² 12,1 °C 14,8 °C 0,0 km/h (0 Bft)
12.09.2019 09:28 14,8 °C 84 % 1028,7 hPa 0,0 mm 0,1 km/h (0 Bft) W-SW 248 ° 0 min 0,000 mm 1,0 UV-I 127 W/m² 12,1 °C 14,8 °C 1,6 km/h (1 Bft)
12.09.2019 09:29 14,8 °C 83 % 1028,7 hPa 0,0 mm 0,0 km/h (0 Bft) W-SW 248 ° 0 min 0,000 mm 1,0 UV-I 127 W/m² 11,9 °C 14,8 °C 0,0 km/h (0 Bft)
12.09.2019 09:30 14,8 °C 83 % 1028,7 hPa 0,0 mm 0,0 km/h (0 Bft) W-SW 248 ° 0 min 0,000 mm 1,1 UV-I 134 W/m² 11,9 °C 14,8 °C 0,0 km/h (0 Bft)
12.09.2019 09:31 14,8 °C 84 % 1028,6 hPa 0,0 mm 0,0 km/h (0 Bft) W-SW 248 ° 0 min 0,000 mm 1,1 UV-I 144 W/m² 12,1 °C 14,8 °C 0,0 km/h (0 Bft)
12.09.2019 09:32 14,7 °C 84 % 1028,6 hPa 0,0 mm 0,0 km/h (0 Bft) W-SW 248 ° 0 min 0,000 mm 1,1 UV-I 155 W/m² 12,0 °C 14,7 °C 0,0 km/h (0 Bft)
12.09.2019 09:33 14,7 °C 85 % 1028,7 hPa 0,0 mm 0,0 km/h (0 Bft) W-SW 248 ° 0 min 0,000 mm 1,2 UV-I 163 W/m² 12,2 °C 14,7 °C 0,0 km/h (0 Bft)
12.09.2019 09:34 14,7 °C 85 % 1028,7 hPa 0,0 mm 0,0 km/h (0 Bft) W-SW 248 ° 0 min 0,000 mm 1,2 UV-I 169 W/m² 12,2 °C 14,7 °C 0,0 km/h (0 Bft)
12.09.2019 09:35 14,7 °C 83 % 1028,7 hPa 0,0 mm 0,1 km/h (0 Bft) W-SW 248 ° 0 min 0,000 mm 1,2 UV-I 171 W/m² 11,8 °C 14,7 °C 1,6 km/h (1 Bft)
12.09.2019 09:36 14,8 °C 83 % 1028,8 hPa 0,0 mm 0,0 km/h (0 Bft) W-SW 248 ° 0 min 0,000 mm 1,2 UV-I 172 W/m² 11,9 °C 14,8 °C 0,0 km/h (0 Bft)
12.09.2019 09:37 14,8 °C 84 % 1028,8 hPa 0,0 mm 0,0 km/h (0 Bft) W-SW 248 ° 0 min 0,000 mm 1,2 UV-I 174 W/m² 12,1 °C 14,8 °C 0,0 km/h (0 Bft)
12.09.2019 09:38 14,9 °C 83 % 1028,8 hPa 0,0 mm 1,2 km/h (1 Bft) W-SW 257 ° 0 min 0,000 mm 1,2 UV-I 176 W/m² 12,0 °C 14,9 °C 4,8 km/h (1 Bft)
12.09.2019 09:39 14,9 °C 83 % 1028,9 hPa 0,0 mm 3,2 km/h (1 Bft) W-SW 257 ° 0 min 0,000 mm 1,2 UV-I 178 W/m² 12,0 °C 14,9 °C 4,8 km/h (1 Bft)
12.09.2019 09:40 15,1 °C 83 % 1028,9 hPa 0,0 mm 1,5 km/h (1 Bft) W-SW 257 ° 0 min 0,000 mm 1,3 UV-I 179 W/m² 12,2 °C 15,1 °C 3,2 km/h (1 Bft)
12.09.2019 09:41 15,1 °C 83 % 1029,0 hPa 0,0 mm 0,8 km/h (0 Bft) W-SW 257 ° 0 min 0,000 mm 1,3 UV-I 185 W/m² 12,2 °C 15,1 °C 3,2 km/h (1 Bft)
12.09.2019 09:42 15,1 °C 84 % 1028,9 hPa 0,0 mm 2,7 km/h (1 Bft) W-SW 257 ° 0 min 0,000 mm 1,3 UV-I 190 W/m² 12,4 °C 15,1 °C 3,2 km/h (1 Bft)
12.09.2019 09:43 15,1 °C 84 % 1028,9 hPa 0,0 mm 1,7 km/h (1 Bft) W-SW 257 ° 0 min 0,000 mm 1,3 UV-I 193 W/m² 12,4 °C 15,1 °C 3,2 km/h (1 Bft)
12.09.2019 09:44 15,1 °C 84 % 1028,9 hPa 0,0 mm 0,0 km/h (0 Bft) W-SW 257 ° 0 min 0,000 mm 1,3 UV-I 192 W/m² 12,4 °C 15,1 °C 0,0 km/h (0 Bft)
12.09.2019 09:45 15,1 °C 84 % 1028,9 hPa 0,0 mm 0,0 km/h (0 Bft) W-SW 257 ° 0 min 0,000 mm 1,3 UV-I 186 W/m² 12,4 °C 15,1 °C 0,0 km/h (0 Bft)
12.09.2019 09:46 15,1 °C 84 % 1028,9 hPa 0,0 mm 0,0 km/h (0 Bft) W-SW 257 ° 0 min 0,000 mm 1,3 UV-I 181 W/m² 12,4 °C 15,1 °C 0,0 km/h (0 Bft)
12.09.2019 09:47 15,1 °C 82 % 1029,0 hPa 0,0 mm 0,0 km/h (0 Bft) W-SW 257 ° 0 min 0,000 mm 1,3 UV-I 178 W/m² 12,0 °C 15,1 °C 0,0 km/h (0 Bft)
12.09.2019 09:48 15,2 °C 83 % 1029,0 hPa 0,0 mm 0,0 km/h (0 Bft) W-SW 257 ° 0 min 0,000 mm 1,3 UV-I 178 W/m² 12,3 °C 15,2 °C 0,0 km/h (0 Bft)
12.09.2019 09:49 15,2 °C 83 % 1029,0 hPa 0,0 mm 0,0 km/h (0 Bft) W-SW 257 ° 0 min 0,000 mm 1,4 UV-I 179 W/m² 12,3 °C 15,2 °C 0,0 km/h (0 Bft)
12.09.2019 09:50 15,2 °C 82 % 1029,0 hPa 0,0 mm 0,0 km/h (0 Bft) W-SW 257 ° 0 min 0,000 mm 1,4 UV-I 181 W/m² 12,1 °C 15,2 °C 0,0 km/h (0 Bft)
12.09.2019 09:51 15,1 °C 82 % 1029,0 hPa 0,0 mm 0,0 km/h (0 Bft) W-SW 257 ° 0 min 0,000 mm 1,4 UV-I 186 W/m² 12,0 °C 15,1 °C 0,0 km/h (0 Bft)
12.09.2019 09:52 15,2 °C 83 % 1029,1 hPa 0,0 mm 0,0 km/h (0 Bft) W-SW 257 ° 0 min 0,000 mm 1,4 UV-I 190 W/m² 12,3 °C 15,2 °C 0,0 km/h (0 Bft)
12.09.2019 09:53 15,2 °C 83 % 1029,1 hPa 0,0 mm 0,0 km/h (0 Bft) W-SW 257 ° 0 min 0,000 mm 1,5 UV-I 199 W/m² 12,3 °C 15,2 °C 0,0 km/h (0 Bft)
12.09.2019 09:54 15,2 °C 82 % 1029,1 hPa 0,0 mm 0,0 km/h (0 Bft) W-SW 257 ° 0 min 0,000 mm 1,5 UV-I 197 W/m² 12,1 °C 15,2 °C 0,0 km/h (0 Bft)
12.09.2019 09:55 15,2 °C 82 % 1029,1 hPa 0,0 mm 0,0 km/h (0 Bft) W-SW 257 ° 0 min 0,000 mm 1,5 UV-I 190 W/m² 12,1 °C 15,2 °C 0,0 km/h (0 Bft)
12.09.2019 09:56 15,2 °C 84 % 1029,1 hPa 0,0 mm 0,0 km/h (0 Bft) W-SW 257 ° 0 min 0,000 mm 1,5 UV-I 183 W/m² 12,5 °C 15,2 °C 0,0 km/h (0 Bft)
12.09.2019 09:57 15,2 °C 84 % 1029,0 hPa 0,0 mm 0,0 km/h (0 Bft) W-SW 257 ° 0 min 0,000 mm 1,8 UV-I 243 W/m² 12,5 °C 15,2 °C 0,0 km/h (0 Bft)
12.09.2019 09:58 15,2 °C 84 % 1029,1 hPa 0,0 mm 0,0 km/h (0 Bft) W-SW 257 ° 0 min 0,000 mm 1,6 UV-I 174 W/m² 12,5 °C 15,2 °C 0,0 km/h (0 Bft)
12.09.2019 09:59 15,3 °C 85 % 1029,1 hPa 0,0 mm 0,0 km/h (0 Bft) W-SW 257 ° 0 min 0,000 mm 1,6 UV-I 179 W/m² 12,8 °C 15,3 °C 0,0 km/h (0 Bft)
12.09.2019 10:00 15,3 °C 85 % 1029,1 hPa 0,0 mm 0,0 km/h (0 Bft) W-SW 257 ° 0 min 0,000 mm 1,8 UV-I 193 W/m² 12,8 °C 15,3 °C 0,0 km/h (0 Bft)
12.09.2019 10:01 15,4 °C 83 % 1029,1 hPa 0,0 mm 0,0 km/h (0 Bft) W-SW 257 ° 0 min 0,077 mm 1,8 UV-I 207 W/m² 12,5 °C 15,4 °C 0,0 km/h (0 Bft)
12.09.2019 10:02 15,4 °C 83 % 1029,1 hPa 0,0 mm 0,0 km/h (0 Bft) W-SW 257 ° 0 min 0,000 mm 2,0 UV-I 230 W/m² 12,5 °C 15,4 °C 0,0 km/h (0 Bft)
12.09.2019 10:03 15,4 °C 82 % 1029,1 hPa 0,0 mm 0,0 km/h (0 Bft) W-SW 257 ° 0 min 0,000 mm 2,0 UV-I 262 W/m² 12,3 °C 15,4 °C 0,0 km/h (0 Bft)
12.09.2019 10:04 15,5 °C 82 % 1029,1 hPa 0,0 mm 0,0 km/h (0 Bft) W-SW 257 ° 0 min 0,000 mm 2,2 UV-I 274 W/m² 12,4 °C 15,5 °C 0,0 km/h (0 Bft)
12.09.2019 10:05 15,6 °C 82 % 1029,1 hPa 0,0 mm 0,0 km/h (0 Bft) W-SW 257 ° 0 min 0,000 mm 2,2 UV-I 297 W/m² 12,5 °C 15,6 °C 0,0 km/h (0 Bft)
12.09.2019 10:06 15,6 °C 83 % 1029,2 hPa 0,0 mm 0,0 km/h (0 Bft) W-SW 257 ° 0 min 0,000 mm 2,2 UV-I 292 W/m² 12,7 °C 15,6 °C 0,0 km/h (0 Bft)
12.09.2019 10:07 15,7 °C 81 % 1029,2 hPa 0,0 mm 0,0 km/h (0 Bft) W-SW 257 ° 0 min 0,000 mm 2,3 UV-I 338 W/m² 12,4 °C 15,7 °C 0,0 km/h (0 Bft)
12.09.2019 10:08 15,8 °C 81 % 1029,2 hPa 0,0 mm 0,0 km/h (0 Bft) W-SW 257 ° 0 min 0,000 mm 2,2 UV-I 283 W/m² 12,5 °C 15,8 °C 0,0 km/h (0 Bft)
12.09.2019 10:09 15,9 °C 80 % 1029,2 hPa 0,0 mm 0,0 km/h (0 Bft) W-SW 257 ° 0 min 0,000 mm 2,4 UV-I 327 W/m² 12,5 °C 15,9 °C 0,0 km/h (0 Bft)
12.09.2019 10:10 15,9 °C 79 % 1029,2 hPa 0,0 mm 0,0 km/h (0 Bft) W-SW 257 ° 0 min 0,000 mm 2,2 UV-I 243 W/m² 12,3 °C 15,9 °C 0,0 km/h (0 Bft)
12.09.2019 10:11 16,0 °C 81 % 1029,2 hPa 0,0 mm 0,0 km/h (0 Bft) W-SW 257 ° 0 min 0,000 mm 2,1 UV-I 230 W/m² 12,7 °C 16,0 °C 0,0 km/h (0 Bft)
12.09.2019 10:12 15,9 °C 80 % 1029,2 hPa 0,0 mm 0,0 km/h (0 Bft) W-SW 257 ° 0 min 0,000 mm 2,1 UV-I 220 W/m² 12,5 °C 15,9 °C 0,0 km/h (0 Bft)
12.09.2019 10:13 15,9 °C 79 % 1029,2 hPa 0,0 mm 0,0 km/h (0 Bft) W-SW 257 ° 0 min 0,000 mm 2,1 UV-I 213 W/m² 12,3 °C 15,9 °C 0,0 km/h (0 Bft)
12.09.2019 10:14 15,9 °C 81 % 1029,2 hPa 0,0 mm 0,0 km/h (0 Bft) W-SW 257 ° 0 min 0,000 mm 2,6 UV-I 285 W/m² 12,6 °C 15,9 °C 0,0 km/h (0 Bft)
12.09.2019 10:15 15,9 °C 79 % 1029,2 hPa 0,0 mm 0,0 km/h (0 Bft) W-SW 257 ° 0 min 0,000 mm 2,2 UV-I 265 W/m² 12,3 °C 15,9 °C 0,0 km/h (0 Bft)
12.09.2019 10:16 15,9 °C 75 % 1029,2 hPa 0,0 mm 0,0 km/h (0 Bft) W-SW 257 ° 0 min 0,000 mm 2,9 UV-I 334 W/m² 11,5 °C 15,9 °C 0,0 km/h (0 Bft)
12.09.2019 10:17 16,0 °C 74 % 1029,3 hPa 0,0 mm 0,0 km/h (0 Bft) W-SW 257 ° 0 min 0,000 mm 2,8 UV-I 482 W/m² 11,4 °C 16,0 °C 0,0 km/h (0 Bft)
12.09.2019 10:18 16,1 °C 75 % 1029,3 hPa 0,0 mm 0,0 km/h (0 Bft) W-SW 258 ° 0 min 0,000 mm 2,4 UV-I 482 W/m² 11,7 °C 16,1 °C 0,0 km/h (0 Bft)
12.09.2019 10:19 16,1 °C 76 % 1029,3 hPa 0,0 mm 0,0 km/h (0 Bft) W-SW 258 ° 0 min 0,000 mm 2,2 UV-I 232 W/m² 11,9 °C 16,1 °C 0,0 km/h (0 Bft)
12.09.2019 10:20 16,1 °C 78 % 1029,4 hPa 0,0 mm 0,0 km/h (0 Bft) W-SW 258 ° 0 min 0,000 mm 2,8 UV-I 272 W/m² 12,3 °C 16,1 °C 0,0 km/h (0 Bft)
12.09.2019 10:21 16,2 °C 77 % 1029,4 hPa 0,0 mm 0,0 km/h (0 Bft) W-SW 258 ° 0 min 0,000 mm 3,4 UV-I 272 W/m² 12,2 °C 16,2 °C 0,0 km/h (0 Bft)
12.09.2019 10:22 16,3 °C 75 % 1029,4 hPa 0,0 mm 0,0 km/h (0 Bft) W-SW 258 ° 0 min 0,000 mm 3,3 UV-I 568 W/m² 11,9 °C 16,3 °C 0,0 km/h (0 Bft)
12.09.2019 10:23 16,3 °C 73 % 1029,4 hPa 0,0 mm 0,0 km/h (0 Bft) W-SW 258 ° 0 min 0,000 mm 2,6 UV-I 290 W/m² 11,4 °C 16,3 °C 0,0 km/h (0 Bft)
12.09.2019 10:24 16,3 °C 74 % 1029,4 hPa 0,0 mm 0,0 km/h (0 Bft) W-SW 258 ° 0 min 0,000 mm 3,0 UV-I 374 W/m² 11,7 °C 16,3 °C 0,0 km/h (0 Bft)
12.09.2019 10:25 16,3 °C 75 % 1029,5 hPa 0,0 mm 0,0 km/h (0 Bft) W-SW 258 ° 0 min 0,000 mm 2,5 UV-I 388 W/m² 11,9 °C 16,3 °C 0,0 km/h (0 Bft)
12.09.2019 10:26 16,3 °C 75 % 1029,4 hPa 0,0 mm 0,0 km/h (0 Bft) W-SW 258 ° 0 min 0,000 mm 3,5 UV-I 468 W/m² 11,9 °C 16,3 °C 0,0 km/h (0 Bft)
12.09.2019 10:27 16,4 °C 74 % 1029,4 hPa 0,0 mm 0,0 km/h (0 Bft) W-SW 258 ° 0 min 0,000 mm 3,7 UV-I 468 W/m² 11,8 °C 16,4 °C 0,0 km/h (0 Bft)
12.09.2019 10:28 16,4 °C 77 % 1029,4 hPa 0,0 mm 0,0 km/h (0 Bft) W-SW 258 ° 0 min 0,000 mm 3,4 UV-I 496 W/m² 12,4 °C 16,4 °C 0,0 km/h (0 Bft)
12.09.2019 10:29 16,6 °C 80 % 1029,5 hPa 0,0 mm 0,0 km/h (0 Bft) W-SW 258 ° 0 min 0,000 mm 3,7 UV-I 496 W/m² 13,1 °C 16,6 °C 0,0 km/h (0 Bft)
12.09.2019 10:30 16,8 °C 79 % 1029,5 hPa 0,0 mm 0,0 km/h (0 Bft) W-SW 258 ° 1 min 0,000 mm 3,7 UV-I 649 W/m² 13,1 °C 16,8 °C 0,0 km/h (0 Bft)
12.09.2019 10:31 17,0 °C 77 % 1029,4 hPa 0,0 mm 0,0 km/h (0 Bft) W-SW 258 ° 1 min 0,000 mm 3,8 UV-I 622 W/m² 12,9 °C 17,0 °C 0,0 km/h (0 Bft)
12.09.2019 10:32 17,1 °C 74 % 1029,4 hPa 0,0 mm 0,1 km/h (0 Bft) N 355 ° 1 min 0,000 mm 3,9 UV-I 663 W/m² 12,4 °C 17,1 °C 1,6 km/h (1 Bft)
12.09.2019 10:33 17,2 °C 73 % 1029,5 hPa 0,0 mm 4,8 km/h (1 Bft) N-NW 338 ° 1 min 0,000 mm 3,8 UV-I 626 W/m² 12,3 °C 17,2 °C 6,4 km/h (2 Bft)
12.09.2019 10:34 17,3 °C 74 % 1029,5 hPa 0,0 mm 3,1 km/h (1 Bft) N-NW 338 ° 1 min 0,000 mm 3,8 UV-I 679 W/m² 12,6 °C 17,3 °C 4,8 km/h (1 Bft)
12.09.2019 10:35 17,3 °C 71 % 1029,4 hPa 0,0 mm 1,9 km/h (1 Bft) N-NW 338 ° 1 min 0,000 mm 4,0 UV-I 728 W/m² 12,0 °C 17,3 °C 4,8 km/h (1 Bft)
12.09.2019 10:36 17,3 °C 68 % 1029,4 hPa 0,0 mm 1,8 km/h (1 Bft) N 355 ° 1 min 0,000 mm 3,8 UV-I 633 W/m² 11,3 °C 17,3 °C 4,8 km/h (1 Bft)
12.09.2019 10:37 17,2 °C 68 % 1029,4 hPa 0,0 mm 0,5 km/h (0 Bft) N 355 ° 0 min 0,000 mm 3,3 UV-I 589 W/m² 11,2 °C 17,2 °C 1,6 km/h (1 Bft)
12.09.2019 10:38 17,1 °C 69 % 1029,4 hPa 0,0 mm 1,3 km/h (1 Bft) W 274 ° 1 min 0,000 mm 3,7 UV-I 635 W/m² 11,4 °C 17,1 °C 4,8 km/h (1 Bft)
12.09.2019 10:39 17,0 °C 73 % 1029,4 hPa 0,0 mm 0,6 km/h (0 Bft) W 274 ° 0 min 0,000 mm 3,3 UV-I 559 W/m² 12,1 °C 17,0 °C 4,8 km/h (1 Bft)
12.09.2019 10:40 16,9 °C 73 % 1029,4 hPa 0,0 mm 0,0 km/h (0 Bft) W 273 ° 0 min 0,000 mm 3,1 UV-I 445 W/m² 12,0 °C 16,9 °C 0,0 km/h (0 Bft)
12.09.2019 10:41 16,8 °C 73 % 1029,4 hPa 0,0 mm 0,0 km/h (0 Bft) W 273 ° 0 min 0,000 mm 3,8 UV-I 445 W/m² 11,9 °C 16,8 °C 0,0 km/h (0 Bft)
12.09.2019 10:42 16,8 °C 69 % 1029,5 hPa 0,0 mm 1,0 km/h (0 Bft) W 274 ° 0 min 0,000 mm 3,1 UV-I 445 W/m² 11,1 °C 16,8 °C 3,2 km/h (1 Bft)
12.09.2019 10:43 16,8 °C 74 % 1029,4 hPa 0,0 mm 3,0 km/h (1 Bft) W 278 ° 0 min 0,000 mm 3,4 UV-I 445 W/m² 12,1 °C 16,8 °C 4,8 km/h (1 Bft)
12.09.2019 10:44 16,7 °C 77 % 1029,4 hPa 0,0 mm 2,0 km/h (1 Bft) W 278 ° 0 min 0,000 mm 4,0 UV-I 445 W/m² 12,6 °C 16,7 °C 3,2 km/h (1 Bft)
12.09.2019 10:45 16,8 °C 77 % 1029,5 hPa 0,0 mm 0,2 km/h (0 Bft) W 277 ° 1 min 0,000 mm 3,7 UV-I 629 W/m² 12,7 °C 16,8 °C 1,6 km/h (1 Bft)
12.09.2019 10:46 16,8 °C 70 % 1029,4 hPa 0,0 mm 0,8 km/h (0 Bft) W 277 ° 0 min 0,000 mm 3,0 UV-I 276 W/m² 11,3 °C 16,8 °C 1,6 km/h (1 Bft)
12.09.2019 10:47 16,7 °C 71 % 1029,4 hPa 0,0 mm 0,1 km/h (0 Bft) W 277 ° 0 min 0,000 mm 3,0 UV-I 313 W/m² 11,4 °C 16,7 °C 1,6 km/h (1 Bft)
12.09.2019 10:48 16,6 °C 73 % 1029,4 hPa 0,0 mm 0,0 km/h (0 Bft) W 277 ° 0 min 0,000 mm 3,0 UV-I 318 W/m² 11,7 °C 16,6 °C 0,0 km/h (0 Bft)
12.09.2019 10:49 16,6 °C 77 % 1029,4 hPa 0,0 mm 0,3 km/h (0 Bft) W 277 ° 0 min 0,000 mm 3,4 UV-I 318 W/m² 12,5 °C 16,6 °C 1,6 km/h (1 Bft)
12.09.2019 10:50 16,8 °C 77 % 1029,5 hPa 0,0 mm 3,4 km/h (1 Bft) N-NO 26 ° 0 min 0,000 mm 3,7 UV-I 318 W/m² 12,7 °C 16,8 °C 4,8 km/h (1 Bft)
12.09.2019 10:51 16,8 °C 75 % 1029,5 hPa 0,0 mm 4,7 km/h (1 Bft) N-NO 19 ° 0 min 0,000 mm 3,4 UV-I 359 W/m² 12,3 °C 16,8 °C 4,8 km/h (1 Bft)
12.09.2019 10:52 16,8 °C 72 % 1029,5 hPa 0,0 mm 3,4 km/h (1 Bft) NW 325 ° 0 min 0,000 mm 3,3 UV-I 359 W/m² 11,7 °C 16,8 °C 4,8 km/h (1 Bft)
12.09.2019 10:53 16,9 °C 72 % 1029,5 hPa 0,0 mm 0,4 km/h (0 Bft) N-NW 327 ° 1 min 0,000 mm 4,0 UV-I 689 W/m² 11,8 °C 16,9 °C 1,6 km/h (1 Bft)
12.09.2019 10:54 17,0 °C 73 % 1029,4 hPa 0,0 mm 1,4 km/h (1 Bft) N 349 ° 1 min 0,000 mm 3,8 UV-I 643 W/m² 12,1 °C 17,0 °C 4,8 km/h (1 Bft)
12.09.2019 10:55 17,0 °C 70 % 1029,5 hPa 0,0 mm 3,0 km/h (1 Bft) N 350 ° 1 min 0,000 mm 3,4 UV-I 643 W/m² 11,5 °C 17,0 °C 4,8 km/h (1 Bft)
12.09.2019 10:56 17,0 °C 70 % 1029,5 hPa 0,0 mm 1,6 km/h (1 Bft) N 350 ° 1 min 0,000 mm 2,7 UV-I 643 W/m² 11,5 °C 17,0 °C 3,2 km/h (1 Bft)
12.09.2019 10:57 16,9 °C 70 % 1029,5 hPa 0,0 mm 2,0 km/h (1 Bft) N-NW 340 ° 0 min 0,000 mm 3,1 UV-I 403 W/m² 11,4 °C 16,9 °C 4,8 km/h (1 Bft)
12.09.2019 10:58 16,9 °C 71 % 1029,5 hPa 0,0 mm 3,8 km/h (1 Bft) NW 325 ° 0 min 0,000 mm 3,2 UV-I 322 W/m² 11,6 °C 16,9 °C 6,4 km/h (2 Bft)
12.09.2019 10:59 17,0 °C 72 % 1029,5 hPa 0,0 mm 4,6 km/h (1 Bft) NW 319 ° 0 min 0,000 mm 3,3 UV-I 322 W/m² 11,9 °C 17,0 °C 6,4 km/h (2 Bft)
12.09.2019 11:00 17,1 °C 71 % 1029,5 hPa 0,0 mm 1,8 km/h (1 Bft) NW 319 ° 0 min 0,000 mm 3,3 UV-I 390 W/m² 11,8 °C 17,1 °C 3,2 km/h (1 Bft)
12.09.2019 11:01 17,1 °C 71 % 1029,5 hPa 0,0 mm 0,3 km/h (0 Bft) NW 319 ° 0 min 0,228 mm 3,0 UV-I 378 W/m² 11,8 °C 17,1 °C 1,6 km/h (1 Bft)
12.09.2019 11:02 17,1 °C 71 % 1029,5 hPa 0,0 mm 0,2 km/h (0 Bft) NW 319 ° 0 min 0,000 mm 4,0 UV-I 378 W/m² 11,8 °C 17,1 °C 1,6 km/h (1 Bft)
12.09.2019 11:03 17,1 °C 72 % 1029,5 hPa 0,2 mm 0,3 km/h (0 Bft) NW 319 ° 0 min 0,000 mm 4,0 UV-I 489 W/m² 12,0 °C 17,1 °C 1,6 km/h (1 Bft)
12.09.2019 11:04 17,1 °C 73 % 1029,5 hPa 0,0 mm 0,0 km/h (0 Bft) NW 319 ° 0 min 0,000 mm 3,2 UV-I 408 W/m² 12,2 °C 17,1 °C 0,0 km/h (0 Bft)
12.09.2019 11:05 17,1 °C 70 % 1029,5 hPa 0,0 mm 0,0 km/h (0 Bft) NW 319 ° 0 min 0,000 mm 3,4 UV-I 408 W/m² 11,6 °C 17,1 °C 0,0 km/h (0 Bft)
12.09.2019 11:06 17,0 °C 71 % 1029,5 hPa 0,0 mm 0,4 km/h (0 Bft) NW 319 ° 0 min 0,000 mm 3,5 UV-I 468 W/m² 11,7 °C 17,0 °C 1,6 km/h (1 Bft)
12.09.2019 11:07 16,9 °C 71 % 1029,6 hPa 0,0 mm 3,0 km/h (1 Bft) O 94 ° 0 min 0,000 mm 3,9 UV-I 468 W/m² 11,6 °C 16,9 °C 4,8 km/h (1 Bft)
12.09.2019 11:08 16,9 °C 70 % 1029,5 hPa 0,0 mm 1,4 km/h (1 Bft) O 94 ° 0 min 0,000 mm 3,9 UV-I 468 W/m² 11,4 °C 16,9 °C 3,2 km/h (1 Bft)
12.09.2019 11:09 16,9 °C 71 % 1029,6 hPa 0,0 mm 0,0 km/h (0 Bft) O 94 ° 0 min 0,000 mm 3,5 UV-I 468 W/m² 11,6 °C 16,9 °C 0,0 km/h (0 Bft)
12.09.2019 11:10 16,9 °C 70 % 1029,5 hPa 0,0 mm 1,8 km/h (1 Bft) NO 43 ° 0 min 0,000 mm 3,3 UV-I 431 W/m² 11,4 °C 16,9 °C 3,2 km/h (1 Bft)
12.09.2019 11:11 17,0 °C 70 % 1029,5 hPa 0,0 mm 1,1 km/h (1 Bft) N 355 ° 0 min 0,000 mm 3,0 UV-I 322 W/m² 11,5 °C 17,0 °C 3,2 km/h (1 Bft)
12.09.2019 11:12 17,2 °C 75 % 1029,5 hPa 0,0 mm 0,2 km/h (0 Bft) N 355 ° 0 min 0,000 mm 3,4 UV-I 322 W/m² 12,7 °C 17,2 °C 1,6 km/h (1 Bft)
12.09.2019 11:13 17,3 °C 72 % 1029,6 hPa 0,0 mm 2,6 km/h (1 Bft) N 355 ° 0 min 0,000 mm 3,6 UV-I 322 W/m² 12,2 °C 17,3 °C 4,8 km/h (1 Bft)
12.09.2019 11:14 17,3 °C 73 % 1029,5 hPa 0,0 mm 1,7 km/h (1 Bft) N 355 ° 0 min 0,000 mm 3,4 UV-I 322 W/m² 12,4 °C 17,3 °C 3,2 km/h (1 Bft)
12.09.2019 11:15 17,3 °C 69 % 1029,6 hPa 0,0 mm 1,1 km/h (1 Bft) N 355 ° 0 min 0,000 mm 3,0 UV-I 304 W/m² 11,6 °C 17,3 °C 3,2 km/h (1 Bft)
12.09.2019 11:16 17,3 °C 68 % 1029,6 hPa 0,0 mm 3,7 km/h (1 Bft) S 190 ° 0 min 0,000 mm 2,9 UV-I 292 W/m² 11,3 °C 17,3 °C 4,8 km/h (1 Bft)
12.09.2019 11:17 17,2 °C 68 % 1029,6 hPa 0,0 mm 3,4 km/h (1 Bft) S 190 ° 0 min 0,000 mm 3,2 UV-I 290 W/m² 11,2 °C 17,2 °C 4,8 km/h (1 Bft)
12.09.2019 11:18 17,2 °C 70 % 1029,7 hPa 0,0 mm 2,1 km/h (1 Bft) S 190 ° 0 min 0,000 mm 3,3 UV-I 316 W/m² 11,7 °C 17,2 °C 3,2 km/h (1 Bft)
12.09.2019 11:19 17,2 °C 72 % 1029,7 hPa 0,0 mm 0,8 km/h (0 Bft) S 190 ° 0 min 0,000 mm 4,2 UV-I 316 W/m² 12,1 °C 17,2 °C 1,6 km/h (1 Bft)
12.09.2019 11:20 17,3 °C 71 % 1029,7 hPa 0,0 mm 0,0 km/h (0 Bft) S 190 ° 1 min 0,000 mm 4,9 UV-I 726 W/m² 12,0 °C 17,3 °C 0,0 km/h (0 Bft)
12.09.2019 11:21 17,5 °C 76 % 1029,7 hPa 0,0 mm 0,0 km/h (0 Bft) S 190 ° 0 min 0,000 mm 3,8 UV-I 506 W/m² 13,2 °C 17,5 °C 0,0 km/h (0 Bft)
12.09.2019 11:22 17,6 °C 73 % 1029,7 hPa 0,0 mm 0,0 km/h (0 Bft) S 191 ° 0 min 0,000 mm 3,1 UV-I 506 W/m² 12,7 °C 17,6 °C 0,0 km/h (0 Bft)
12.09.2019 11:23 17,6 °C 70 % 1029,8 hPa 0,0 mm 0,8 km/h (0 Bft) NW 304 ° 0 min 0,000 mm 4,0 UV-I 316 W/m² 12,1 °C 17,6 °C 4,8 km/h (1 Bft)
12.09.2019 11:24 17,6 °C 72 % 1029,7 hPa 0,0 mm 4,2 km/h (1 Bft) W-SW 246 ° 0 min 0,000 mm 4,1 UV-I 316 W/m² 12,5 °C 17,6 °C 6,4 km/h (2 Bft)
12.09.2019 11:25 17,6 °C 70 % 1029,7 hPa 0,0 mm 5,5 km/h (1 Bft) W-SW 249 ° 0 min 0,000 mm 4,9 UV-I 316 W/m² 12,1 °C 17,6 °C 8,0 km/h (2 Bft)
12.09.2019 11:26 17,7 °C 72 % 1029,7 hPa 0,0 mm 3,6 km/h (1 Bft) W-SW 249 ° 1 min 0,000 mm 4,5 UV-I 710 W/m² 12,6 °C 17,7 °C 4,8 km/h (1 Bft)
12.09.2019 11:27 17,8 °C 73 % 1029,7 hPa 0,0 mm 1,4 km/h (1 Bft) W-SW 249 ° 1 min 0,000 mm 4,8 UV-I 717 W/m² 12,9 °C 17,8 °C 3,2 km/h (1 Bft)
12.09.2019 11:28 17,8 °C 70 % 1029,8 hPa 0,0 mm 0,0 km/h (0 Bft) W-SW 249 ° 1 min 0,000 mm 2,8 UV-I 717 W/m² 12,3 °C 17,8 °C 0,0 km/h (0 Bft)
12.09.2019 11:29 17,6 °C 70 % 1029,7 hPa 0,0 mm 1,0 km/h (0 Bft) SW 230 ° 1 min 0,000 mm 3,0 UV-I 717 W/m² 12,1 °C 17,6 °C 4,8 km/h (1 Bft)
12.09.2019 11:30 17,3 °C 70 % 1029,8 hPa 0,0 mm 3,4 km/h (1 Bft) O 91 ° 1 min 0,000 mm 4,4 UV-I 717 W/m² 11,8 °C 17,3 °C 4,8 km/h (1 Bft)
12.09.2019 11:31 17,2 °C 72 % 1029,8 hPa 0,0 mm 3,8 km/h (1 Bft) O-NO 71 ° 1 min 0,000 mm 4,6 UV-I 677 W/m² 12,1 °C 17,2 °C 4,8 km/h (1 Bft)
12.09.2019 11:32 17,2 °C 72 % 1029,8 hPa 0,0 mm 2,6 km/h (1 Bft) O-NO 70 ° 1 min 0,000 mm 4,4 UV-I 647 W/m² 12,1 °C 17,2 °C 4,8 km/h (1 Bft)
12.09.2019 11:33 17,3 °C 72 % 1029,8 hPa 0,0 mm 2,2 km/h (1 Bft) O-NO 70 ° 0 min 0,000 mm 4,7 UV-I 592 W/m² 12,2 °C 17,3 °C 6,4 km/h (2 Bft)
12.09.2019 11:34 17,5 °C 73 % 1029,8 hPa 0,0 mm 6,0 km/h (2 Bft) O-NO 58 ° 1 min 0,000 mm 4,9 UV-I 703 W/m² 12,6 °C 17,5 °C 8,0 km/h (2 Bft)
12.09.2019 11:35 17,6 °C 72 % 1029,7 hPa 0,0 mm 1,3 km/h (1 Bft) O-NO 59 ° 1 min 0,000 mm 4,0 UV-I 780 W/m² 12,5 °C 17,6 °C 3,2 km/h (1 Bft)
12.09.2019 11:36 17,7 °C 72 % 1029,7 hPa 0,0 mm 3,5 km/h (1 Bft) O-NO 66 ° 1 min 0,000 mm 2,9 UV-I 780 W/m² 12,6 °C 17,7 °C 8,0 km/h (2 Bft)
12.09.2019 11:37 17,7 °C 68 % 1029,7 hPa 0,0 mm 5,2 km/h (1 Bft) O-NO 61 ° 1 min 0,000 mm 4,5 UV-I 780 W/m² 11,7 °C 17,7 °C 8,0 km/h (2 Bft)
12.09.2019 11:38 17,7 °C 68 % 1029,7 hPa 0,0 mm 3,4 km/h (1 Bft) O-NO 61 ° 1 min 0,000 mm 5,0 UV-I 784 W/m² 11,7 °C 17,7 °C 4,8 km/h (1 Bft)
12.09.2019 11:39 17,7 °C 68 % 1029,7 hPa 0,0 mm 2,3 km/h (1 Bft) NW 305 ° 1 min 0,000 mm 3,0 UV-I 784 W/m² 11,7 °C 17,7 °C 4,8 km/h (1 Bft)
12.09.2019 11:40 17,9 °C 70 % 1029,7 hPa 0,0 mm 2,6 km/h (1 Bft) N-NW 334 ° 1 min 0,000 mm 4,4 UV-I 802 W/m² 12,3 °C 17,9 °C 4,8 km/h (1 Bft)
12.09.2019 11:41 18,1 °C 71 % 1029,7 hPa 0,0 mm 4,6 km/h (1 Bft) NW 321 ° 1 min 0,000 mm 5,2 UV-I 731 W/m² 12,8 °C 18,1 °C 6,4 km/h (2 Bft)
12.09.2019 11:42 18,2 °C 67 % 1029,8 hPa 0,0 mm 5,5 km/h (1 Bft) NW 325 ° 1 min 0,000 mm 5,3 UV-I 828 W/m² 12,0 °C 18,2 °C 8,0 km/h (2 Bft)
12.09.2019 11:43 18,3 °C 69 % 1029,8 hPa 0,0 mm 4,9 km/h (1 Bft) N-NW 329 ° 1 min 0,000 mm 5,3 UV-I 833 W/m² 12,5 °C 18,3 °C 6,4 km/h (2 Bft)
12.09.2019 11:44 18,4 °C 68 % 1029,7 hPa 0,0 mm 4,2 km/h (1 Bft) W-NW 287 ° 1 min 0,000 mm 5,3 UV-I 782 W/m² 12,4 °C 18,4 °C 6,4 km/h (2 Bft)
12.09.2019 11:45 18,6 °C 68 % 1029,7 hPa 0,0 mm 4,6 km/h (1 Bft) W 260 ° 1 min 0,000 mm 5,1 UV-I 768 W/m² 12,6 °C 18,6 °C 6,4 km/h (2 Bft)
12.09.2019 11:46 18,5 °C 67 % 1029,8 hPa 0,0 mm 2,5 km/h (1 Bft) W-SW 257 ° 1 min 0,000 mm 3,4 UV-I 768 W/m² 12,3 °C 18,5 °C 3,2 km/h (1 Bft)
12.09.2019 11:47 18,4 °C 65 % 1029,7 hPa 0,0 mm 3,4 km/h (1 Bft) W 259 ° 1 min 0,000 mm 5,4 UV-I 768 W/m² 11,7 °C 18,4 °C 4,8 km/h (1 Bft)
12.09.2019 11:48 18,2 °C 67 % 1029,7 hPa 0,0 mm 0,1 km/h (0 Bft) W-SW 258 ° 1 min 0,000 mm 5,3 UV-I 851 W/m² 12,0 °C 18,2 °C 1,6 km/h (1 Bft)
12.09.2019 11:49 18,2 °C 65 % 1029,7 hPa 0,0 mm 3,1 km/h (1 Bft) S 177 ° 1 min 0,000 mm 3,5 UV-I 851 W/m² 11,5 °C 18,2 °C 4,8 km/h (1 Bft)
12.09.2019 11:50 18,1 °C 68 % 1029,7 hPa 0,0 mm 1,5 km/h (1 Bft) S 177 ° 0 min 0,000 mm 4,1 UV-I 408 W/m² 12,1 °C 18,1 °C 3,2 km/h (1 Bft)
12.09.2019 11:51 17,9 °C 70 % 1029,7 hPa 0,0 mm 1,1 km/h (1 Bft) SW 217 ° 0 min 0,000 mm 3,5 UV-I 269 W/m² 12,3 °C 17,9 °C 3,2 km/h (1 Bft)
12.09.2019 11:52 18,0 °C 72 % 1029,8 hPa 0,0 mm 2,8 km/h (1 Bft) SW 219 ° 0 min 0,000 mm 5,2 UV-I 269 W/m² 12,9 °C 18,0 °C 4,8 km/h (1 Bft)
12.09.2019 11:53 18,1 °C 71 % 1029,7 hPa 0,0 mm 0,9 km/h (0 Bft) SW 219 ° 1 min 0,000 mm 5,2 UV-I 786 W/m² 12,8 °C 18,1 °C 3,2 km/h (1 Bft)
12.09.2019 11:54 18,2 °C 66 % 1029,7 hPa 0,0 mm 2,4 km/h (1 Bft) SW 219 ° 1 min 0,000 mm 3,3 UV-I 786 W/m² 11,7 °C 18,2 °C 4,8 km/h (1 Bft)
12.09.2019 11:55 18,1 °C 67 % 1029,6 hPa 0,0 mm 1,9 km/h (1 Bft) SW 219 ° 1 min 0,000 mm 5,3 UV-I 786 W/m² 11,9 °C 18,1 °C 3,2 km/h (1 Bft)
12.09.2019 11:56 17,9 °C 69 % 1029,6 hPa 0,0 mm 0,7 km/h (0 Bft) SW 219 ° 1 min 0,000 mm 3,1 UV-I 786 W/m² 12,1 °C 17,9 °C 1,6 km/h (1 Bft)
12.09.2019 11:57 17,7 °C 69 % 1029,6 hPa 0,0 mm 0,1 km/h (0 Bft) SW 219 ° 0 min 0,000 mm 2,7 UV-I 142 W/m² 11,9 °C 17,7 °C 1,6 km/h (1 Bft)
12.09.2019 11:58 17,7 °C 69 % 1029,6 hPa 0,0 mm 0,8 km/h (0 Bft) SW 221 ° 0 min 0,000 mm 5,1 UV-I 142 W/m² 11,9 °C 17,7 °C 3,2 km/h (1 Bft)
12.09.2019 11:59 17,7 °C 74 % 1029,6 hPa 0,0 mm 2,4 km/h (1 Bft) N 5 ° 1 min 0,000 mm 5,2 UV-I 775 W/m² 13,0 °C 17,7 °C 3,2 km/h (1 Bft)
12.09.2019 12:00 17,8 °C 71 % 1029,6 hPa 0,0 mm 6,0 km/h (2 Bft) N-NW 328 ° 1 min 0,305 mm 5,2 UV-I 773 W/m² 12,5 °C 17,8 °C 8,0 km/h (2 Bft)
12.09.2019 12:01 18,1 °C 71 % 1029,6 hPa 0,0 mm 6,0 km/h (2 Bft) NW 324 ° 1 min 0,000 mm 5,2 UV-I 775 W/m² 12,8 °C 18,1 °C 8,0 km/h (2 Bft)
12.09.2019 12:02 18,3 °C 68 % 1029,6 hPa 0,0 mm 2,3 km/h (1 Bft) NW 325 ° 1 min 0,000 mm 5,2 UV-I 768 W/m² 12,3 °C 18,3 °C 4,8 km/h (1 Bft)
12.09.2019 12:03 18,3 °C 68 % 1029,6 hPa 0,0 mm 2,6 km/h (1 Bft) NW 324 ° 1 min 0,000 mm 5,3 UV-I 765 W/m² 12,3 °C 18,3 °C 3,2 km/h (1 Bft)
12.09.2019 12:04 18,4 °C 67 % 1029,6 hPa 0,0 mm 0,5 km/h (0 Bft) NW 324 ° 1 min 0,000 mm 5,3 UV-I 773 W/m² 12,2 °C 18,4 °C 1,6 km/h (1 Bft)
12.09.2019 12:05 18,6 °C 69 % 1029,6 hPa 0,0 mm 0,8 km/h (0 Bft) W-NW 299 ° 1 min 0,000 mm 5,4 UV-I 784 W/m² 12,8 °C 18,6 °C 3,2 km/h (1 Bft)
12.09.2019 12:06 18,6 °C 67 % 1029,6 hPa 0,0 mm 1,3 km/h (1 Bft) W-NW 299 ° 1 min 0,000 mm 5,4 UV-I 789 W/m² 12,3 °C 18,6 °C 3,2 km/h (1 Bft)
12.09.2019 12:07 18,6 °C 70 % 1029,6 hPa 0,0 mm 0,3 km/h (0 Bft) W-NW 299 ° 1 min 0,000 mm 5,5 UV-I 816 W/m² 13,0 °C 18,6 °C 1,6 km/h (1 Bft)
12.09.2019 12:08 18,6 °C 71 % 1029,6 hPa 0,0 mm 1,9 km/h (1 Bft) O-NO 61 ° 1 min 0,000 mm 5,5 UV-I 819 W/m² 13,2 °C 18,6 °C 3,2 km/h (1 Bft)
12.09.2019 12:09 18,6 °C 75 % 1029,6 hPa 0,0 mm 3,8 km/h (1 Bft) O-NO 61 ° 1 min 0,000 mm 5,7 UV-I 856 W/m² 14,1 °C 18,6 °C 4,8 km/h (1 Bft)
12.09.2019 12:10 18,6 °C 69 % 1029,5 hPa 0,0 mm 3,0 km/h (1 Bft) O-NO 57 ° 1 min 0,000 mm 4,2 UV-I 856 W/m² 12,8 °C 18,6 °C 4,8 km/h (1 Bft)
12.09.2019 12:11 18,6 °C 70 % 1029,5 hPa 0,0 mm 4,3 km/h (1 Bft) N 351 ° 1 min 0,000 mm 3,5 UV-I 856 W/m² 13,0 °C 18,6 °C 6,4 km/h (2 Bft)
12.09.2019 12:12 18,6 °C 68 % 1029,6 hPa 0,0 mm 5,0 km/h (1 Bft) W-NW 290 ° 0 min 0,000 mm 5,4 UV-I 350 W/m² 12,6 °C 18,6 °C 6,4 km/h (2 Bft)
12.09.2019 12:13 18,6 °C 70 % 1029,6 hPa 0,0 mm 7,8 km/h (2 Bft) W 281 ° 0 min 0,000 mm 4,1 UV-I 350 W/m² 13,0 °C 18,6 °C 11,3 km/h (2 Bft)
12.09.2019 12:14 18,6 °C 66 % 1029,6 hPa 0,0 mm 2,6 km/h (1 Bft) W 281 ° 1 min 0,000 mm 5,5 UV-I 708 W/m² 12,1 °C 18,6 °C 4,8 km/h (1 Bft)
12.09.2019 12:15 18,6 °C 69 % 1029,6 hPa 0,0 mm 2,6 km/h (1 Bft) W 269 ° 1 min 0,000 mm 4,3 UV-I 647 W/m² 12,8 °C 18,6 °C 4,8 km/h (1 Bft)
12.09.2019 12:16 18,6 °C 68 % 1029,5 hPa 0,0 mm 3,1 km/h (1 Bft) N-NW 344 ° 1 min 0,000 mm 4,6 UV-I 647 W/m² 12,6 °C 18,6 °C 4,8 km/h (1 Bft)
12.09.2019 12:17 18,6 °C 69 % 1029,5 hPa 0,0 mm 3,8 km/h (1 Bft) N-NO 16 ° 0 min 0,000 mm 3,5 UV-I 315 W/m² 12,8 °C 18,6 °C 6,4 km/h (2 Bft)
12.09.2019 12:18 18,7 °C 68 % 1029,5 hPa 0,0 mm 1,6 km/h (1 Bft) N-NO 16 ° 0 min 0,000 mm 5,0 UV-I 315 W/m² 12,7 °C 18,7 °C 3,2 km/h (1 Bft)
12.09.2019 12:19 18,7 °C 70 % 1029,5 hPa 0,0 mm 4,9 km/h (1 Bft) N 5 ° 0 min 0,000 mm 3,8 UV-I 452 W/m² 13,1 °C 18,7 °C 6,4 km/h (2 Bft)
12.09.2019 12:20 18,9 °C 70 % 1029,5 hPa 0,0 mm 4,1 km/h (1 Bft) N-NO 12 ° 0 min 0,000 mm 5,6 UV-I 452 W/m² 13,3 °C 18,9 °C 6,4 km/h (2 Bft)
12.09.2019 12:21 18,9 °C 69 % 1029,5 hPa 0,0 mm 2,6 km/h (1 Bft) N-NO 15 ° 0 min 0,000 mm 5,0 UV-I 452 W/m² 13,1 °C 18,9 °C 3,2 km/h (1 Bft)
12.09.2019 12:22 19,1 °C 69 % 1029,4 hPa 0,0 mm 5,2 km/h (1 Bft) N-NW 338 ° 0 min 0,000 mm 3,6 UV-I 276 W/m² 13,3 °C 19,1 °C 9,7 km/h (2 Bft)
12.09.2019 12:23 19,0 °C 66 % 1029,5 hPa 0,0 mm 0,5 km/h (0 Bft) N-NW 338 ° 0 min 0,000 mm 4,9 UV-I 276 W/m² 12,5 °C 19,0 °C 3,2 km/h (1 Bft)
12.09.2019 12:24 18,9 °C 69 % 1029,5 hPa 0,0 mm 3,2 km/h (1 Bft) W 280 ° 0 min 0,000 mm 5,7 UV-I 276 W/m² 13,1 °C 18,9 °C 6,4 km/h (2 Bft)
12.09.2019 12:25 18,8 °C 68 % 1029,5 hPa 0,0 mm 3,6 km/h (1 Bft) N-NW 346 ° 0 min 0,000 mm 3,6 UV-I 276 W/m² 12,8 °C 18,8 °C 4,8 km/h (1 Bft)
12.09.2019 12:26 18,8 °C 67 % 1029,5 hPa 0,0 mm 4,8 km/h (1 Bft) NW 326 ° 1 min 0,000 mm 5,8 UV-I 861 W/m² 12,5 °C 18,8 °C 6,4 km/h (2 Bft)
12.09.2019 12:27 18,8 °C 69 % 1029,5 hPa 0,0 mm 5,1 km/h (1 Bft) NW 316 ° 1 min 0,000 mm 5,8 UV-I 856 W/m² 13,0 °C 18,8 °C 6,4 km/h (2 Bft)
12.09.2019 12:28 18,8 °C 67 % 1029,5 hPa 0,0 mm 3,5 km/h (1 Bft) NW 317 ° 1 min 0,000 mm 5,4 UV-I 800 W/m² 12,5 °C 18,8 °C 4,8 km/h (1 Bft)
12.09.2019 12:29 18,8 °C 68 % 1029,5 hPa 0,0 mm 0,9 km/h (0 Bft) N-NW 340 ° 1 min 0,000 mm 4,5 UV-I 800 W/m² 12,8 °C 18,8 °C 3,2 km/h (1 Bft)
12.09.2019 12:30 18,8 °C 66 % 1029,5 hPa 0,0 mm 1,2 km/h (1 Bft) N-NW 327 ° 1 min 0,000 mm 4,1 UV-I 800 W/m² 12,3 °C 18,8 °C 4,8 km/h (1 Bft)
12.09.2019 12:31 18,7 °C 67 % 1029,5 hPa 0,0 mm 3,0 km/h (1 Bft) N-NW 327 ° 1 min 0,000 mm 5,7 UV-I 800 W/m² 12,4 °C 18,7 °C 4,8 km/h (1 Bft)
12.09.2019 12:32 18,7 °C 66 % 1029,5 hPa 0,0 mm 6,0 km/h (2 Bft) NW 317 ° 0 min 0,000 mm 3,3 UV-I 279 W/m² 12,2 °C 18,7 °C 8,0 km/h (2 Bft)
12.09.2019 12:33 18,6 °C 66 % 1029,5 hPa 0,0 mm 4,2 km/h (1 Bft) N 355 ° 0 min 0,000 mm 3,3 UV-I 279 W/m² 12,1 °C 18,6 °C 6,4 km/h (2 Bft)
12.09.2019 12:34 18,6 °C 69 % 1029,5 hPa 0,0 mm 2,5 km/h (1 Bft) N 355 ° 1 min 0,000 mm 5,6 UV-I 789 W/m² 12,8 °C 18,6 °C 4,8 km/h (1 Bft)
12.09.2019 12:35 18,7 °C 69 % 1029,5 hPa 0,0 mm 0,0 km/h (0 Bft) N 355 ° 1 min 0,000 mm 3,2 UV-I 789 W/m² 12,9 °C 18,7 °C 0,0 km/h (0 Bft)
12.09.2019 12:36 18,7 °C 67 % 1029,6 hPa 0,0 mm 0,0 km/h (0 Bft) N 355 ° 1 min 0,000 mm 4,2 UV-I 789 W/m² 12,4 °C 18,7 °C 0,0 km/h (0 Bft)
12.09.2019 12:37 18,6 °C 68 % 1029,5 hPa 0,0 mm 0,0 km/h (0 Bft) N 355 ° 1 min 0,000 mm 4,9 UV-I 789 W/m² 12,6 °C 18,6 °C 0,0 km/h (0 Bft)
12.09.2019 12:38 18,6 °C 71 % 1029,5 hPa 0,0 mm 0,0 km/h (0 Bft) N 355 ° 1 min 0,000 mm 5,6 UV-I 789 W/m² 13,2 °C 18,6 °C 0,0 km/h (0 Bft)
12.09.2019 12:39 18,4 °C 69 % 1029,5 hPa 0,0 mm 1,3 km/h (1 Bft) NW 321 ° 1 min 0,000 mm 5,6 UV-I 816 W/m² 12,6 °C 18,4 °C 8,0 km/h (2 Bft)
12.09.2019 12:40 18,5 °C 68 % 1029,5 hPa 0,0 mm 4,3 km/h (1 Bft) N 355 ° 1 min 0,000 mm 5,6 UV-I 821 W/m² 12,5 °C 18,5 °C 8,0 km/h (2 Bft)
12.09.2019 12:41 18,6 °C 69 % 1029,5 hPa 0,0 mm 1,7 km/h (1 Bft) O-NO 74 ° 1 min 0,000 mm 5,7 UV-I 809 W/m² 12,8 °C 18,6 °C 4,8 km/h (1 Bft)
12.09.2019 12:42 18,7 °C 70 % 1029,5 hPa 0,0 mm 4,0 km/h (1 Bft) O-NO 72 ° 1 min 0,000 mm 4,2 UV-I 809 W/m² 13,1 °C 18,7 °C 4,8 km/h (1 Bft)
12.09.2019 12:43 18,7 °C 69 % 1029,5 hPa 0,0 mm 6,4 km/h (2 Bft) N-NO 21 ° 0 min 0,000 mm 2,8 UV-I 160 W/m² 12,9 °C 18,7 °C 11,3 km/h (2 Bft)
12.09.2019 12:44 18,7 °C 66 % 1029,6 hPa 0,0 mm 2,8 km/h (1 Bft) N-NO 18 ° 0 min 0,000 mm 3,0 UV-I 176 W/m² 12,2 °C 18,7 °C 8,0 km/h (2 Bft)
12.09.2019 12:45 18,6 °C 66 % 1029,6 hPa 0,0 mm 2,3 km/h (1 Bft) N-NO 18 ° 0 min 0,000 mm 3,7 UV-I 271 W/m² 12,1 °C 18,6 °C 4,8 km/h (1 Bft)
12.09.2019 12:46 18,6 °C 66 % 1029,6 hPa 0,0 mm 2,7 km/h (1 Bft) N-NO 18 ° 0 min 0,000 mm 5,7 UV-I 271 W/m² 12,1 °C 18,6 °C 3,2 km/h (1 Bft)
12.09.2019 12:47 18,5 °C 67 % 1029,6 hPa 0,0 mm 3,0 km/h (1 Bft) N-NW 332 ° 1 min 0,000 mm 5,6 UV-I 809 W/m² 12,3 °C 18,5 °C 6,4 km/h (2 Bft)
12.09.2019 12:48 18,6 °C 70 % 1029,6 hPa 0,0 mm 4,3 km/h (1 Bft) NW 317 ° 1 min 0,000 mm 5,5 UV-I 800 W/m² 13,0 °C 18,6 °C 6,4 km/h (2 Bft)
12.09.2019 12:49 18,7 °C 67 % 1029,6 hPa 0,0 mm 3,8 km/h (1 Bft) NW 319 ° 1 min 0,000 mm 5,5 UV-I 786 W/m² 12,4 °C 18,7 °C 6,4 km/h (2 Bft)
12.09.2019 12:50 18,8 °C 68 % 1029,5 hPa 0,0 mm 3,0 km/h (1 Bft) W-NW 287 ° 1 min 0,000 mm 5,5 UV-I 784 W/m² 12,8 °C 18,8 °C 4,8 km/h (1 Bft)
12.09.2019 12:51 18,7 °C 68 % 1029,5 hPa 0,0 mm 3,5 km/h (1 Bft) W-NW 288 ° 1 min 0,000 mm 5,5 UV-I 784 W/m² 12,7 °C 18,7 °C 4,8 km/h (1 Bft)
12.09.2019 12:52 18,8 °C 69 % 1029,5 hPa 0,0 mm 1,0 km/h (0 Bft) W-NW 288 ° 1 min 0,000 mm 5,6 UV-I 791 W/m² 13,0 °C 18,8 °C 3,2 km/h (1 Bft)
12.09.2019 12:53 18,8 °C 66 % 1029,6 hPa 0,0 mm 2,7 km/h (1 Bft) SO 130 ° 1 min 0,000 mm 5,4 UV-I 791 W/m² 12,3 °C 18,8 °C 4,8 km/h (1 Bft)
12.09.2019 12:54 18,8 °C 70 % 1029,6 hPa 0,0 mm 3,9 km/h (1 Bft) O-SO 120 ° 1 min 0,000 mm 4,2 UV-I 791 W/m² 13,2 °C 18,8 °C 4,8 km/h (1 Bft)
12.09.2019 12:55 18,6 °C 68 % 1029,5 hPa 0,0 mm 4,0 km/h (1 Bft) O-SO 120 ° 1 min 0,000 mm 5,6 UV-I 791 W/m² 12,6 °C 18,6 °C 6,4 km/h (2 Bft)
12.09.2019 12:56 18,6 °C 70 % 1029,5 hPa 0,0 mm 2,0 km/h (1 Bft) O-SO 123 ° 1 min 0,000 mm 5,0 UV-I 742 W/m² 13,0 °C 18,6 °C 4,8 km/h (1 Bft)
12.09.2019 12:57 18,6 °C 71 % 1029,5 hPa 0,0 mm 4,9 km/h (1 Bft) SO 126 ° 1 min 0,000 mm 4,3 UV-I 742 W/m² 13,2 °C 18,6 °C 6,4 km/h (2 Bft)
12.09.2019 12:58 18,5 °C 69 % 1029,5 hPa 0,0 mm 3,5 km/h (1 Bft) SO 135 ° 1 min 0,000 mm 5,8 UV-I 742 W/m² 12,7 °C 18,5 °C 4,8 km/h (1 Bft)
12.09.2019 12:59 18,4 °C 70 % 1029,5 hPa 0,0 mm 3,2 km/h (1 Bft) O-SO 120 ° 1 min 0,000 mm 5,8 UV-I 830 W/m² 12,8 °C 18,4 °C 6,4 km/h (2 Bft)
12.09.2019 13:00 18,4 °C 69 % 1029,5 hPa 0,0 mm 1,8 km/h (1 Bft) O-SO 117 ° 1 min 0,000 mm 5,8 UV-I 831 W/m² 12,6 °C 18,4 °C 4,8 km/h (1 Bft)
12.09.2019 13:01 18,5 °C 70 % 1029,5 hPa 0,0 mm 3,8 km/h (1 Bft) O-NO 65 ° 1 min 0,356 mm 5,8 UV-I 831 W/m² 12,9 °C 18,5 °C 6,4 km/h (2 Bft)
12.09.2019 13:02 18,6 °C 72 % 1029,5 hPa 0,0 mm 2,8 km/h (1 Bft) O-NO 65 ° 1 min 0,000 mm 5,5 UV-I 710 W/m² 13,4 °C 18,6 °C 4,8 km/h (1 Bft)
12.09.2019 13:03 18,6 °C 70 % 1029,4 hPa 0,0 mm 4,5 km/h (1 Bft) O-NO 66 ° 1 min 0,000 mm 3,9 UV-I 805 W/m² 13,0 °C 18,6 °C 6,4 km/h (2 Bft)
12.09.2019 13:04 18,7 °C 68 % 1029,5 hPa 0,0 mm 1,3 km/h (1 Bft) O-NO 67 ° 1 min 0,000 mm 5,6 UV-I 705 W/m² 12,7 °C 18,7 °C 3,2 km/h (1 Bft)
12.09.2019 13:05 18,8 °C 67 % 1029,5 hPa 0,0 mm 4,5 km/h (1 Bft) N 360 ° 1 min 0,000 mm 5,3 UV-I 705 W/m² 12,5 °C 18,8 °C 6,4 km/h (2 Bft)
12.09.2019 13:06 19,0 °C 70 % 1029,5 hPa 0,0 mm 4,5 km/h (1 Bft) N-NW 348 ° 1 min 0,000 mm 5,8 UV-I 842 W/m² 13,4 °C 19,0 °C 8,0 km/h (2 Bft)
12.09.2019 13:07 19,1 °C 67 % 1029,5 hPa 0,0 mm 2,3 km/h (1 Bft) NO 34 ° 1 min 0,000 mm 3,2 UV-I 842 W/m² 12,8 °C 19,1 °C 4,8 km/h (1 Bft)
12.09.2019 13:08 19,2 °C 70 % 1029,5 hPa 0,0 mm 5,3 km/h (1 Bft) N-NO 16 ° 1 min 0,000 mm 5,2 UV-I 842 W/m² 13,6 °C 19,2 °C 8,0 km/h (2 Bft)
12.09.2019 13:09 19,3 °C 67 % 1029,6 hPa 0,0 mm 4,0 km/h (1 Bft) N-NW 336 ° 1 min 0,000 mm 3,1 UV-I 842 W/m² 13,0 °C 19,3 °C 4,8 km/h (1 Bft)
12.09.2019 13:10 19,3 °C 66 % 1029,5 hPa 0,0 mm 1,9 km/h (1 Bft) N-NW 337 ° 1 min 0,000 mm 5,1 UV-I 842 W/m² 12,8 °C 19,3 °C 3,2 km/h (1 Bft)
12.09.2019 13:11 19,2 °C 65 % 1029,5 hPa 0,0 mm 4,0 km/h (1 Bft) NO 37 ° 1 min 0,000 mm 5,7 UV-I 812 W/m² 12,5 °C 19,2 °C 4,8 km/h (1 Bft)
12.09.2019 13:12 19,2 °C 66 % 1029,5 hPa 0,0 mm 1,9 km/h (1 Bft) NO 49 ° 1 min 0,000 mm 5,3 UV-I 807 W/m² 12,7 °C 19,2 °C 4,8 km/h (1 Bft)
12.09.2019 13:13 19,1 °C 65 % 1029,5 hPa 0,0 mm 0,0 km/h (0 Bft) NO 49 ° 1 min 0,000 mm 4,8 UV-I 807 W/m² 12,4 °C 19,1 °C 0,0 km/h (0 Bft)
12.09.2019 13:14 19,1 °C 67 % 1029,5 hPa 0,0 mm 3,9 km/h (1 Bft) O-NO 78 ° 1 min 0,000 mm 5,8 UV-I 833 W/m² 12,8 °C 19,1 °C 9,7 km/h (2 Bft)
12.09.2019 13:15 19,1 °C 67 % 1029,5 hPa 0,0 mm 7,0 km/h (2 Bft) O-SO 120 ° 1 min 0,000 mm 5,8 UV-I 847 W/m² 12,8 °C 19,1 °C 11,3 km/h (2 Bft)
12.09.2019 13:16 19,2 °C 68 % 1029,4 hPa 0,0 mm 7,0 km/h (2 Bft) S 175 ° 1 min 0,000 mm 5,7 UV-I 838 W/m² 13,1 °C 19,2 °C 9,7 km/h (2 Bft)
12.09.2019 13:17 19,3 °C 69 % 1029,4 hPa 0,0 mm 6,7 km/h (2 Bft) W 260 ° 1 min 0,000 mm 4,7 UV-I 838 W/m² 13,5 °C 19,3 °C 9,7 km/h (2 Bft)
12.09.2019 13:18 19,3 °C 67 % 1029,5 hPa 0,0 mm 3,3 km/h (1 Bft) W 273 ° 1 min 0,000 mm 5,8 UV-I 851 W/m² 13,0 °C 19,3 °C 6,4 km/h (2 Bft)
12.09.2019 13:19 19,4 °C 70 % 1029,5 hPa 0,0 mm 3,5 km/h (1 Bft) NW 313 ° 1 min 0,000 mm 5,8 UV-I 851 W/m² 13,8 °C 19,4 °C 4,8 km/h (1 Bft)
12.09.2019 13:20 19,4 °C 66 % 1029,5 hPa 0,0 mm 2,6 km/h (1 Bft) W-NW 298 ° 1 min 0,000 mm 5,2 UV-I 851 W/m² 12,9 °C 19,4 °C 6,4 km/h (2 Bft)
12.09.2019 13:21 19,5 °C 66 % 1029,5 hPa 0,0 mm 4,8 km/h (1 Bft) W 278 ° 1 min 0,000 mm 5,9 UV-I 851 W/m² 13,0 °C 19,5 °C 6,4 km/h (2 Bft)
12.09.2019 13:22 19,6 °C 65 % 1029,5 hPa 0,0 mm 3,4 km/h (1 Bft) W-NW 288 ° 1 min 0,000 mm 5,8 UV-I 842 W/m² 12,8 °C 19,6 °C 4,8 km/h (1 Bft)
12.09.2019 13:23 19,5 °C 65 % 1029,5 hPa 0,0 mm 4,4 km/h (1 Bft) W 268 ° 1 min 0,000 mm 5,0 UV-I 842 W/m² 12,7 °C 19,5 °C 6,4 km/h (2 Bft)
12.09.2019 13:24 19,4 °C 66 % 1029,5 hPa 0,0 mm 4,9 km/h (1 Bft) W 275 ° 1 min 0,000 mm 5,8 UV-I 840 W/m² 12,9 °C 19,4 °C 6,4 km/h (2 Bft)
12.09.2019 13:25 19,6 °C 70 % 1029,5 hPa 0,0 mm 7,6 km/h (2 Bft) W 276 ° 1 min 0,000 mm 3,5 UV-I 840 W/m² 14,0 °C 19,6 °C 11,3 km/h (2 Bft)
12.09.2019 13:26 19,6 °C 68 % 1029,5 hPa 0,0 mm 4,9 km/h (1 Bft) W-NW 284 ° 0 min 0,000 mm 3,7 UV-I 285 W/m² 13,5 °C 19,6 °C 6,4 km/h (2 Bft)
12.09.2019 13:27 19,4 °C 66 % 1029,5 hPa 0,0 mm 3,6 km/h (1 Bft) NW 322 ° 0 min 0,000 mm 5,9 UV-I 285 W/m² 12,9 °C 19,4 °C 4,8 km/h (1 Bft)
12.09.2019 13:28 19,3 °C 67 % 1029,5 hPa 0,0 mm 3,0 km/h (1 Bft) NW 311 ° 0 min 0,000 mm 4,9 UV-I 285 W/m² 13,0 °C 19,3 °C 4,8 km/h (1 Bft)
12.09.2019 13:29 19,3 °C 68 % 1029,5 hPa 0,0 mm 5,0 km/h (1 Bft) W-NW 288 ° 0 min 0,000 mm 5,6 UV-I 285 W/m² 13,2 °C 19,3 °C 8,0 km/h (2 Bft)
12.09.2019 13:30 19,3 °C 68 % 1029,5 hPa 0,0 mm 7,3 km/h (2 Bft) W-NW 288 ° 0 min 0,000 mm 3,1 UV-I 285 W/m² 13,2 °C 19,3 °C 11,3 km/h (2 Bft)
12.09.2019 13:31 19,3 °C 67 % 1029,5 hPa 0,0 mm 5,0 km/h (1 Bft) W-NW 294 ° 0 min 0,000 mm 5,8 UV-I 285 W/m² 13,0 °C 19,3 °C 8,0 km/h (2 Bft)
12.09.2019 13:32 19,2 °C 65 % 1029,5 hPa 0,0 mm 2,9 km/h (1 Bft) N 351 ° 1 min 0,000 mm 5,7 UV-I 800 W/m² 12,5 °C 19,2 °C 4,8 km/h (1 Bft)
12.09.2019 13:33 19,3 °C 68 % 1029,4 hPa 0,0 mm 4,4 km/h (1 Bft) N-NW 328 ° 1 min 0,000 mm 5,6 UV-I 796 W/m² 13,2 °C 19,3 °C 6,4 km/h (2 Bft)
12.09.2019 13:34 19,3 °C 65 % 1029,5 hPa 0,0 mm 3,5 km/h (1 Bft) W 281 ° 1 min 0,000 mm 5,6 UV-I 751 W/m² 12,6 °C 19,3 °C 4,8 km/h (1 Bft)
12.09.2019 13:35 19,3 °C 66 % 1029,5 hPa 0,0 mm 1,8 km/h (1 Bft) W 281 ° 1 min 0,000 mm 5,7 UV-I 800 W/m² 12,8 °C 19,3 °C 3,2 km/h (1 Bft)
12.09.2019 13:36 19,4 °C 68 % 1029,4 hPa 0,0 mm 1,5 km/h (1 Bft) W 281 ° 1 min 0,000 mm 5,5 UV-I 800 W/m² 13,3 °C 19,4 °C 4,8 km/h (1 Bft)
12.09.2019 13:37 19,4 °C 66 % 1029,5 hPa 0,0 mm 0,9 km/h (0 Bft) W 281 ° 1 min 0,000 mm 4,4 UV-I 800 W/m² 12,9 °C 19,4 °C 1,6 km/h (1 Bft)
12.09.2019 13:38 19,4 °C 67 % 1029,4 hPa 0,0 mm 0,0 km/h (0 Bft) W 281 ° 0 min 0,000 mm 4,1 UV-I 475 W/m² 13,1 °C 19,4 °C 0,0 km/h (0 Bft)
12.09.2019 13:39 19,3 °C 69 % 1029,4 hPa 0,0 mm 1,3 km/h (1 Bft) W 281 ° 0 min 0,000 mm 5,6 UV-I 475 W/m² 13,5 °C 19,3 °C 3,2 km/h (1 Bft)
12.09.2019 13:40 19,3 °C 68 % 1029,4 hPa 0,0 mm 1,0 km/h (0 Bft) W 281 ° 0 min 0,000 mm 4,6 UV-I 475 W/m² 13,2 °C 19,3 °C 1,6 km/h (1 Bft)
12.09.2019 13:41 19,3 °C 66 % 1029,5 hPa 0,0 mm 2,9 km/h (1 Bft) NW 306 ° 1 min 0,000 mm 5,4 UV-I 761 W/m² 12,8 °C 19,3 °C 4,8 km/h (1 Bft)
12.09.2019 13:42 19,5 °C 72 % 1029,4 hPa 0,0 mm 2,5 km/h (1 Bft) NW 325 ° 1 min 0,000 mm 5,4 UV-I 747 W/m² 14,3 °C 19,5 °C 8,0 km/h (2 Bft)
12.09.2019 13:43 19,6 °C 68 % 1029,4 hPa 0,0 mm 6,4 km/h (2 Bft) NW 313 ° 1 min 0,000 mm 5,4 UV-I 751 W/m² 13,5 °C 19,6 °C 9,7 km/h (2 Bft)
12.09.2019 13:44 19,7 °C 64 % 1029,4 hPa 0,0 mm 1,7 km/h (1 Bft) NW 313 ° 1 min 0,000 mm 5,4 UV-I 752 W/m² 12,7 °C 19,7 °C 3,2 km/h (1 Bft)
12.09.2019 13:45 19,6 °C 66 % 1029,4 hPa 0,0 mm 3,1 km/h (1 Bft) N 355 ° 1 min 0,000 mm 5,5 UV-I 763 W/m² 13,1 °C 19,6 °C 4,8 km/h (1 Bft)
12.09.2019 13:46 19,6 °C 63 % 1029,4 hPa 0,0 mm 1,5 km/h (1 Bft) N 5 ° 1 min 0,000 mm 5,6 UV-I 777 W/m² 12,4 °C 19,6 °C 4,8 km/h (1 Bft)
12.09.2019 13:47 19,6 °C 65 % 1029,4 hPa 0,0 mm 3,5 km/h (1 Bft) N 10 ° 1 min 0,000 mm 5,7 UV-I 671 W/m² 12,8 °C 19,6 °C 4,8 km/h (1 Bft)
12.09.2019 13:48 19,8 °C 66 % 1029,4 hPa 0,0 mm 3,1 km/h (1 Bft) N-NO 16 ° 1 min 0,000 mm 5,8 UV-I 671 W/m² 13,3 °C 19,8 °C 4,8 km/h (1 Bft)
12.09.2019 13:49 19,8 °C 69 % 1029,3 hPa 0,0 mm 2,8 km/h (1 Bft) NO 48 ° 1 min 0,000 mm 5,8 UV-I 770 W/m² 13,9 °C 19,8 °C 4,8 km/h (1 Bft)
12.09.2019 13:50 19,8 °C 64 % 1029,3 hPa 0,0 mm 3,4 km/h (1 Bft) O-NO 71 ° 1 min 0,000 mm 5,8 UV-I 842 W/m² 12,8 °C 19,8 °C 6,4 km/h (2 Bft)
12.09.2019 13:51 19,8 °C 67 % 1029,3 hPa 0,0 mm 4,5 km/h (1 Bft) O-NO 75 ° 1 min 0,000 mm 5,8 UV-I 758 W/m² 13,5 °C 19,8 °C 6,4 km/h (2 Bft)
12.09.2019 13:52 19,7 °C 63 % 1029,3 hPa 0,0 mm 2,9 km/h (1 Bft) O-NO 75 ° 1 min 0,000 mm 5,8 UV-I 826 W/m² 12,5 °C 19,7 °C 4,8 km/h (1 Bft)
12.09.2019 13:53 19,8 °C 63 % 1029,3 hPa 0,0 mm 2,6 km/h (1 Bft) O-NO 75 ° 1 min 0,000 mm 5,7 UV-I 819 W/m² 12,5 °C 19,8 °C 3,2 km/h (1 Bft)
12.09.2019 13:54 19,8 °C 62 % 1029,3 hPa 0,0 mm 0,8 km/h (0 Bft) O-NO 75 ° 1 min 0,000 mm 3,0 UV-I 803 W/m² 12,3 °C 19,8 °C 3,2 km/h (1 Bft)
12.09.2019 13:55 19,8 °C 66 % 1029,3 hPa 0,0 mm 1,9 km/h (1 Bft) O-NO 75 ° 1 min 0,000 mm 3,2 UV-I 803 W/m² 13,3 °C 19,8 °C 4,8 km/h (1 Bft)
12.09.2019 13:56 19,7 °C 63 % 1029,3 hPa 0,0 mm 4,4 km/h (1 Bft) W 271 ° 1 min 0,000 mm 4,3 UV-I 803 W/m² 12,5 °C 19,7 °C 6,4 km/h (2 Bft)
12.09.2019 13:57 19,7 °C 65 % 1029,3 hPa 0,0 mm 5,0 km/h (1 Bft) W-NW 285 ° 1 min 0,000 mm 5,6 UV-I 817 W/m² 12,9 °C 19,7 °C 6,4 km/h (2 Bft)
12.09.2019 13:58 19,7 °C 65 % 1029,3 hPa 0,0 mm 4,2 km/h (1 Bft) W-NW 285 ° 1 min 0,000 mm 5,6 UV-I 844 W/m² 12,9 °C 19,7 °C 6,4 km/h (2 Bft)
12.09.2019 13:59 19,8 °C 64 % 1029,3 hPa 0,0 mm 4,3 km/h (1 Bft) N-NW 328 ° 1 min 0,000 mm 5,6 UV-I 772 W/m² 12,8 °C 19,8 °C 6,4 km/h (2 Bft)
12.09.2019 14:00 19,8 °C 64 % 1029,3 hPa 0,0 mm 5,4 km/h (1 Bft) NW 322 ° 1 min 0,000 mm 5,7 UV-I 772 W/m² 12,8 °C 19,8 °C 8,0 km/h (2 Bft)
12.09.2019 14:01 19,9 °C 64 % 1029,3 hPa 0,0 mm 6,4 km/h (2 Bft) W-NW 302 ° 1 min 0,406 mm 5,8 UV-I 772 W/m² 12,9 °C 19,9 °C 11,3 km/h (2 Bft)
12.09.2019 14:02 19,9 °C 61 % 1029,4 hPa 0,0 mm 2,9 km/h (1 Bft) W-NW 302 ° 1 min 0,000 mm 5,7 UV-I 863 W/m² 12,2 °C 19,9 °C 6,4 km/h (2 Bft)
12.09.2019 14:03 19,9 °C 63 % 1029,4 hPa 0,0 mm 0,1 km/h (0 Bft) W-NW 302 ° 1 min 0,000 mm 5,6 UV-I 863 W/m² 12,6 °C 19,9 °C 1,6 km/h (1 Bft)
12.09.2019 14:04 19,9 °C 61 % 1029,4 hPa 0,0 mm 0,0 km/h (0 Bft) W-NW 302 ° 0 min 0,000 mm 3,2 UV-I 512 W/m² 12,2 °C 19,9 °C 0,0 km/h (0 Bft)
12.09.2019 14:05 19,8 °C 62 % 1029,4 hPa 0,0 mm 0,0 km/h (0 Bft) W-NW 302 ° 0 min 0,000 mm 3,4 UV-I 234 W/m² 12,3 °C 19,8 °C 0,0 km/h (0 Bft)
12.09.2019 14:06 19,8 °C 60 % 1029,4 hPa 0,0 mm 1,1 km/h (1 Bft) NW 317 ° 0 min 0,000 mm 3,6 UV-I 257 W/m² 11,8 °C 19,8 °C 4,8 km/h (1 Bft)
12.09.2019 14:07 19,7 °C 63 % 1029,4 hPa 0,0 mm 3,1 km/h (1 Bft) NW 319 ° 0 min 0,000 mm 4,6 UV-I 318 W/m² 12,5 °C 19,7 °C 4,8 km/h (1 Bft)
12.09.2019 14:08 19,7 °C 63 % 1029,4 hPa 0,0 mm 1,0 km/h (0 Bft) NW 319 ° 0 min 0,000 mm 4,1 UV-I 383 W/m² 12,5 °C 19,7 °C 3,2 km/h (1 Bft)
12.09.2019 14:09 19,7 °C 66 % 1029,3 hPa 0,0 mm 0,0 km/h (0 Bft) NW 319 ° 0 min 0,000 mm 4,7 UV-I 383 W/m² 13,2 °C 19,7 °C 0,0 km/h (0 Bft)
12.09.2019 14:10 19,7 °C 63 % 1029,3 hPa 0,0 mm 1,0 km/h (0 Bft) NW 319 ° 0 min 0,000 mm 3,7 UV-I 383 W/m² 12,5 °C 19,7 °C 3,2 km/h (1 Bft)
12.09.2019 14:11 19,7 °C 61 % 1029,4 hPa 0,0 mm 0,0 km/h (0 Bft) NW 319 ° 0 min 0,000 mm 4,8 UV-I 383 W/m² 12,0 °C 19,7 °C 0,0 km/h (0 Bft)
12.09.2019 14:12 19,7 °C 62 % 1029,3 hPa 0,0 mm 0,0 km/h (0 Bft) NW 319 ° 0 min 0,000 mm 3,1 UV-I 383 W/m² 12,2 °C 19,7 °C 0,0 km/h (0 Bft)
12.09.2019 14:13 19,6 °C 61 % 1029,3 hPa 0,0 mm 0,3 km/h (0 Bft) NW 314 ° 0 min 0,000 mm 5,2 UV-I 383 W/m² 11,9 °C 19,6 °C 1,6 km/h (1 Bft)
12.09.2019 14:14 19,4 °C 63 % 1029,3 hPa 0,0 mm 1,8 km/h (1 Bft) NW 314 ° 0 min 0,000 mm 3,5 UV-I 383 W/m² 12,2 °C 19,4 °C 3,2 km/h (1 Bft)
12.09.2019 14:15 19,3 °C 67 % 1029,3 hPa 0,0 mm 1,7 km/h (1 Bft) S-SO 149 ° 0 min 0,000 mm 5,4 UV-I 383 W/m² 13,0 °C 19,3 °C 3,2 km/h (1 Bft)
12.09.2019 14:16 19,3 °C 66 % 1029,3 hPa 0,0 mm 4,4 km/h (1 Bft) SO 134 ° 0 min 0,000 mm 5,5 UV-I 383 W/m² 12,8 °C 19,3 °C 6,4 km/h (2 Bft)
12.09.2019 14:17 19,2 °C 68 % 1029,3 hPa 0,0 mm 3,1 km/h (1 Bft) SO 134 ° 0 min 0,000 mm 5,6 UV-I 383 W/m² 13,1 °C 19,2 °C 4,8 km/h (1 Bft)
12.09.2019 14:18 19,1 °C 64 % 1029,3 hPa 0,0 mm 0,8 km/h (0 Bft) SO 134 ° 0 min 0,000 mm 4,2 UV-I 383 W/m² 12,1 °C 19,1 °C 3,2 km/h (1 Bft)
12.09.2019 14:19 19,1 °C 64 % 1029,3 hPa 0,0 mm 0,8 km/h (0 Bft) SO 134 ° 0 min 0,000 mm 5,6 UV-I 383 W/m² 12,1 °C 19,1 °C 1,6 km/h (1 Bft)
12.09.2019 14:20 19,2 °C 66 % 1029,3 hPa 0,0 mm 0,0 km/h (0 Bft) SO 134 ° 0 min 0,000 mm 5,3 UV-I 383 W/m² 12,7 °C 19,2 °C 0,0 km/h (0 Bft)
12.09.2019 14:21 19,3 °C 65 % 1029,3 hPa 0,0 mm 4,5 km/h (1 Bft) NW 319 ° 0 min 0,000 mm 5,4 UV-I 383 W/m² 12,6 °C 19,3 °C 8,0 km/h (2 Bft)
12.09.2019 14:22 19,6 °C 65 % 1029,3 hPa 0,0 mm 5,9 km/h (2 Bft) N 9 ° 0 min 0,000 mm 5,3 UV-I 383 W/m² 12,8 °C 19,6 °C 12,9 km/h (3 Bft)
12.09.2019 14:23 19,7 °C 63 % 1029,3 hPa 0,0 mm 7,0 km/h (2 Bft) NW 324 ° 0 min 0,000 mm 4,2 UV-I 550 W/m² 12,5 °C 19,7 °C 9,7 km/h (2 Bft)
12.09.2019 14:24 19,8 °C 64 % 1029,2 hPa 0,0 mm 3,1 km/h (1 Bft) NW 326 ° 0 min 0,000 mm 5,2 UV-I 550 W/m² 12,8 °C 19,8 °C 6,4 km/h (2 Bft)
12.09.2019 14:25 19,9 °C 61 % 1029,2 hPa 0,0 mm 3,4 km/h (1 Bft) N-NO 24 ° 1 min 0,000 mm 5,0 UV-I 758 W/m² 12,2 °C 19,9 °C 6,4 km/h (2 Bft)
12.09.2019 14:26 19,9 °C 60 % 1029,2 hPa 0,0 mm 4,4 km/h (1 Bft) N 355 ° 1 min 0,000 mm 4,3 UV-I 758 W/m² 11,9 °C 19,9 °C 6,4 km/h (2 Bft)
12.09.2019 14:27 19,9 °C 63 % 1029,2 hPa 0,0 mm 3,6 km/h (1 Bft) N-NW 336 ° 1 min 0,000 mm 5,0 UV-I 758 W/m² 12,6 °C 19,9 °C 4,8 km/h (1 Bft)
12.09.2019 14:28 20,1 °C 63 % 1029,2 hPa 0,0 mm 5,0 km/h (1 Bft) W 267 ° 1 min 0,000 mm 4,8 UV-I 682 W/m² 12,8 °C 20,1 °C 6,4 km/h (2 Bft)
12.09.2019 14:29 20,1 °C 68 % 1029,2 hPa 0,0 mm 4,4 km/h (1 Bft) W 263 ° 1 min 0,000 mm 5,0 UV-I 694 W/m² 14,0 °C 20,1 °C 6,4 km/h (2 Bft)
12.09.2019 14:30 20,2 °C 64 % 1029,2 hPa 0,0 mm 3,4 km/h (1 Bft) W-SW 244 ° 1 min 0,000 mm 4,9 UV-I 703 W/m² 13,2 °C 20,2 °C 4,8 km/h (1 Bft)
12.09.2019 14:31 20,2 °C 60 % 1029,2 hPa 0,0 mm 0,5 km/h (0 Bft) W-SW 244 ° 1 min 0,000 mm 4,9 UV-I 703 W/m² 12,2 °C 20,2 °C 1,6 km/h (1 Bft)
12.09.2019 14:32 20,2 °C 62 % 1029,2 hPa 0,0 mm 0,5 km/h (0 Bft) W-SW 244 ° 1 min 0,000 mm 4,9 UV-I 703 W/m² 12,7 °C 20,2 °C 4,8 km/h (1 Bft)
12.09.2019 14:33 20,1 °C 61 % 1029,2 hPa 0,0 mm 3,1 km/h (1 Bft) W-SW 244 ° 1 min 0,000 mm 4,1 UV-I 729 W/m² 12,3 °C 20,1 °C 4,8 km/h (1 Bft)
12.09.2019 14:34 20,1 °C 61 % 1029,2 hPa 0,0 mm 4,0 km/h (1 Bft) W-SW 257 ° 1 min 0,000 mm 4,9 UV-I 708 W/m² 12,3 °C 20,1 °C 6,4 km/h (2 Bft)
12.09.2019 14:35 20,2 °C 64 % 1029,2 hPa 0,0 mm 1,8 km/h (1 Bft) W-SW 255 ° 1 min 0,000 mm 4,9 UV-I 689 W/m² 13,2 °C 20,2 °C 3,2 km/h (1 Bft)
12.09.2019 14:36 20,2 °C 64 % 1029,2 hPa 0,0 mm 3,7 km/h (1 Bft) W 265 ° 1 min 0,000 mm 4,8 UV-I 686 W/m² 13,2 °C 20,2 °C 6,4 km/h (2 Bft)
12.09.2019 14:37 20,1 °C 62 % 1029,2 hPa 0,0 mm 8,4 km/h (2 Bft) W-SW 257 ° 1 min 0,000 mm 4,8 UV-I 684 W/m² 12,6 °C 20,1 °C 11,3 km/h (2 Bft)
12.09.2019 14:38 20,0 °C 62 % 1029,2 hPa 0,0 mm 5,6 km/h (1 Bft) W-SW 256 ° 1 min 0,000 mm 4,8 UV-I 682 W/m² 12,5 °C 20,0 °C 11,3 km/h (2 Bft)
12.09.2019 14:39 19,9 °C 61 % 1029,2 hPa 0,0 mm 2,3 km/h (1 Bft) W-SW 240 ° 1 min 0,000 mm 4,8 UV-I 680 W/m² 12,2 °C 19,9 °C 3,2 km/h (1 Bft)
12.09.2019 14:40 19,9 °C 64 % 1029,2 hPa 0,0 mm 0,5 km/h (0 Bft) W 267 ° 1 min 0,000 mm 4,8 UV-I 677 W/m² 12,9 °C 19,9 °C 3,2 km/h (1 Bft)
12.09.2019 14:41 20,1 °C 63 % 1029,2 hPa 0,0 mm 2,3 km/h (1 Bft) N 5 ° 1 min 0,000 mm 4,8 UV-I 675 W/m² 12,8 °C 20,1 °C 4,8 km/h (1 Bft)
12.09.2019 14:42 20,1 °C 66 % 1029,2 hPa 0,0 mm 2,6 km/h (1 Bft) N-NW 329 ° 1 min 0,000 mm 4,7 UV-I 673 W/m² 13,5 °C 20,1 °C 4,8 km/h (1 Bft)
12.09.2019 14:43 20,2 °C 63 % 1029,2 hPa 0,0 mm 6,1 km/h (2 Bft) W 265 ° 1 min 0,000 mm 4,7 UV-I 671 W/m² 12,9 °C 20,2 °C 11,3 km/h (2 Bft)
12.09.2019 14:44 20,2 °C 63 % 1029,2 hPa 0,0 mm 6,1 km/h (2 Bft) W-NW 297 ° 1 min 0,000 mm 4,7 UV-I 670 W/m² 12,9 °C 20,2 °C 11,3 km/h (2 Bft)
12.09.2019 14:45 20,2 °C 64 % 1029,2 hPa 0,0 mm 4,5 km/h (1 Bft) W 281 ° 1 min 0,000 mm 4,7 UV-I 668 W/m² 13,2 °C 20,2 °C 8,0 km/h (2 Bft)
12.09.2019 14:46 20,3 °C 64 % 1029,1 hPa 0,0 mm 6,4 km/h (2 Bft) NW 314 ° 1 min 0,000 mm 4,7 UV-I 666 W/m² 13,3 °C 20,3 °C 9,7 km/h (2 Bft)
12.09.2019 14:47 20,3 °C 64 % 1029,1 hPa 0,0 mm 4,5 km/h (1 Bft) W-NW 283 ° 1 min 0,000 mm 4,7 UV-I 666 W/m² 13,3 °C 20,3 °C 9,7 km/h (2 Bft)
12.09.2019 14:48 20,3 °C 64 % 1029,1 hPa 0,0 mm 2,3 km/h (1 Bft) W-NW 298 ° 1 min 0,000 mm 4,6 UV-I 663 W/m² 13,3 °C 20,3 °C 4,8 km/h (1 Bft)
12.09.2019 14:49 20,3 °C 61 % 1029,1 hPa 0,0 mm 1,6 km/h (1 Bft) NW 322 ° 1 min 0,000 mm 4,6 UV-I 663 W/m² 12,5 °C 20,3 °C 4,8 km/h (1 Bft)
12.09.2019 14:50 20,4 °C 67 % 1029,1 hPa 0,0 mm 0,8 km/h (0 Bft) NW 321 ° 1 min 0,000 mm 4,6 UV-I 661 W/m² 14,1 °C 20,4 °C 3,2 km/h (1 Bft)
12.09.2019 14:51 20,4 °C 65 % 1029,1 hPa 0,0 mm 3,8 km/h (1 Bft) N-NW 336 ° 1 min 0,000 mm 4,6 UV-I 659 W/m² 13,6 °C 20,4 °C 6,4 km/h (2 Bft)
12.09.2019 14:52 20,4 °C 63 % 1029,2 hPa 0,0 mm 3,3 km/h (1 Bft) W-NW 303 ° 1 min 0,000 mm 4,6 UV-I 657 W/m² 13,1 °C 20,4 °C 6,4 km/h (2 Bft)
12.09.2019 14:53 20,4 °C 63 % 1029,2 hPa 0,2 mm 7,6 km/h (2 Bft) NW 326 ° 1 min 0,000 mm 4,6 UV-I 656 W/m² 13,1 °C 20,4 °C 11,3 km/h (2 Bft)
12.09.2019 14:54 20,3 °C 62 % 1029,2 hPa 0,0 mm 4,9 km/h (1 Bft) W-NW 283 ° 1 min 0,000 mm 4,5 UV-I 654 W/m² 12,8 °C 20,3 °C 9,7 km/h (2 Bft)
12.09.2019 14:55 20,2 °C 60 % 1029,2 hPa 0,0 mm 4,0 km/h (1 Bft) W-SW 244 ° 1 min 0,000 mm 4,5 UV-I 652 W/m² 12,2 °C 20,2 °C 4,8 km/h (1 Bft)
12.09.2019 14:56 20,2 °C 62 % 1029,2 hPa 0,0 mm 1,5 km/h (1 Bft) W-SW 244 ° 1 min 0,000 mm 4,5 UV-I 652 W/m² 12,7 °C 20,2 °C 3,2 km/h (1 Bft)
12.09.2019 14:57 20,2 °C 64 % 1029,2 hPa 0,0 mm 1,6 km/h (1 Bft) W-SW 242 ° 1 min 0,000 mm 4,5 UV-I 650 W/m² 13,2 °C 20,2 °C 3,2 km/h (1 Bft)
12.09.2019 14:58 20,1 °C 61 % 1029,1 hPa 0,0 mm 3,1 km/h (1 Bft) SO 138 ° 1 min 0,000 mm 4,5 UV-I 649 W/m² 12,3 °C 20,1 °C 6,4 km/h (2 Bft)
12.09.2019 14:59 19,9 °C 64 % 1029,1 hPa 0,0 mm 1,1 km/h (1 Bft) SO 138 ° 1 min 0,000 mm 4,5 UV-I 647 W/m² 12,9 °C 19,9 °C 3,2 km/h (1 Bft)
12.09.2019 15:00 19,9 °C 65 % 1029,1 hPa 0,0 mm 0,0 km/h (0 Bft) SO 138 ° 1 min 0,000 mm 4,4 UV-I 645 W/m² 13,1 °C 19,9 °C 0,0 km/h (0 Bft)
12.09.2019 15:01 20,0 °C 66 % 1029,1 hPa 0,0 mm 4,0 km/h (1 Bft) NW 325 ° 1 min 0,381 mm 4,4 UV-I 642 W/m² 13,4 °C 20,0 °C 9,7 km/h (2 Bft)
12.09.2019 15:02 20,1 °C 62 % 1029,1 hPa 0,0 mm 2,5 km/h (1 Bft) NW 311 ° 1 min 0,000 mm 4,4 UV-I 640 W/m² 12,6 °C 20,1 °C 4,8 km/h (1 Bft)
12.09.2019 15:03 20,1 °C 64 % 1029,1 hPa 0,0 mm 1,8 km/h (1 Bft) NW 309 ° 1 min 0,000 mm 4,4 UV-I 640 W/m² 13,1 °C 20,1 °C 3,2 km/h (1 Bft)
12.09.2019 15:04 20,1 °C 62 % 1029,1 hPa 0,0 mm 2,7 km/h (1 Bft) NW 309 ° 1 min 0,000 mm 4,4 UV-I 638 W/m² 12,6 °C 20,1 °C 3,2 km/h (1 Bft)
12.09.2019 15:05 20,1 °C 61 % 1029,1 hPa 0,0 mm 1,4 km/h (1 Bft) NW 309 ° 1 min 0,000 mm 4,4 UV-I 638 W/m² 12,3 °C 20,1 °C 3,2 km/h (1 Bft)
12.09.2019 15:06 20,1 °C 61 % 1029,0 hPa 0,0 mm 0,2 km/h (0 Bft) NW 310 ° 1 min 0,000 mm 4,3 UV-I 636 W/m² 12,3 °C 20,1 °C 1,6 km/h (1 Bft)
12.09.2019 15:07 20,1 °C 61 % 1029,0 hPa 0,0 mm 0,7 km/h (0 Bft) NW 309 ° 1 min 0,000 mm 4,3 UV-I 636 W/m² 12,3 °C 20,1 °C 3,2 km/h (1 Bft)
12.09.2019 15:08 20,1 °C 63 % 1029,0 hPa 0,0 mm 1,6 km/h (1 Bft) NW 304 ° 1 min 0,000 mm 4,3 UV-I 636 W/m² 12,8 °C 20,1 °C 3,2 km/h (1 Bft)
12.09.2019 15:09 20,1 °C 62 % 1029,0 hPa 0,0 mm 2,0 km/h (1 Bft) W 263 ° 1 min 0,000 mm 4,3 UV-I 633 W/m² 12,6 °C 20,1 °C 3,2 km/h (1 Bft)
12.09.2019 15:10 20,2 °C 64 % 1029,0 hPa 0,0 mm 2,0 km/h (1 Bft) W-SW 256 ° 1 min 0,000 mm 4,3 UV-I 633 W/m² 13,2 °C 20,2 °C 4,8 km/h (1 Bft)
12.09.2019 15:11 20,2 °C 62 % 1029,0 hPa 0,0 mm 0,7 km/h (0 Bft) W-SW 256 ° 1 min 0,000 mm 4,3 UV-I 631 W/m² 12,7 °C 20,2 °C 1,6 km/h (1 Bft)
12.09.2019 15:12 20,2 °C 61 % 1029,0 hPa 0,0 mm 0,3 km/h (0 Bft) W 261 ° 1 min 0,000 mm 4,3 UV-I 629 W/m² 12,4 °C 20,2 °C 1,6 km/h (1 Bft)
12.09.2019 15:13 20,3 °C 62 % 1029,0 hPa 0,0 mm 3,7 km/h (1 Bft) NW 315 ° 1 min 0,000 mm 4,2 UV-I 626 W/m² 12,8 °C 20,3 °C 6,4 km/h (2 Bft)
12.09.2019 15:14 20,3 °C 63 % 1029,0 hPa 0,0 mm 2,1 km/h (1 Bft) NW 315 ° 1 min 0,000 mm 4,2 UV-I 626 W/m² 13,0 °C 20,3 °C 3,2 km/h (1 Bft)
12.09.2019 15:15 20,4 °C 62 % 1029,0 hPa 0,0 mm 0,8 km/h (0 Bft) NW 315 ° 1 min 0,000 mm 4,2 UV-I 622 W/m² 12,9 °C 20,4 °C 1,6 km/h (1 Bft)
12.09.2019 15:16 20,4 °C 61 % 1029,0 hPa 0,0 mm 3,3 km/h (1 Bft) NW 317 ° 1 min 0,000 mm 4,2 UV-I 622 W/m² 12,6 °C 20,4 °C 4,8 km/h (1 Bft)
12.09.2019 15:17 20,5 °C 62 % 1029,0 hPa 0,0 mm 4,2 km/h (1 Bft) W-NW 286 ° 1 min 0,000 mm 4,1 UV-I 619 W/m² 13,0 °C 20,5 °C 8,0 km/h (2 Bft)
12.09.2019 15:18 20,6 °C 60 % 1029,0 hPa 0,0 mm 1,8 km/h (1 Bft) W-NW 286 ° 1 min 0,000 mm 4,1 UV-I 617 W/m² 12,6 °C 20,6 °C 3,2 km/h (1 Bft)
12.09.2019 15:19 20,6 °C 61 % 1029,0 hPa 0,0 mm 0,1 km/h (0 Bft) W-NW 284 ° 1 min 0,000 mm 4,1 UV-I 617 W/m² 12,8 °C 20,6 °C 1,6 km/h (1 Bft)
12.09.2019 15:20 20,6 °C 59 % 1029,0 hPa 0,0 mm 4,1 km/h (1 Bft) S 191 ° 1 min 0,000 mm 4,1 UV-I 615 W/m² 12,3 °C 20,6 °C 6,4 km/h (2 Bft)
12.09.2019 15:21 20,6 °C 59 % 1028,9 hPa 0,0 mm 4,2 km/h (1 Bft) S-SW 192 ° 1 min 0,000 mm 4,1 UV-I 615 W/m² 12,3 °C 20,6 °C 4,8 km/h (1 Bft)
12.09.2019 15:22 20,6 °C 59 % 1028,9 hPa 0,0 mm 2,0 km/h (1 Bft) S 191 ° 1 min 0,000 mm 4,1 UV-I 613 W/m² 12,3 °C 20,6 °C 3,2 km/h (1 Bft)
12.09.2019 15:23 20,5 °C 59 % 1028,9 hPa 0,0 mm 0,3 km/h (0 Bft) S 191 ° 1 min 0,000 mm 4,1 UV-I 610 W/m² 12,2 °C 20,5 °C 1,6 km/h (1 Bft)
12.09.2019 15:24 20,5 °C 65 % 1028,9 hPa 0,0 mm 0,9 km/h (0 Bft) SW 228 ° 1 min 0,000 mm 4,0 UV-I 610 W/m² 13,7 °C 20,5 °C 1,6 km/h (1 Bft)
12.09.2019 15:25 20,4 °C 64 % 1028,9 hPa 0,0 mm 2,2 km/h (1 Bft) SW 228 ° 1 min 0,000 mm 4,0 UV-I 608 W/m² 13,4 °C 20,4 °C 3,2 km/h (1 Bft)
12.09.2019 15:26 20,4 °C 62 % 1028,9 hPa 0,0 mm 5,9 km/h (2 Bft) W 281 ° 1 min 0,000 mm 4,0 UV-I 606 W/m² 12,9 °C 20,4 °C 8,0 km/h (2 Bft)
12.09.2019 15:27 20,4 °C 61 % 1028,9 hPa 0,0 mm 6,8 km/h (2 Bft) W 263 ° 1 min 0,000 mm 4,0 UV-I 603 W/m² 12,6 °C 20,4 °C 11,3 km/h (2 Bft)
12.09.2019 15:28 20,4 °C 61 % 1028,9 hPa 0,0 mm 4,5 km/h (1 Bft) SW 215 ° 1 min 0,000 mm 4,0 UV-I 603 W/m² 12,6 °C 20,4 °C 4,8 km/h (1 Bft)
12.09.2019 15:29 20,3 °C 61 % 1028,8 hPa 0,0 mm 6,3 km/h (2 Bft) W-SW 257 ° 1 min 0,000 mm 4,0 UV-I 601 W/m² 12,5 °C 20,3 °C 11,3 km/h (2 Bft)
12.09.2019 15:30 20,3 °C 62 % 1028,8 hPa 0,0 mm 6,0 km/h (2 Bft) W-SW 250 ° 0 min 0,000 mm 3,9 UV-I 599 W/m² 12,8 °C 20,3 °C 8,0 km/h (2 Bft)
12.09.2019 15:31 20,3 °C 61 % 1028,8 hPa 0,0 mm 2,6 km/h (1 Bft) W-SW 250 ° 0 min 0,000 mm 3,9 UV-I 598 W/m² 12,5 °C 20,3 °C 3,2 km/h (1 Bft)
12.09.2019 15:32 20,3 °C 64 % 1028,8 hPa 0,0 mm 3,6 km/h (1 Bft) W-SW 257 ° 0 min 0,000 mm 3,9 UV-I 592 W/m² 13,3 °C 20,3 °C 6,4 km/h (2 Bft)
12.09.2019 15:33 20,3 °C 61 % 1028,7 hPa 0,0 mm 2,1 km/h (1 Bft) W-SW 257 ° 0 min 0,000 mm 3,9 UV-I 589 W/m² 12,5 °C 20,3 °C 4,8 km/h (1 Bft)
12.09.2019 15:34 20,3 °C 63 % 1028,8 hPa 0,0 mm 0,7 km/h (0 Bft) W-SW 257 ° 0 min 0,000 mm 3,8 UV-I 587 W/m² 13,0 °C 20,3 °C 3,2 km/h (1 Bft)
12.09.2019 15:35 20,4 °C 63 % 1028,7 hPa 0,0 mm 0,5 km/h (0 Bft) W-SW 257 ° 0 min 0,000 mm 3,8 UV-I 587 W/m² 13,1 °C 20,4 °C 1,6 km/h (1 Bft)
12.09.2019 15:36 20,4 °C 63 % 1028,8 hPa 0,0 mm 1,6 km/h (1 Bft) W 265 ° 0 min 0,000 mm 3,8 UV-I 585 W/m² 13,1 °C 20,4 °C 3,2 km/h (1 Bft)
12.09.2019 15:37 20,5 °C 63 % 1028,7 hPa 0,0 mm 2,7 km/h (1 Bft) N-NO 12 ° 0 min 0,000 mm 3,8 UV-I 584 W/m² 13,2 °C 20,5 °C 4,8 km/h (1 Bft)
12.09.2019 15:38 20,6 °C 63 % 1028,7 hPa 0,0 mm 3,5 km/h (1 Bft) N-NW 346 ° 0 min 0,000 mm 3,8 UV-I 580 W/m² 13,3 °C 20,6 °C 4,8 km/h (1 Bft)
12.09.2019 15:39 20,7 °C 63 % 1028,7 hPa 0,0 mm 1,4 km/h (1 Bft) N 355 ° 0 min 0,000 mm 3,7 UV-I 577 W/m² 13,4 °C 20,7 °C 3,2 km/h (1 Bft)
12.09.2019 15:40 20,7 °C 62 % 1028,6 hPa 0,0 mm 2,0 km/h (1 Bft) N 5 ° 0 min 0,000 mm 3,7 UV-I 575 W/m² 13,2 °C 20,7 °C 4,8 km/h (1 Bft)
12.09.2019 15:41 20,7 °C 62 % 1028,6 hPa 0,0 mm 2,9 km/h (1 Bft) N-NW 346 ° 0 min 0,000 mm 3,7 UV-I 573 W/m² 13,2 °C 20,7 °C 4,8 km/h (1 Bft)
12.09.2019 15:42 20,8 °C 62 % 1028,6 hPa 0,0 mm 6,4 km/h (2 Bft) NW 313 ° 0 min 0,000 mm 3,7 UV-I 573 W/m² 13,2 °C 20,8 °C 8,0 km/h (2 Bft)
12.09.2019 15:43 20,7 °C 62 % 1028,5 hPa 0,0 mm 4,4 km/h (1 Bft) W-NW 299 ° 0 min 0,000 mm 3,7 UV-I 571 W/m² 13,2 °C 20,7 °C 8,0 km/h (2 Bft)
12.09.2019 15:44 20,7 °C 62 % 1028,6 hPa 0,0 mm 7,0 km/h (2 Bft) N-NW 329 ° 0 min 0,000 mm 3,6 UV-I 566 W/m² 13,2 °C 20,7 °C 9,7 km/h (2 Bft)
12.09.2019 15:45 20,7 °C 62 % 1028,6 hPa 0,0 mm 4,8 km/h (1 Bft) NW 321 ° 0 min 0,000 mm 3,6 UV-I 566 W/m² 13,2 °C 20,7 °C 8,0 km/h (2 Bft)
12.09.2019 15:46 20,7 °C 62 % 1028,6 hPa 0,0 mm 3,4 km/h (1 Bft) NW 323 ° 0 min 0,000 mm 3,6 UV-I 564 W/m² 13,2 °C 20,7 °C 6,4 km/h (2 Bft)
12.09.2019 15:47 20,6 °C 62 % 1028,6 hPa 0,0 mm 3,8 km/h (1 Bft) NW 322 ° 0 min 0,000 mm 3,6 UV-I 564 W/m² 13,1 °C 20,6 °C 4,8 km/h (1 Bft)
12.09.2019 15:48 20,6 °C 61 % 1028,6 hPa 0,0 mm 1,8 km/h (1 Bft) NW 322 ° 0 min 0,000 mm 3,5 UV-I 564 W/m² 12,8 °C 20,6 °C 3,2 km/h (1 Bft)
12.09.2019 15:49 20,6 °C 62 % 1028,6 hPa 0,0 mm 0,5 km/h (0 Bft) NW 322 ° 0 min 0,000 mm 3,5 UV-I 559 W/m² 13,1 °C 20,6 °C 1,6 km/h (1 Bft)
12.09.2019 15:50 20,6 °C 63 % 1028,6 hPa 0,0 mm 0,0 km/h (0 Bft) NW 322 ° 0 min 0,000 mm 3,4 UV-I 555 W/m² 13,3 °C 20,6 °C 0,0 km/h (0 Bft)
12.09.2019 15:51 20,6 °C 64 % 1028,6 hPa 0,0 mm 0,0 km/h (0 Bft) NW 322 ° 0 min 0,000 mm 3,4 UV-I 554 W/m² 13,5 °C 20,6 °C 0,0 km/h (0 Bft)
12.09.2019 15:52 20,5 °C 63 % 1028,6 hPa 0,0 mm 0,9 km/h (0 Bft) N-NW 328 ° 0 min 0,000 mm 3,3 UV-I 552 W/m² 13,2 °C 20,5 °C 3,2 km/h (1 Bft)
12.09.2019 15:53 20,4 °C 67 % 1028,6 hPa 0,0 mm 4,0 km/h (1 Bft) N-NO 15 ° 0 min 0,000 mm 3,2 UV-I 548 W/m² 14,1 °C 20,4 °C 8,0 km/h (2 Bft)
12.09.2019 15:54 20,3 °C 64 % 1028,5 hPa 0,0 mm 2,4 km/h (1 Bft) N 350 ° 0 min 0,000 mm 3,2 UV-I 547 W/m² 13,3 °C 20,3 °C 8,0 km/h (2 Bft)
12.09.2019 15:55 20,3 °C 64 % 1028,5 hPa 0,0 mm 0,7 km/h (0 Bft) N 350 ° 0 min 0,000 mm 3,1 UV-I 547 W/m² 13,3 °C 20,3 °C 3,2 km/h (1 Bft)
12.09.2019 15:56 20,4 °C 64 % 1028,6 hPa 0,0 mm 4,5 km/h (1 Bft) N 355 ° 0 min 0,000 mm 3,1 UV-I 541 W/m² 13,4 °C 20,4 °C 8,0 km/h (2 Bft)
12.09.2019 15:57 20,5 °C 62 % 1028,5 hPa 0,0 mm 2,5 km/h (1 Bft) N 5 ° 0 min 0,000 mm 3,1 UV-I 540 W/m² 13,0 °C 20,5 °C 4,8 km/h (1 Bft)
12.09.2019 15:58 20,6 °C 61 % 1028,5 hPa 0,0 mm 0,9 km/h (0 Bft) N 5 ° 0 min 0,000 mm 3,0 UV-I 538 W/m² 12,8 °C 20,6 °C 3,2 km/h (1 Bft)
12.09.2019 15:59 20,6 °C 61 % 1028,5 hPa 0,0 mm 4,6 km/h (1 Bft) N-NW 333 ° 0 min 0,000 mm 3,0 UV-I 534 W/m² 12,8 °C 20,6 °C 6,4 km/h (2 Bft)
12.09.2019 16:00 20,7 °C 63 % 1028,5 hPa 0,0 mm 4,1 km/h (1 Bft) W 269 ° 0 min 0,000 mm 3,0 UV-I 534 W/m² 13,4 °C 20,7 °C 6,4 km/h (2 Bft)
12.09.2019 16:01 20,7 °C 61 % 1028,5 hPa 0,0 mm 4,6 km/h (1 Bft) N-NW 342 ° 0 min 0,356 mm 3,0 UV-I 531 W/m² 12,9 °C 20,7 °C 9,7 km/h (2 Bft)
12.09.2019 16:02 20,7 °C 62 % 1028,6 hPa 0,0 mm 4,6 km/h (1 Bft) NW 315 ° 0 min 0,000 mm 3,0 UV-I 527 W/m² 13,2 °C 20,7 °C 8,0 km/h (2 Bft)
12.09.2019 16:03 20,7 °C 63 % 1028,6 hPa 0,0 mm 5,2 km/h (1 Bft) NW 313 ° 0 min 0,000 mm 2,9 UV-I 524 W/m² 13,4 °C 20,7 °C 8,0 km/h (2 Bft)
12.09.2019 16:04 20,7 °C 61 % 1028,5 hPa 0,0 mm 3,6 km/h (1 Bft) NW 311 ° 0 min 0,000 mm 2,9 UV-I 522 W/m² 12,9 °C 20,7 °C 4,8 km/h (1 Bft)
12.09.2019 16:05 20,7 °C 61 % 1028,6 hPa 0,0 mm 3,6 km/h (1 Bft) NW 315 ° 0 min 0,000 mm 2,9 UV-I 519 W/m² 12,9 °C 20,7 °C 6,4 km/h (2 Bft)
12.09.2019 16:06 20,6 °C 63 % 1028,6 hPa 0,0 mm 2,2 km/h (1 Bft) NW 317 ° 0 min 0,000 mm 2,8 UV-I 515 W/m² 13,3 °C 20,6 °C 4,8 km/h (1 Bft)
12.09.2019 16:07 20,6 °C 64 % 1028,5 hPa 0,0 mm 1,1 km/h (1 Bft) NW 315 ° 0 min 0,000 mm 2,8 UV-I 513 W/m² 13,5 °C 20,6 °C 3,2 km/h (1 Bft)
12.09.2019 16:08 20,6 °C 61 % 1028,6 hPa 0,0 mm 0,3 km/h (0 Bft) NW 315 ° 0 min 0,000 mm 2,8 UV-I 512 W/m² 12,8 °C 20,6 °C 1,6 km/h (1 Bft)
12.09.2019 16:09 20,7 °C 62 % 1028,5 hPa 0,0 mm 1,0 km/h (0 Bft) NW 316 ° 0 min 0,000 mm 2,8 UV-I 510 W/m² 13,2 °C 20,7 °C 3,2 km/h (1 Bft)
12.09.2019 16:10 20,8 °C 61 % 1028,6 hPa 0,0 mm 3,4 km/h (1 Bft) N-NO 16 ° 0 min 0,000 mm 2,8 UV-I 508 W/m² 13,0 °C 20,8 °C 4,8 km/h (1 Bft)
12.09.2019 16:11 20,8 °C 64 % 1028,5 hPa 0,0 mm 5,7 km/h (1 Bft) NO 40 ° 0 min 0,000 mm 2,8 UV-I 506 W/m² 13,7 °C 20,8 °C 9,7 km/h (2 Bft)
12.09.2019 16:12 20,8 °C 63 % 1028,5 hPa 0,0 mm 4,5 km/h (1 Bft) O-NO 71 ° 0 min 0,000 mm 2,8 UV-I 504 W/m² 13,5 °C 20,8 °C 9,7 km/h (2 Bft)
12.09.2019 16:13 20,8 °C 64 % 1028,5 hPa 0,0 mm 7,0 km/h (2 Bft) NO 48 ° 0 min 0,000 mm 2,8 UV-I 499 W/m² 13,7 °C 20,8 °C 9,7 km/h (2 Bft)
12.09.2019 16:14 20,8 °C 63 % 1028,5 hPa 0,0 mm 7,1 km/h (2 Bft) N 350 ° 0 min 0,000 mm 2,7 UV-I 497 W/m² 13,5 °C 20,8 °C 9,7 km/h (2 Bft)
12.09.2019 16:15 20,8 °C 63 % 1028,5 hPa 0,0 mm 5,0 km/h (1 Bft) N-NO 24 ° 0 min 0,000 mm 2,7 UV-I 494 W/m² 13,5 °C 20,8 °C 8,0 km/h (2 Bft)
12.09.2019 16:16 20,8 °C 64 % 1028,5 hPa 0,0 mm 4,0 km/h (1 Bft) N 5 ° 0 min 0,000 mm 2,7 UV-I 490 W/m² 13,7 °C 20,8 °C 8,0 km/h (2 Bft)
12.09.2019 16:17 20,7 °C 64 % 1028,5 hPa 0,0 mm 6,4 km/h (2 Bft) N-NW 337 ° 0 min 0,000 mm 2,6 UV-I 487 W/m² 13,6 °C 20,7 °C 14,5 km/h (3 Bft)
12.09.2019 16:18 20,8 °C 64 % 1028,5 hPa 0,0 mm 6,0 km/h (2 Bft) N 355 ° 0 min 0,000 mm 2,4 UV-I 483 W/m² 13,7 °C 20,8 °C 8,0 km/h (2 Bft)
12.09.2019 16:19 20,8 °C 61 % 1028,5 hPa 0,0 mm 6,2 km/h (2 Bft) N 355 ° 0 min 0,000 mm 2,4 UV-I 374 W/m² 13,0 °C 20,8 °C 9,7 km/h (2 Bft)
12.09.2019 16:20 20,8 °C 60 % 1028,5 hPa 0,0 mm 6,3 km/h (2 Bft) N-NO 30 ° 0 min 0,000 mm 1,9 UV-I 374 W/m² 12,7 °C 20,8 °C 8,0 km/h (2 Bft)
12.09.2019 16:21 20,8 °C 61 % 1028,5 hPa 0,0 mm 4,5 km/h (1 Bft) NO 55 ° 0 min 0,000 mm 1,9 UV-I 374 W/m² 13,0 °C 20,8 °C 8,0 km/h (2 Bft)
12.09.2019 16:22 20,8 °C 61 % 1028,5 hPa 0,0 mm 7,2 km/h (2 Bft) N-NO 24 ° 0 min 0,000 mm 1,6 UV-I 86 W/m² 13,0 °C 20,8 °C 12,9 km/h (3 Bft)
12.09.2019 16:23 20,8 °C 62 % 1028,5 hPa 0,0 mm 5,6 km/h (1 Bft) N-NO 13 ° 0 min 0,000 mm 1,5 UV-I 118 W/m² 13,2 °C 20,8 °C 8,0 km/h (2 Bft)
12.09.2019 16:24 20,8 °C 60 % 1028,5 hPa 0,0 mm 5,5 km/h (1 Bft) N 349 ° 0 min 0,000 mm 1,7 UV-I 183 W/m² 12,7 °C 20,8 °C 8,0 km/h (2 Bft)
12.09.2019 16:25 20,8 °C 62 % 1028,5 hPa 0,0 mm 4,6 km/h (1 Bft) NW 321 ° 0 min 0,000 mm 1,7 UV-I 128 W/m² 13,2 °C 20,8 °C 8,0 km/h (2 Bft)
12.09.2019 16:26 20,8 °C 63 % 1028,5 hPa 0,0 mm 4,9 km/h (1 Bft) W-NW 300 ° 0 min 0,000 mm 1,7 UV-I 179 W/m² 13,5 °C 20,8 °C 6,4 km/h (2 Bft)
12.09.2019 16:27 20,8 °C 61 % 1028,4 hPa 0,0 mm 5,3 km/h (1 Bft) NW 309 ° 0 min 0,000 mm 1,9 UV-I 186 W/m² 13,0 °C 20,8 °C 9,7 km/h (2 Bft)
12.09.2019 16:28 20,7 °C 62 % 1028,5 hPa 0,0 mm 4,1 km/h (1 Bft) N-NW 327 ° 0 min 0,000 mm 2,0 UV-I 160 W/m² 13,2 °C 20,7 °C 6,4 km/h (2 Bft)
12.09.2019 16:29 20,7 °C 63 % 1028,4 hPa 0,0 mm 4,7 km/h (1 Bft) NW 324 ° 0 min 0,000 mm 1,8 UV-I 111 W/m² 13,4 °C 20,7 °C 6,4 km/h (2 Bft)
12.09.2019 16:30 20,6 °C 62 % 1028,4 hPa 0,0 mm 6,0 km/h (2 Bft) N-NW 330 ° 0 min 0,000 mm 1,6 UV-I 123 W/m² 13,1 °C 20,6 °C 9,7 km/h (2 Bft)
12.09.2019 16:31 20,6 °C 63 % 1028,4 hPa 0,0 mm 5,5 km/h (1 Bft) W-NW 290 ° 0 min 0,000 mm 1,8 UV-I 174 W/m² 13,3 °C 20,6 °C 8,0 km/h (2 Bft)
12.09.2019 16:32 20,6 °C 62 % 1028,5 hPa 0,0 mm 5,6 km/h (1 Bft) NW 311 ° 0 min 0,000 mm 1,7 UV-I 174 W/m² 13,1 °C 20,6 °C 8,0 km/h (2 Bft)
12.09.2019 16:33 20,6 °C 63 % 1028,5 hPa 0,0 mm 2,8 km/h (1 Bft) NW 312 ° 0 min 0,000 mm 1,7 UV-I 62 W/m² 13,3 °C 20,6 °C 4,8 km/h (1 Bft)
12.09.2019 16:34 20,6 °C 61 % 1028,4 hPa 0,0 mm 0,5 km/h (0 Bft) NW 312 ° 0 min 0,000 mm 1,5 UV-I 127 W/m² 12,8 °C 20,6 °C 1,6 km/h (1 Bft)
12.09.2019 16:35 20,6 °C 63 % 1028,5 hPa 0,0 mm 0,0 km/h (0 Bft) NW 312 ° 0 min 0,000 mm 1,6 UV-I 127 W/m² 13,3 °C 20,6 °C 0,0 km/h (0 Bft)
12.09.2019 16:36 20,5 °C 62 % 1028,5 hPa 0,0 mm 3,0 km/h (1 Bft) W-SW 244 ° 0 min 0,000 mm 1,6 UV-I 65 W/m² 13,0 °C 20,5 °C 4,8 km/h (1 Bft)
12.09.2019 16:37 20,4 °C 61 % 1028,4 hPa 0,0 mm 2,1 km/h (1 Bft) W-SW 244 ° 0 min 0,000 mm 1,4 UV-I 58 W/m² 12,6 °C 20,4 °C 3,2 km/h (1 Bft)
12.09.2019 16:38 20,4 °C 62 % 1028,4 hPa 0,0 mm 2,3 km/h (1 Bft) N-NW 334 ° 0 min 0,000 mm 0,0 UV-I 49 W/m² 12,9 °C 20,4 °C 6,4 km/h (2 Bft)
12.09.2019 16:39 20,4 °C 64 % 1028,4 hPa 0,0 mm 4,5 km/h (1 Bft) W-NW 285 ° 0 min 0,000 mm 1,5 UV-I 79 W/m² 13,4 °C 20,4 °C 6,4 km/h (2 Bft)
12.09.2019 16:40 20,4 °C 63 % 1028,4 hPa 0,0 mm 4,0 km/h (1 Bft) N-NO 22 ° 0 min 0,000 mm 1,4 UV-I 72 W/m² 13,1 °C 20,4 °C 4,8 km/h (1 Bft)
12.09.2019 16:41 20,5 °C 65 % 1028,4 hPa 0,0 mm 2,1 km/h (1 Bft) N-NO 24 ° 0 min 0,000 mm 1,4 UV-I 70 W/m² 13,7 °C 20,5 °C 3,2 km/h (1 Bft)
12.09.2019 16:42 20,6 °C 62 % 1028,4 hPa 0,0 mm 4,5 km/h (1 Bft) NW 315 ° 0 min 0,000 mm 1,4 UV-I 90 W/m² 13,1 °C 20,6 °C 6,4 km/h (2 Bft)
12.09.2019 16:43 20,6 °C 63 % 1028,4 hPa 0,0 mm 4,8 km/h (1 Bft) N-NW 331 ° 0 min 0,000 mm 1,5 UV-I 58 W/m² 13,3 °C 20,6 °C 6,4 km/h (2 Bft)
12.09.2019 16:44 20,6 °C 61 % 1028,4 hPa 0,0 mm 4,8 km/h (1 Bft) N 355 ° 0 min 0,000 mm 0,0 UV-I 39 W/m² 12,8 °C 20,6 °C 6,4 km/h (2 Bft)
12.09.2019 16:45 20,6 °C 62 % 1028,4 hPa 0,2 mm 2,5 km/h (1 Bft) N 355 ° 0 min 0,000 mm 0,0 UV-I 42 W/m² 13,1 °C 20,6 °C 3,2 km/h (1 Bft)
12.09.2019 16:46 20,6 °C 63 % 1028,4 hPa 0,0 mm 0,7 km/h (0 Bft) N 355 ° 0 min 0,000 mm 0,0 UV-I 39 W/m² 13,3 °C 20,6 °C 3,2 km/h (1 Bft)
12.09.2019 16:47 20,6 °C 64 % 1028,4 hPa 0,0 mm 3,6 km/h (1 Bft) N-NO 32 ° 0 min 0,000 mm 0,0 UV-I 39 W/m² 13,5 °C 20,6 °C 6,4 km/h (2 Bft)
12.09.2019 16:48 20,5 °C 62 % 1028,4 hPa 0,0 mm 5,9 km/h (2 Bft) W-NW 298 ° 0 min 0,000 mm 0,0 UV-I 40 W/m² 13,0 °C 20,5 °C 9,7 km/h (2 Bft)
12.09.2019 16:49 20,4 °C 61 % 1028,4 hPa 0,0 mm 4,4 km/h (1 Bft) NW 309 ° 0 min 0,000 mm 0,0 UV-I 40 W/m² 12,6 °C 20,4 °C 6,4 km/h (2 Bft)
12.09.2019 16:50 20,4 °C 61 % 1028,4 hPa 0,0 mm 3,6 km/h (1 Bft) NW 308 ° 0 min 0,000 mm 0,0 UV-I 39 W/m² 12,6 °C 20,4 °C 4,8 km/h (1 Bft)
12.09.2019 16:51 20,4 °C 61 % 1028,4 hPa 0,0 mm 4,6 km/h (1 Bft) N-NW 340 ° 0 min 0,000 mm 0,0 UV-I 39 W/m² 12,6 °C 20,4 °C 6,4 km/h (2 Bft)
12.09.2019 16:52 20,4 °C 61 % 1028,4 hPa 0,0 mm 0,6 km/h (0 Bft) N-NW 341 ° 0 min 0,000 mm 0,0 UV-I 46 W/m² 12,6 °C 20,4 °C 1,6 km/h (1 Bft)
12.09.2019 16:53 20,4 °C 62 % 1028,4 hPa 0,0 mm 1,1 km/h (1 Bft) N-NW 335 ° 0 min 0,000 mm 0,0 UV-I 58 W/m² 12,9 °C 20,4 °C 3,2 km/h (1 Bft)
12.09.2019 16:54 20,3 °C 63 % 1028,4 hPa 0,0 mm 4,1 km/h (1 Bft) N-NW 338 ° 0 min 0,000 mm 0,0 UV-I 54 W/m² 13,0 °C 20,3 °C 4,8 km/h (1 Bft)
12.09.2019 16:55 20,4 °C 64 % 1028,4 hPa 0,0 mm 4,4 km/h (1 Bft) NW 315 ° 0 min 0,000 mm 0,0 UV-I 39 W/m² 13,4 °C 20,4 °C 8,0 km/h (2 Bft)
12.09.2019 16:56 20,3 °C 62 % 1028,4 hPa 0,0 mm 4,5 km/h (1 Bft) NW 325 ° 0 min 0,000 mm 0,0 UV-I 39 W/m² 12,8 °C 20,3 °C 6,4 km/h (2 Bft)
12.09.2019 16:57 20,4 °C 62 % 1028,4 hPa 0,0 mm 2,9 km/h (1 Bft) W-NW 297 ° 0 min 0,000 mm 0,0 UV-I 39 W/m² 12,9 °C 20,4 °C 4,8 km/h (1 Bft)
12.09.2019 16:58 20,4 °C 63 % 1028,4 hPa 0,0 mm 3,2 km/h (1 Bft) N 355 ° 0 min 0,000 mm 0,0 UV-I 39 W/m² 13,1 °C 20,4 °C 4,8 km/h (1 Bft)
12.09.2019 16:59 20,4 °C 63 % 1028,4 hPa 0,0 mm 5,5 km/h (1 Bft) N-NW 337 ° 0 min 0,000 mm 0,0 UV-I 39 W/m² 13,1 °C 20,4 °C 8,0 km/h (2 Bft)
12.09.2019 17:00 20,4 °C 62 % 1028,4 hPa 0,0 mm 3,6 km/h (1 Bft) N-NW 335 ° 0 min 0,000 mm 0,0 UV-I 39 W/m² 12,9 °C 20,4 °C 4,8 km/h (1 Bft)
12.09.2019 17:01 20,4 °C 62 % 1028,4 hPa 0,0 mm 4,1 km/h (1 Bft) NW 323 ° 0 min 0,152 mm 0,0 UV-I 39 W/m² 12,9 °C 20,4 °C 6,4 km/h (2 Bft)
12.09.2019 17:02 20,3 °C 62 % 1028,4 hPa 0,0 mm 5,9 km/h (2 Bft) N-NW 333 ° 0 min 0,000 mm 0,0 UV-I 39 W/m² 12,8 °C 20,3 °C 8,0 km/h (2 Bft)
12.09.2019 17:03 20,4 °C 62 % 1028,4 hPa 0,0 mm 2,7 km/h (1 Bft) NW 313 ° 0 min 0,000 mm 0,0 UV-I 39 W/m² 12,9 °C 20,4 °C 6,4 km/h (2 Bft)
12.09.2019 17:04 20,3 °C 63 % 1028,4 hPa 0,0 mm 1,7 km/h (1 Bft) W-NW 289 ° 0 min 0,000 mm 0,0 UV-I 39 W/m² 13,0 °C 20,3 °C 3,2 km/h (1 Bft)
12.09.2019 17:05 20,3 °C 62 % 1028,4 hPa 0,0 mm 2,2 km/h (1 Bft) W-SW 255 ° 0 min 0,000 mm 0,0 UV-I 40 W/m² 12,8 °C 20,3 °C 6,4 km/h (2 Bft)
12.09.2019 17:06 20,2 °C 64 % 1028,4 hPa 0,0 mm 3,0 km/h (1 Bft) NW 315 ° 0 min 0,000 mm 0,0 UV-I 40 W/m² 13,2 °C 20,2 °C 8,0 km/h (2 Bft)
12.09.2019 17:07 20,2 °C 62 % 1028,4 hPa 0,0 mm 5,3 km/h (1 Bft) NW 319 ° 0 min 0,000 mm 0,0 UV-I 37 W/m² 12,7 °C 20,2 °C 8,0 km/h (2 Bft)
12.09.2019 17:08 20,2 °C 62 % 1028,4 hPa 0,0 mm 2,8 km/h (1 Bft) NW 312 ° 0 min 0,000 mm 0,0 UV-I 39 W/m² 12,7 °C 20,2 °C 4,8 km/h (1 Bft)
12.09.2019 17:09 20,3 °C 63 % 1028,4 hPa 0,0 mm 7,5 km/h (2 Bft) NW 323 ° 0 min 0,000 mm 0,0 UV-I 40 W/m² 13,0 °C 20,3 °C 9,7 km/h (2 Bft)
12.09.2019 17:10 20,2 °C 61 % 1028,5 hPa 0,0 mm 5,5 km/h (1 Bft) NW 309 ° 0 min 0,000 mm 0,0 UV-I 39 W/m² 12,4 °C 20,2 °C 8,0 km/h (2 Bft)
12.09.2019 17:11 20,2 °C 60 % 1028,4 hPa 0,0 mm 1,8 km/h (1 Bft) N-NW 329 ° 0 min 0,000 mm 0,0 UV-I 37 W/m² 12,2 °C 20,2 °C 3,2 km/h (1 Bft)
12.09.2019 17:12 20,2 °C 61 % 1028,4 hPa 0,0 mm 3,6 km/h (1 Bft) N 355 ° 0 min 0,000 mm 0,0 UV-I 37 W/m² 12,4 °C 20,2 °C 6,4 km/h (2 Bft)
12.09.2019 17:13 20,2 °C 61 % 1028,4 hPa 0,0 mm 2,8 km/h (1 Bft) N-NO 22 ° 0 min 0,000 mm 0,0 UV-I 37 W/m² 12,4 °C 20,2 °C 4,8 km/h (1 Bft)
12.09.2019 17:14 20,3 °C 62 % 1028,4 hPa 0,0 mm 1,7 km/h (1 Bft) O-NO 63 ° 0 min 0,000 mm 0,0 UV-I 37 W/m² 12,8 °C 20,3 °C 3,2 km/h (1 Bft)
12.09.2019 17:15 20,3 °C 63 % 1028,4 hPa 0,0 mm 3,1 km/h (1 Bft) N-NW 337 ° 0 min 0,000 mm 0,0 UV-I 46 W/m² 13,0 °C 20,3 °C 4,8 km/h (1 Bft)
12.09.2019 17:16 20,3 °C 62 % 1028,4 hPa 0,0 mm 2,6 km/h (1 Bft) N-NW 342 ° 0 min 0,000 mm 0,0 UV-I 54 W/m² 12,8 °C 20,3 °C 4,8 km/h (1 Bft)
12.09.2019 17:17 20,3 °C 63 % 1028,4 hPa 0,0 mm 3,4 km/h (1 Bft) NW 323 ° 0 min 0,000 mm 0,0 UV-I 47 W/m² 13,0 °C 20,3 °C 6,4 km/h (2 Bft)
12.09.2019 17:18 20,3 °C 63 % 1028,4 hPa 0,0 mm 3,5 km/h (1 Bft) NW 323 ° 0 min 0,000 mm 0,0 UV-I 39 W/m² 13,0 °C 20,3 °C 6,4 km/h (2 Bft)
12.09.2019 17:19 20,4 °C 63 % 1028,3 hPa 0,0 mm 1,6 km/h (1 Bft) N 5 ° 0 min 0,000 mm 0,0 UV-I 39 W/m² 13,1 °C 20,4 °C 4,8 km/h (1 Bft)
12.09.2019 17:20 20,4 °C 62 % 1028,3 hPa 0,0 mm 6,0 km/h (2 Bft) N 10 ° 0 min 0,000 mm 0,0 UV-I 37 W/m² 12,9 °C 20,4 °C 6,4 km/h (2 Bft)
12.09.2019 17:21 20,4 °C 60 % 1028,4 hPa 0,0 mm 3,1 km/h (1 Bft) N-NO 24 ° 0 min 0,000 mm 0,0 UV-I 37 W/m² 12,4 °C 20,4 °C 4,8 km/h (1 Bft)
12.09.2019 17:22 20,4 °C 60 % 1028,3 hPa 0,0 mm 1,7 km/h (1 Bft) N-NO 24 ° 0 min 0,000 mm 0,0 UV-I 46 W/m² 12,4 °C 20,4 °C 3,2 km/h (1 Bft)
12.09.2019 17:23 20,3 °C 63 % 1028,3 hPa 0,0 mm 3,8 km/h (1 Bft) N-NW 342 ° 0 min 0,000 mm 1,1 UV-I 74 W/m² 13,0 °C 20,3 °C 6,4 km/h (2 Bft)
12.09.2019 17:24 20,2 °C 62 % 1028,3 hPa 0,0 mm 5,9 km/h (2 Bft) NW 313 ° 0 min 0,000 mm 1,1 UV-I 97 W/m² 12,7 °C 20,2 °C 8,0 km/h (2 Bft)
12.09.2019 17:25 20,2 °C 61 % 1028,3 hPa 0,0 mm 4,6 km/h (1 Bft) N-NW 329 ° 0 min 0,000 mm 1,0 UV-I 79 W/m² 12,4 °C 20,2 °C 8,0 km/h (2 Bft)
12.09.2019 17:26 20,2 °C 60 % 1028,3 hPa 0,0 mm 4,1 km/h (1 Bft) N-NO 32 ° 0 min 0,000 mm 0,0 UV-I 44 W/m² 12,2 °C 20,2 °C 6,4 km/h (2 Bft)
12.09.2019 17:27 20,2 °C 61 % 1028,3 hPa 0,0 mm 2,3 km/h (1 Bft) N 355 ° 0 min 0,000 mm 0,0 UV-I 39 W/m² 12,4 °C 20,2 °C 4,8 km/h (1 Bft)
12.09.2019 17:28 20,3 °C 62 % 1028,3 hPa 0,0 mm 0,0 km/h (0 Bft) N 355 ° 0 min 0,000 mm 0,0 UV-I 35 W/m² 12,8 °C 20,3 °C 0,0 km/h (0 Bft)
12.09.2019 17:29 20,3 °C 61 % 1028,3 hPa 0,0 mm 3,1 km/h (1 Bft) N-NW 346 ° 0 min 0,000 mm 0,0 UV-I 42 W/m² 12,5 °C 20,3 °C 4,8 km/h (1 Bft)
12.09.2019 17:30 20,3 °C 60 % 1028,3 hPa 0,0 mm 6,2 km/h (2 Bft) N-NO 17 ° 0 min 0,000 mm 0,0 UV-I 60 W/m² 12,3 °C 20,3 °C 8,0 km/h (2 Bft)
12.09.2019 17:31 20,3 °C 59 % 1028,2 hPa 0,0 mm 5,8 km/h (2 Bft) N-NO 19 ° 0 min 0,000 mm 0,0 UV-I 54 W/m² 12,0 °C 20,3 °C 6,4 km/h (2 Bft)
12.09.2019 17:32 20,3 °C 59 % 1028,3 hPa 0,0 mm 4,6 km/h (1 Bft) N 350 ° 0 min 0,000 mm 0,0 UV-I 40 W/m² 12,0 °C 20,3 °C 6,4 km/h (2 Bft)
12.09.2019 17:33 20,3 °C 60 % 1028,3 hPa 0,0 mm 2,6 km/h (1 Bft) N 350 ° 0 min 0,000 mm 0,0 UV-I 37 W/m² 12,3 °C 20,3 °C 4,8 km/h (1 Bft)
12.09.2019 17:34 20,3 °C 59 % 1028,3 hPa 0,0 mm 0,6 km/h (0 Bft) N 350 ° 0 min 0,000 mm 0,0 UV-I 37 W/m² 12,0 °C 20,3 °C 1,6 km/h (1 Bft)
12.09.2019 17:35 20,2 °C 59 % 1028,3 hPa 0,0 mm 0,1 km/h (0 Bft) N 350 ° 0 min 0,000 mm 0,0 UV-I 37 W/m² 11,9 °C 20,2 °C 1,6 km/h (1 Bft)
12.09.2019 17:36 20,2 °C 59 % 1028,3 hPa 0,0 mm 0,0 km/h (0 Bft) N 350 ° 0 min 0,000 mm 0,0 UV-I 35 W/m² 11,9 °C 20,2 °C 0,0 km/h (0 Bft)
12.09.2019 17:37 20,2 °C 59 % 1028,3 hPa 0,0 mm 0,0 km/h (0 Bft) N 350 ° 0 min 0,000 mm 0,0 UV-I 33 W/m² 11,9 °C 20,2 °C 0,0 km/h (0 Bft)
12.09.2019 17:38 20,1 °C 60 % 1028,2 hPa 0,0 mm 1,7 km/h (1 Bft) O-NO 66 ° 0 min 0,000 mm 0,0 UV-I 33 W/m² 12,1 °C 20,1 °C 3,2 km/h (1 Bft)
12.09.2019 17:39 19,9 °C 63 % 1028,3 hPa 0,0 mm 3,1 km/h (1 Bft) N-NO 26 ° 0 min 0,000 mm 0,0 UV-I 33 W/m² 12,6 °C 19,9 °C 4,8 km/h (1 Bft)
12.09.2019 17:40 19,8 °C 63 % 1028,2 hPa 0,0 mm 0,0 km/h (0 Bft) N-NO 26 ° 0 min 0,000 mm 0,0 UV-I 33 W/m² 12,5 °C 19,8 °C 0,0 km/h (0 Bft)
12.09.2019 17:41 19,7 °C 66 % 1028,2 hPa 0,0 mm 0,0 km/h (0 Bft) N 360 ° 0 min 0,000 mm 0,0 UV-I 33 W/m² 13,2 °C 19,7 °C 0,0 km/h (0 Bft)
12.09.2019 17:42 19,7 °C 64 % 1028,3 hPa 0,0 mm 0,9 km/h (0 Bft) NW 322 ° 0 min 0,000 mm 0,0 UV-I 33 W/m² 12,7 °C 19,7 °C 3,2 km/h (1 Bft)
12.09.2019 17:43 19,6 °C 65 % 1028,3 hPa 0,0 mm 1,0 km/h (0 Bft) NW 322 ° 0 min 0,000 mm 0,0 UV-I 33 W/m² 12,8 °C 19,6 °C 3,2 km/h (1 Bft)
12.09.2019 17:44 19,6 °C 66 % 1028,3 hPa 0,0 mm 0,0 km/h (0 Bft) NW 322 ° 0 min 0,000 mm 0,0 UV-I 33 W/m² 13,1 °C 19,6 °C 0,0 km/h (0 Bft)
12.09.2019 17:45 19,5 °C 68 % 1028,3 hPa 0,0 mm 2,5 km/h (1 Bft) N-NW 348 ° 0 min 0,000 mm 0,0 UV-I 33 W/m² 13,4 °C 19,5 °C 3,2 km/h (1 Bft)
12.09.2019 17:46 19,4 °C 68 % 1028,3 hPa 0,0 mm 0,6 km/h (0 Bft) N-NW 348 ° 0 min 0,000 mm 0,0 UV-I 33 W/m² 13,3 °C 19,4 °C 1,6 km/h (1 Bft)
12.09.2019 17:47 19,3 °C 67 % 1028,2 hPa 0,0 mm 0,0 km/h (0 Bft) N-NW 348 ° 0 min 0,000 mm 0,0 UV-I 32 W/m² 13,0 °C 19,3 °C 0,0 km/h (0 Bft)
12.09.2019 17:48 19,2 °C 69 % 1028,2 hPa 0,0 mm 0,0 km/h (0 Bft) N-NW 348 ° 0 min 0,000 mm 0,0 UV-I 32 W/m² 13,4 °C 19,2 °C 0,0 km/h (0 Bft)
12.09.2019 17:49 19,1 °C 68 % 1028,3 hPa 0,0 mm 0,1 km/h (0 Bft) N-NW 348 ° 0 min 0,000 mm 0,0 UV-I 33 W/m² 13,1 °C 19,1 °C 1,6 km/h (1 Bft)
12.09.2019 17:50 19,0 °C 69 % 1028,2 hPa 0,0 mm 0,6 km/h (0 Bft) N-NW 348 ° 0 min 0,000 mm 0,0 UV-I 35 W/m² 13,2 °C 19,0 °C 4,8 km/h (1 Bft)
12.09.2019 17:51 18,9 °C 70 % 1028,2 hPa 0,0 mm 0,0 km/h (0 Bft) N-NW 348 ° 0 min 0,000 mm 0,0 UV-I 35 W/m² 13,3 °C 18,9 °C 0,0 km/h (0 Bft)
12.09.2019 17:52 18,9 °C 68 % 1028,2 hPa 0,0 mm 0,0 km/h (0 Bft) N-NW 348 ° 0 min 0,000 mm 0,0 UV-I 32 W/m² 12,9 °C 18,9 °C 0,0 km/h (0 Bft)
12.09.2019 17:53 18,9 °C 68 % 1028,3 hPa 0,0 mm 0,0 km/h (0 Bft) N-NW 348 ° 0 min 0,000 mm 0,0 UV-I 32 W/m² 12,9 °C 18,9 °C 0,0 km/h (0 Bft)
12.09.2019 17:54 18,9 °C 68 % 1028,2 hPa 0,0 mm 2,1 km/h (1 Bft) N 360 ° 0 min 0,000 mm 0,0 UV-I 32 W/m² 12,9 °C 18,9 °C 4,8 km/h (1 Bft)
12.09.2019 17:55 19,0 °C 68 % 1028,2 hPa 0,0 mm 3,4 km/h (1 Bft) N 355 ° 0 min 0,000 mm 0,0 UV-I 32 W/m² 13,0 °C 19,0 °C 4,8 km/h (1 Bft)
12.09.2019 17:56 19,1 °C 66 % 1028,2 hPa 0,0 mm 3,2 km/h (1 Bft) N-NW 348 ° 0 min 0,000 mm 0,0 UV-I 32 W/m² 12,6 °C 19,1 °C 4,8 km/h (1 Bft)
12.09.2019 17:57 19,2 °C 65 % 1028,2 hPa 0,0 mm 1,9 km/h (1 Bft) N-NW 348 ° 0 min 0,000 mm 0,0 UV-I 32 W/m² 12,5 °C 19,2 °C 3,2 km/h (1 Bft)
12.09.2019 17:58 19,3 °C 67 % 1028,2 hPa 0,0 mm 0,1 km/h (0 Bft) N-NW 348 ° 0 min 0,000 mm 0,0 UV-I 32 W/m² 13,0 °C 19,3 °C 1,6 km/h (1 Bft)
12.09.2019 17:59 19,3 °C 67 % 1028,2 hPa 0,0 mm 0,0 km/h (0 Bft) N-NW 348 ° 0 min 0,000 mm 0,0 UV-I 30 W/m² 13,0 °C 19,3 °C 0,0 km/h (0 Bft)
12.09.2019 18:00 19,3 °C 66 % 1028,2 hPa 0,0 mm 3,4 km/h (1 Bft) N-NW 348 ° 0 min 0,000 mm 0,0 UV-I 30 W/m² 12,8 °C 19,3 °C 6,4 km/h (2 Bft)
12.09.2019 18:01 19,3 °C 67 % 1028,2 hPa 0,0 mm 2,8 km/h (1 Bft) N-NW 347 ° 0 min 0,051 mm 0,0 UV-I 32 W/m² 13,0 °C 19,3 °C 4,8 km/h (1 Bft)
12.09.2019 18:02 19,2 °C 68 % 1028,2 hPa 0,0 mm 3,9 km/h (1 Bft) NW 311 ° 0 min 0,000 mm 0,0 UV-I 32 W/m² 13,1 °C 19,2 °C 6,4 km/h (2 Bft)
12.09.2019 18:03 19,2 °C 67 % 1028,3 hPa 0,0 mm 6,5 km/h (2 Bft) NW 325 ° 0 min 0,000 mm 0,0 UV-I 33 W/m² 12,9 °C 19,2 °C 8,0 km/h (2 Bft)
12.09.2019 18:04 19,2 °C 65 % 1028,3 hPa 0,0 mm 4,0 km/h (1 Bft) NW 308 ° 0 min 0,000 mm 0,0 UV-I 32 W/m² 12,5 °C 19,2 °C 8,0 km/h (2 Bft)
12.09.2019 18:05 19,3 °C 64 % 1028,3 hPa 0,0 mm 3,6 km/h (1 Bft) NW 324 ° 0 min 0,000 mm 0,0 UV-I 30 W/m² 12,3 °C 19,3 °C 4,8 km/h (1 Bft)
12.09.2019 18:06 19,4 °C 65 % 1028,3 hPa 0,0 mm 3,8 km/h (1 Bft) NW 318 ° 0 min 0,000 mm 0,0 UV-I 30 W/m² 12,6 °C 19,4 °C 6,4 km/h (2 Bft)
12.09.2019 18:07 19,4 °C 65 % 1028,3 hPa 0,0 mm 3,0 km/h (1 Bft) N-NW 333 ° 0 min 0,000 mm 0,0 UV-I 30 W/m² 12,6 °C 19,4 °C 6,4 km/h (2 Bft)
12.09.2019 18:08 19,4 °C 64 % 1028,4 hPa 0,0 mm 2,5 km/h (1 Bft) N-NW 330 ° 0 min 0,000 mm 0,0 UV-I 30 W/m² 12,4 °C 19,4 °C 4,8 km/h (1 Bft)
12.09.2019 18:09 19,4 °C 64 % 1028,4 hPa 0,0 mm 4,0 km/h (1 Bft) NW 320 ° 0 min 0,000 mm 0,0 UV-I 30 W/m² 12,4 °C 19,4 °C 8,0 km/h (2 Bft)
12.09.2019 18:10 19,4 °C 63 % 1028,4 hPa 0,0 mm 5,4 km/h (1 Bft) NW 305 ° 0 min 0,000 mm 0,0 UV-I 30 W/m² 12,2 °C 19,4 °C 6,4 km/h (2 Bft)
12.09.2019 18:11 19,5 °C 62 % 1028,4 hPa 0,0 mm 4,2 km/h (1 Bft) N-NW 328 ° 0 min 0,000 mm 0,0 UV-I 30 W/m² 12,0 °C 19,5 °C 6,4 km/h (2 Bft)
12.09.2019 18:12 19,6 °C 62 % 1028,4 hPa 0,0 mm 5,4 km/h (1 Bft) N-NW 329 ° 0 min 0,000 mm 0,0 UV-I 30 W/m² 12,1 °C 19,6 °C 6,4 km/h (2 Bft)
12.09.2019 18:13 19,6 °C 62 % 1028,4 hPa 0,0 mm 2,3 km/h (1 Bft) N-NW 333 ° 0 min 0,000 mm 0,0 UV-I 30 W/m² 12,1 °C 19,6 °C 4,8 km/h (1 Bft)
12.09.2019 18:14 19,6 °C 62 % 1028,4 hPa 0,0 mm 3,4 km/h (1 Bft) N 9 ° 0 min 0,000 mm 0,0 UV-I 28 W/m² 12,1 °C 19,6 °C 6,4 km/h (2 Bft)
12.09.2019 18:15 19,7 °C 62 % 1028,4 hPa 0,0 mm 1,5 km/h (1 Bft) N 9 ° 0 min 0,000 mm 0,0 UV-I 28 W/m² 12,2 °C 19,7 °C 3,2 km/h (1 Bft)
12.09.2019 18:16 19,6 °C 63 % 1028,4 hPa 0,0 mm 1,9 km/h (1 Bft) N 9 ° 0 min 0,000 mm 0,0 UV-I 28 W/m² 12,4 °C 19,6 °C 3,2 km/h (1 Bft)
12.09.2019 18:17 19,6 °C 64 % 1028,4 hPa 0,0 mm 2,6 km/h (1 Bft) N 360 ° 0 min 0,000 mm 0,0 UV-I 28 W/m² 12,6 °C 19,6 °C 4,8 km/h (1 Bft)
12.09.2019 18:18 19,5 °C 64 % 1028,4 hPa 0,0 mm 1,8 km/h (1 Bft) N 360 ° 0 min 0,000 mm 0,0 UV-I 28 W/m² 12,5 °C 19,5 °C 3,2 km/h (1 Bft)
12.09.2019 18:19 19,4 °C 64 % 1028,4 hPa 0,0 mm 1,1 km/h (1 Bft) N 360 ° 0 min 0,000 mm 0,0 UV-I 28 W/m² 12,4 °C 19,4 °C 3,2 km/h (1 Bft)
12.09.2019 18:20 19,3 °C 66 % 1028,4 hPa 0,0 mm 1,8 km/h (1 Bft) N 360 ° 0 min 0,000 mm 0,0 UV-I 28 W/m² 12,8 °C 19,3 °C 3,2 km/h (1 Bft)
12.09.2019 18:21 19,2 °C 66 % 1028,4 hPa 0,0 mm 1,9 km/h (1 Bft) N 360 ° 0 min 0,000 mm 0,0 UV-I 26 W/m² 12,7 °C 19,2 °C 4,8 km/h (1 Bft)
12.09.2019 18:22 19,2 °C 65 % 1028,3 hPa 0,0 mm 0,3 km/h (0 Bft) N 360 ° 0 min 0,000 mm 0,0 UV-I 26 W/m² 12,5 °C 19,2 °C 1,6 km/h (1 Bft)
12.09.2019 18:23 19,2 °C 66 % 1028,3 hPa 0,0 mm 0,0 km/h (0 Bft) N 360 ° 0 min 0,000 mm 0,0 UV-I 26 W/m² 12,7 °C 19,2 °C 0,0 km/h (0 Bft)
12.09.2019 18:24 19,1 °C 67 % 1028,3 hPa 0,0 mm 1,2 km/h (1 Bft) N 360 ° 0 min 0,000 mm 0,0 UV-I 26 W/m² 12,8 °C 19,1 °C 3,2 km/h (1 Bft)
12.09.2019 18:25 18,9 °C 67 % 1028,3 hPa 0,0 mm 0,0 km/h (0 Bft) N 360 ° 0 min 0,000 mm 0,0 UV-I 26 W/m² 12,6 °C 18,9 °C 0,0 km/h (0 Bft)
12.09.2019 18:26 18,8 °C 67 % 1028,3 hPa 0,0 mm 0,0 km/h (0 Bft) N 360 ° 0 min 0,000 mm 0,0 UV-I 26 W/m² 12,5 °C 18,8 °C 0,0 km/h (0 Bft)
12.09.2019 18:27 18,8 °C 67 % 1028,2 hPa 0,0 mm 0,0 km/h (0 Bft) N 360 ° 0 min 0,000 mm 0,0 UV-I 26 W/m² 12,5 °C 18,8 °C 0,0 km/h (0 Bft)
12.09.2019 18:28 18,7 °C 67 % 1028,2 hPa 0,0 mm 0,0 km/h (0 Bft) N 360 ° 0 min 0,000 mm 0,0 UV-I 25 W/m² 12,4 °C 18,7 °C 0,0 km/h (0 Bft)
12.09.2019 18:29 18,7 °C 67 % 1028,2 hPa 0,0 mm 0,2 km/h (0 Bft) N 360 ° 0 min 0,000 mm 0,0 UV-I 25 W/m² 12,4 °C 18,7 °C 1,6 km/h (1 Bft)
12.09.2019 18:30 18,7 °C 67 % 1028,2 hPa 0,0 mm 0,5 km/h (0 Bft) N 360 ° 0 min 0,000 mm 0,0 UV-I 25 W/m² 12,4 °C 18,7 °C 3,2 km/h (1 Bft)
12.09.2019 18:31 18,6 °C 68 % 1028,2 hPa 0,0 mm 0,0 km/h (0 Bft) N 360 ° 0 min 0,000 mm 0,0 UV-I 26 W/m² 12,6 °C 18,6 °C 0,0 km/h (0 Bft)
12.09.2019 18:32 18,5 °C 68 % 1028,2 hPa 0,0 mm 1,0 km/h (0 Bft) N 360 ° 0 min 0,000 mm 0,0 UV-I 28 W/m² 12,5 °C 18,5 °C 3,2 km/h (1 Bft)
12.09.2019 18:33 18,5 °C 68 % 1028,2 hPa 0,0 mm 0,2 km/h (0 Bft) N 360 ° 0 min 0,000 mm 0,0 UV-I 26 W/m² 12,5 °C 18,5 °C 1,6 km/h (1 Bft)
12.09.2019 18:34 18,4 °C 68 % 1028,2 hPa 0,0 mm 0,0 km/h (0 Bft) N 360 ° 0 min 0,000 mm 0,0 UV-I 25 W/m² 12,4 °C 18,4 °C 0,0 km/h (0 Bft)
12.09.2019 18:35 18,4 °C 68 % 1028,2 hPa 0,0 mm 0,0 km/h (0 Bft) N 360 ° 0 min 0,000 mm 0,0 UV-I 30 W/m² 12,4 °C 18,4 °C 0,0 km/h (0 Bft)
12.09.2019 18:36 18,4 °C 68 % 1028,2 hPa 0,0 mm 0,0 km/h (0 Bft) N 360 ° 0 min 0,000 mm 0,0 UV-I 28 W/m² 12,4 °C 18,4 °C 0,0 km/h (0 Bft)
12.09.2019 18:37 18,4 °C 68 % 1028,2 hPa 0,0 mm 0,0 km/h (0 Bft) N 360 ° 0 min 0,000 mm 0,0 UV-I 25 W/m² 12,4 °C 18,4 °C 0,0 km/h (0 Bft)
12.09.2019 18:38 18,4 °C 67 % 1028,2 hPa 0,0 mm 0,0 km/h (0 Bft) N 360 ° 0 min 0,000 mm 0,0 UV-I 23 W/m² 12,2 °C 18,4 °C 0,0 km/h (0 Bft)
12.09.2019 18:39 18,4 °C 67 % 1028,2 hPa 0,0 mm 0,0 km/h (0 Bft) N 360 ° 0 min 0,000 mm 0,0 UV-I 25 W/m² 12,2 °C 18,4 °C 0,0 km/h (0 Bft)
12.09.2019 18:40 18,4 °C 67 % 1028,2 hPa 0,0 mm 0,0 km/h (0 Bft) N 360 ° 0 min 0,000 mm 0,0 UV-I 28 W/m² 12,2 °C 18,4 °C 0,0 km/h (0 Bft)
12.09.2019 18:41 18,4 °C 67 % 1028,2 hPa 0,0 mm 0,7 km/h (0 Bft) N 360 ° 0 min 0,000 mm 0,0 UV-I 26 W/m² 12,2 °C 18,4 °C 3,2 km/h (1 Bft)
12.09.2019 18:42 18,4 °C 67 % 1028,2 hPa 0,0 mm 0,0 km/h (0 Bft) N 360 ° 0 min 0,000 mm 0,0 UV-I 26 W/m² 12,2 °C 18,4 °C 0,0 km/h (0 Bft)
12.09.2019 18:43 18,2 °C 68 % 1028,2 hPa 0,0 mm 0,0 km/h (0 Bft) N 360 ° 0 min 0,000 mm 0,0 UV-I 32 W/m² 12,2 °C 18,2 °C 0,0 km/h (0 Bft)
12.09.2019 18:44 18,2 °C 67 % 1028,2 hPa 0,0 mm 0,0 km/h (0 Bft) N 360 ° 0 min 0,000 mm 0,0 UV-I 37 W/m² 12,0 °C 18,2 °C 0,0 km/h (0 Bft)
12.09.2019 18:45 18,2 °C 68 % 1028,3 hPa 0,0 mm 0,0 km/h (0 Bft) N 360 ° 0 min 0,000 mm 0,0 UV-I 35 W/m² 12,2 °C 18,2 °C 0,0 km/h (0 Bft)
12.09.2019 18:46 18,3 °C 68 % 1028,3 hPa 0,0 mm 0,0 km/h (0 Bft) N 360 ° 0 min 0,000 mm 0,0 UV-I 32 W/m² 12,3 °C 18,3 °C 0,0 km/h (0 Bft)
12.09.2019 18:47 18,3 °C 67 % 1028,3 hPa 0,0 mm 0,0 km/h (0 Bft) N 5 ° 0 min 0,000 mm 0,0 UV-I 25 W/m² 12,1 °C 18,3 °C 0,0 km/h (0 Bft)
12.09.2019 18:48 18,2 °C 68 % 1028,3 hPa 0,0 mm 0,0 km/h (0 Bft) N 9 ° 0 min 0,000 mm 0,0 UV-I 23 W/m² 12,2 °C 18,2 °C 0,0 km/h (0 Bft)
12.09.2019 18:49 18,2 °C 69 % 1028,3 hPa 0,0 mm 0,0 km/h (0 Bft) N 9 ° 0 min 0,000 mm 0,0 UV-I 25 W/m² 12,4 °C 18,2 °C 0,0 km/h (0 Bft)
12.09.2019 18:50 18,1 °C 69 % 1028,4 hPa 0,0 mm 0,0 km/h (0 Bft) N 9 ° 0 min 0,000 mm 0,0 UV-I 23 W/m² 12,3 °C 18,1 °C 0,0 km/h (0 Bft)
12.09.2019 18:51 18,1 °C 69 % 1028,4 hPa 0,0 mm 0,0 km/h (0 Bft) N 9 ° 0 min 0,000 mm 0,0 UV-I 23 W/m² 12,3 °C 18,1 °C 0,0 km/h (0 Bft)
12.09.2019 18:52 18,2 °C 68 % 1028,4 hPa 0,0 mm 0,0 km/h (0 Bft) N 9 ° 0 min 0,000 mm 0,0 UV-I 40 W/m² 12,2 °C 18,2 °C 0,0 km/h (0 Bft)
12.09.2019 18:53 18,2 °C 68 % 1028,3 hPa 0,0 mm 0,0 km/h (0 Bft) N 9 ° 0 min 0,000 mm 0,0 UV-I 44 W/m² 12,2 °C 18,2 °C 0,0 km/h (0 Bft)
12.09.2019 18:54 18,2 °C 68 % 1028,4 hPa 0,0 mm 0,0 km/h (0 Bft) N 9 ° 0 min 0,000 mm 0,0 UV-I 44 W/m² 12,2 °C 18,2 °C 0,0 km/h (0 Bft)
12.09.2019 18:55 18,2 °C 69 % 1028,5 hPa 0,0 mm 0,0 km/h (0 Bft) N 9 ° 0 min 0,000 mm 0,0 UV-I 42 W/m² 12,4 °C 18,2 °C 0,0 km/h (0 Bft)
12.09.2019 18:56 18,1 °C 69 % 1028,5 hPa 0,0 mm 0,0 km/h (0 Bft) N 9 ° 0 min 0,000 mm 0,0 UV-I 40 W/m² 12,3 °C 18,1 °C 0,0 km/h (0 Bft)
12.09.2019 18:57 18,1 °C 70 % 1028,5 hPa 0,0 mm 0,0 km/h (0 Bft) N 9 ° 0 min 0,000 mm 0,0 UV-I 39 W/m² 12,5 °C 18,1 °C 0,0 km/h (0 Bft)
12.09.2019 18:58 17,9 °C 71 % 1028,5 hPa 0,0 mm 0,0 km/h (0 Bft) N 9 ° 0 min 0,000 mm 0,0 UV-I 35 W/m² 12,6 °C 17,9 °C 0,0 km/h (0 Bft)
12.09.2019 18:59 17,8 °C 72 % 1028,5 hPa 0,0 mm 0,0 km/h (0 Bft) N 9 ° 0 min 0,000 mm 0,0 UV-I 35 W/m² 12,7 °C 17,8 °C 0,0 km/h (0 Bft)
12.09.2019 19:00 17,6 °C 73 % 1028,5 hPa 0,0 mm 0,0 km/h (0 Bft) N 9 ° 0 min 0,000 mm 0,0 UV-I 33 W/m² 12,7 °C 17,6 °C 0,0 km/h (0 Bft)
12.09.2019 19:01 17,6 °C 73 % 1028,6 hPa 0,0 mm 0,0 km/h (0 Bft) N 9 ° 0 min 0,025 mm 0,0 UV-I 32 W/m² 12,7 °C 17,6 °C 0,0 km/h (0 Bft)
12.09.2019 19:02 17,5 °C 74 % 1028,6 hPa 0,0 mm 0,0 km/h (0 Bft) N 9 ° 0 min 0,000 mm 0,0 UV-I 32 W/m² 12,8 °C 17,5 °C 0,0 km/h (0 Bft)
12.09.2019 19:03 17,4 °C 74 % 1028,6 hPa 0,0 mm 0,0 km/h (0 Bft) N 9 ° 0 min 0,000 mm 0,0 UV-I 30 W/m² 12,7 °C 17,4 °C 0,0 km/h (0 Bft)
12.09.2019 19:04 17,3 °C 74 % 1028,6 hPa 0,0 mm 0,0 km/h (0 Bft) N 9 ° 0 min 0,000 mm 0,0 UV-I 26 W/m² 12,6 °C 17,3 °C 0,0 km/h (0 Bft)
12.09.2019 19:05 17,3 °C 73 % 1028,6 hPa 0,0 mm 0,0 km/h (0 Bft) N 9 ° 0 min 0,000 mm 0,0 UV-I 26 W/m² 12,4 °C 17,3 °C 0,0 km/h (0 Bft)
12.09.2019 19:06 17,3 °C 74 % 1028,6 hPa 0,0 mm 0,0 km/h (0 Bft) N 9 ° 0 min 0,000 mm 0,0 UV-I 25 W/m² 12,6 °C 17,3 °C 0,0 km/h (0 Bft)
12.09.2019 19:07 17,2 °C 74 % 1028,6 hPa 0,0 mm 0,0 km/h (0 Bft) N 9 ° 0 min 0,000 mm 0,0 UV-I 23 W/m² 12,5 °C 17,2 °C 0,0 km/h (0 Bft)
12.09.2019 19:08 17,2 °C 75 % 1028,6 hPa 0,0 mm 0,0 km/h (0 Bft) N 9 ° 0 min 0,000 mm 0,0 UV-I 21 W/m² 12,7 °C 17,2 °C 0,0 km/h (0 Bft)
12.09.2019 19:09 17,2 °C 76 % 1028,6 hPa 0,0 mm 0,0 km/h (0 Bft) N 9 ° 0 min 0,000 mm 0,0 UV-I 18 W/m² 12,9 °C 17,2 °C 0,0 km/h (0 Bft)
12.09.2019 19:10 17,1 °C 76 % 1028,7 hPa 0,0 mm 0,0 km/h (0 Bft) N 9 ° 0 min 0,000 mm 0,0 UV-I 16 W/m² 12,8 °C 17,1 °C 0,0 km/h (0 Bft)
12.09.2019 19:11 17,1 °C 76 % 1028,6 hPa 0,0 mm 0,0 km/h (0 Bft) N 9 ° 0 min 0,000 mm 0,0 UV-I 14 W/m² 12,8 °C 17,1 °C 0,0 km/h (0 Bft)
12.09.2019 19:12 17,0 °C 76 % 1028,7 hPa 0,0 mm 0,0 km/h (0 Bft) N 9 ° 0 min 0,000 mm 0,0 UV-I 14 W/m² 12,7 °C 17,0 °C 0,0 km/h (0 Bft)
12.09.2019 19:13 16,9 °C 77 % 1028,7 hPa 0,0 mm 0,0 km/h (0 Bft) N 9 ° 0 min 0,000 mm 0,0 UV-I 14 W/m² 12,8 °C 16,9 °C 0,0 km/h (0 Bft)
12.09.2019 19:14 16,9 °C 78 % 1028,7 hPa 0,0 mm 0,0 km/h (0 Bft) N 9 ° 0 min 0,000 mm 0,0 UV-I 12 W/m² 13,0 °C 16,9 °C 0,0 km/h (0 Bft)
12.09.2019 19:15 16,7 °C 78 % 1028,7 hPa 0,0 mm 0,0 km/h (0 Bft) N 9 ° 0 min 0,000 mm 0,0 UV-I 12 W/m² 12,8 °C 16,7 °C 0,0 km/h (0 Bft)
12.09.2019 19:16 16,7 °C 78 % 1028,7 hPa 0,0 mm 0,0 km/h (0 Bft) N 9 ° 0 min 0,000 mm 0,0 UV-I 12 W/m² 12,8 °C 16,7 °C 0,0 km/h (0 Bft)
12.09.2019 19:17 16,6 °C 78 % 1028,7 hPa 0,0 mm 0,0 km/h (0 Bft) N 9 ° 0 min 0,000 mm 0,0 UV-I 12 W/m² 12,7 °C 16,6 °C 0,0 km/h (0 Bft)
12.09.2019 19:18 16,6 °C 78 % 1028,7 hPa 0,0 mm 0,0 km/h (0 Bft) N 9 ° 0 min 0,000 mm 0,0 UV-I 11 W/m² 12,7 °C 16,6 °C 0,0 km/h (0 Bft)
12.09.2019 19:19 16,4 °C 79 % 1028,7 hPa 0,0 mm 0,0 km/h (0 Bft) N 9 ° 0 min 0,000 mm 0,0 UV-I 11 W/m² 12,7 °C 16,4 °C 0,0 km/h (0 Bft)
12.09.2019 19:20 16,4 °C 79 % 1028,8 hPa 0,0 mm 0,0 km/h (0 Bft) N 5 ° 0 min 0,000 mm 0,0 UV-I 11 W/m² 12,7 °C 16,4 °C 0,0 km/h (0 Bft)
12.09.2019 19:21 16,3 °C 79 % 1028,7 hPa 0,0 mm 0,0 km/h (0 Bft) N 5 ° 0 min 0,000 mm 0,0 UV-I 9 W/m² 12,6 °C 16,3 °C 0,0 km/h (0 Bft)
12.09.2019 19:22 16,3 °C 79 % 1028,7 hPa 0,0 mm 0,0 km/h (0 Bft) N 5 ° 0 min 0,000 mm 0,0 UV-I 9 W/m² 12,6 °C 16,3 °C 0,0 km/h (0 Bft)
12.09.2019 19:23 16,2 °C 80 % 1028,7 hPa 0,0 mm 0,0 km/h (0 Bft) N 5 ° 0 min 0,000 mm 0,0 UV-I 9 W/m² 12,7 °C 16,2 °C 0,0 km/h (0 Bft)
12.09.2019 19:24 16,1 °C 80 % 1028,8 hPa 0,0 mm 0,0 km/h (0 Bft) N 5 ° 0 min 0,000 mm 0,0 UV-I 9 W/m² 12,6 °C 16,1 °C 0,0 km/h (0 Bft)
12.09.2019 19:25 16,1 °C 80 % 1028,7 hPa 0,0 mm 0,0 km/h (0 Bft) N 5 ° 0 min 0,000 mm 0,0 UV-I 7 W/m² 12,6 °C 16,1 °C 0,0 km/h (0 Bft)
12.09.2019 19:26 16,0 °C 80 % 1028,7 hPa 0,0 mm 0,0 km/h (0 Bft) N 5 ° 0 min 0,000 mm 0,0 UV-I 7 W/m² 12,5 °C 16,0 °C 0,0 km/h (0 Bft)
12.09.2019 19:27 15,9 °C 80 % 1028,7 hPa 0,0 mm 0,0 km/h (0 Bft) N 5 ° 0 min 0,000 mm 0,0 UV-I 7 W/m² 12,5 °C 15,9 °C 0,0 km/h (0 Bft)
12.09.2019 19:28 15,9 °C 80 % 1028,7 hPa 0,0 mm 0,0 km/h (0 Bft) N 5 ° 0 min 0,000 mm 0,0 UV-I 7 W/m² 12,5 °C 15,9 °C 0,0 km/h (0 Bft)
12.09.2019 19:29 15,9 °C 79 % 1028,8 hPa 0,0 mm 1,1 km/h (1 Bft) N 5 ° 0 min 0,000 mm 0,0 UV-I 7 W/m² 12,3 °C 15,9 °C 3,2 km/h (1 Bft)
12.09.2019 19:30 15,9 °C 79 % 1028,7 hPa 0,0 mm 2,1 km/h (1 Bft) N 5 ° 0 min 0,000 mm 0,0 UV-I 5 W/m² 12,3 °C 15,9 °C 3,2 km/h (1 Bft)
12.09.2019 19:31 15,9 °C 79 % 1028,6 hPa 0,0 mm 2,3 km/h (1 Bft) N 5 ° 0 min 0,000 mm 0,0 UV-I 5 W/m² 12,3 °C 15,9 °C 3,2 km/h (1 Bft)
12.09.2019 19:32 15,9 °C 79 % 1028,7 hPa 0,0 mm 0,3 km/h (0 Bft) N 5 ° 0 min 0,000 mm 0,0 UV-I 5 W/m² 12,3 °C 15,9 °C 1,6 km/h (1 Bft)
12.09.2019 19:33 15,8 °C 79 % 1028,7 hPa 0,0 mm 0,0 km/h (0 Bft) N 9 ° 0 min 0,000 mm 0,0 UV-I 5 W/m² 12,2 °C 15,8 °C 0,0 km/h (0 Bft)
12.09.2019 19:34 15,7 °C 79 % 1028,8 hPa 0,0 mm 0,0 km/h (0 Bft) N 9 ° 0 min 0,000 mm 0,0 UV-I 5 W/m² 12,1 °C 15,7 °C 0,0 km/h (0 Bft)
12.09.2019 19:35 15,4 °C 80 % 1028,8 hPa 0,0 mm 0,0 km/h (0 Bft) N 9 ° 0 min 0,000 mm 0,0 UV-I 5 W/m² 12,0 °C 15,4 °C 0,0 km/h (0 Bft)
12.09.2019 19:36 15,2 °C 81 % 1028,8 hPa 0,0 mm 0,0 km/h (0 Bft) N 9 ° 0 min 0,000 mm 0,0 UV-I 0 W/m² 12,0 °C 15,2 °C 0,0 km/h (0 Bft)
12.09.2019 19:37 15,1 °C 82 % 1028,8 hPa 0,0 mm 0,0 km/h (0 Bft) N 9 ° 0 min 0,000 mm 0,0 UV-I 0 W/m² 12,0 °C 15,1 °C 0,0 km/h (0 Bft)
12.09.2019 19:38 14,9 °C 83 % 1028,8 hPa 0,0 mm 0,0 km/h (0 Bft) N 9 ° 0 min 0,000 mm 0,0 UV-I 0 W/m² 12,0 °C 14,9 °C 0,0 km/h (0 Bft)
12.09.2019 19:39 14,9 °C 83 % 1028,9 hPa 0,0 mm 0,0 km/h (0 Bft) N 9 ° 0 min 0,000 mm 0,0 UV-I 0 W/m² 12,0 °C 14,9 °C 0,0 km/h (0 Bft)
12.09.2019 19:40 14,8 °C 83 % 1028,9 hPa 0,0 mm 0,0 km/h (0 Bft) N 9 ° 0 min 0,000 mm 0,0 UV-I 0 W/m² 11,9 °C 14,8 °C 0,0 km/h (0 Bft)
12.09.2019 19:41 14,7 °C 83 % 1028,9 hPa 0,0 mm 0,0 km/h (0 Bft) N 9 ° 0 min 0,000 mm 0,0 UV-I 0 W/m² 11,8 °C 14,7 °C 0,0 km/h (0 Bft)
12.09.2019 19:42 14,6 °C 83 % 1028,9 hPa 0,0 mm 0,0 km/h (0 Bft) N 9 ° 0 min 0,000 mm 0,0 UV-I 0 W/m² 11,7 °C 14,6 °C 0,0 km/h (0 Bft)
12.09.2019 19:43 14,4 °C 83 % 1028,9 hPa 0,0 mm 0,0 km/h (0 Bft) N 9 ° 0 min 0,000 mm 0,0 UV-I 0 W/m² 11,5 °C 14,4 °C 0,0 km/h (0 Bft)
12.09.2019 19:44 14,3 °C 84 % 1028,9 hPa 0,0 mm 0,0 km/h (0 Bft) N 9 ° 0 min 0,000 mm 0,0 UV-I 0 W/m² 11,6 °C 14,3 °C 0,0 km/h (0 Bft)
12.09.2019 19:45 14,2 °C 84 % 1028,9 hPa 0,0 mm 0,0 km/h (0 Bft) N 9 ° 0 min 0,000 mm 0,0 UV-I 0 W/m² 11,5 °C 14,2 °C 0,0 km/h (0 Bft)
12.09.2019 19:46 14,1 °C 84 % 1028,9 hPa 0,0 mm 0,1 km/h (0 Bft) N 9 ° 0 min 0,000 mm 0,0 UV-I 0 W/m² 11,4 °C 14,1 °C 1,6 km/h (1 Bft)
12.09.2019 19:47 13,9 °C 84 % 1028,9 hPa 0,0 mm 0,7 km/h (0 Bft) N 9 ° 0 min 0,000 mm 0,0 UV-I 0 W/m² 11,2 °C 13,9 °C 3,2 km/h (1 Bft)
12.09.2019 19:48 13,8 °C 85 % 1028,9 hPa 0,0 mm 0,0 km/h (0 Bft) N 9 ° 0 min 0,000 mm 0,0 UV-I 0 W/m² 11,3 °C 13,8 °C 0,0 km/h (0 Bft)
12.09.2019 19:49 13,8 °C 85 % 1028,9 hPa 0,0 mm 0,0 km/h (0 Bft) N 9 ° 0 min 0,000 mm 0,0 UV-I 0 W/m² 11,3 °C 13,8 °C 0,0 km/h (0 Bft)
12.09.2019 19:50 13,7 °C 86 % 1028,9 hPa 0,0 mm 0,0 km/h (0 Bft) N 9 ° 0 min 0,000 mm 0,0 UV-I 0 W/m² 11,4 °C 13,7 °C 0,0 km/h (0 Bft)
12.09.2019 19:51 13,6 °C 86 % 1028,9 hPa 0,0 mm 0,0 km/h (0 Bft) N 9 ° 0 min 0,000 mm 0,0 UV-I 0 W/m² 11,3 °C 13,6 °C 0,0 km/h (0 Bft)
12.09.2019 19:52 13,6 °C 86 % 1028,9 hPa 0,0 mm 0,0 km/h (0 Bft) N 9 ° 0 min 0,000 mm 0,0 UV-I 0 W/m² 11,3 °C 13,6 °C 0,0 km/h (0 Bft)
12.09.2019 19:53 13,6 °C 87 % 1028,9 hPa 0,0 mm 0,0 km/h (0 Bft) N 9 ° 0 min 0,000 mm 0,0 UV-I 0 W/m² 11,5 °C 13,6 °C 0,0 km/h (0 Bft)
12.09.2019 19:54 13,6 °C 88 % 1029,0 hPa 0,0 mm 0,1 km/h (0 Bft) N 9 ° 0 min 0,000 mm 0,0 UV-I 0 W/m² 11,6 °C 13,6 °C 1,6 km/h (1 Bft)
12.09.2019 19:55 13,6 °C 88 % 1028,9 hPa 0,0 mm 0,0 km/h (0 Bft) N 9 ° 0 min 0,000 mm 0,0 UV-I 0 W/m² 11,6 °C 13,6 °C 0,0 km/h (0 Bft)
12.09.2019 19:56 13,7 °C 88 % 1028,9 hPa 0,0 mm 0,0 km/h (0 Bft) N 9 ° 0 min 0,000 mm 0,0 UV-I 0 W/m² 11,7 °C 13,7 °C 0,0 km/h (0 Bft)
12.09.2019 19:57 13,7 °C 88 % 1028,9 hPa 0,0 mm 0,0 km/h (0 Bft) N 9 ° 0 min 0,000 mm 0,0 UV-I 0 W/m² 11,7 °C 13,7 °C 0,0 km/h (0 Bft)
12.09.2019 19:58 13,7 °C 88 % 1028,9 hPa 0,0 mm 0,0 km/h (0 Bft) N 9 ° 0 min 0,000 mm 0,0 UV-I 0 W/m² 11,7 °C 13,7 °C 0,0 km/h (0 Bft)
12.09.2019 19:59 13,7 °C 88 % 1029,0 hPa 0,0 mm 0,0 km/h (0 Bft) N 9 ° 0 min 0,000 mm 0,0 UV-I 0 W/m² 11,7 °C 13,7 °C 0,0 km/h (0 Bft)
12.09.2019 20:00 13,7 °C 88 % 1029,0 hPa 0,0 mm 0,0 km/h (0 Bft) N 9 ° 0 min 0,000 mm 0,0 UV-I 0 W/m² 11,7 °C 13,7 °C 0,0 km/h (0 Bft)
12.09.2019 20:01 13,8 °C 88 % 1029,1 hPa 0,0 mm 0,0 km/h (0 Bft) N 9 ° 0 min 0,000 mm 0,0 UV-I 0 W/m² 11,8 °C 13,8 °C 0,0 km/h (0 Bft)
12.09.2019 20:02 13,8 °C 88 % 1029,1 hPa 0,0 mm 0,0 km/h (0 Bft) N 9 ° 0 min 0,000 mm 0,0 UV-I 0 W/m² 11,8 °C 13,8 °C 0,0 km/h (0 Bft)
12.09.2019 20:03 13,8 °C 88 % 1029,1 hPa 0,0 mm 0,0 km/h (0 Bft) N 9 ° 0 min 0,000 mm 0,0 UV-I 0 W/m² 11,8 °C 13,8 °C 0,0 km/h (0 Bft)
12.09.2019 20:04 13,8 °C 87 % 1029,1 hPa 0,0 mm 0,0 km/h (0 Bft) N 9 ° 0 min 0,000 mm 0,0 UV-I 0 W/m² 11,7 °C 13,8 °C 0,0 km/h (0 Bft)
12.09.2019 20:05 13,8 °C 87 % 1029,1 hPa 0,0 mm 0,0 km/h (0 Bft) N 9 ° 0 min 0,000 mm 0,0 UV-I 0 W/m² 11,7 °C 13,8 °C 0,0 km/h (0 Bft)
12.09.2019 20:06 13,9 °C 87 % 1029,1 hPa 0,0 mm 1,0 km/h (0 Bft) N 9 ° 0 min 0,000 mm 0,0 UV-I 0 W/m² 11,8 °C 13,9 °C 3,2 km/h (1 Bft)
12.09.2019 20:07 13,9 °C 87 % 1029,1 hPa 0,0 mm 4,0 km/h (1 Bft) N 9 ° 0 min 0,000 mm 0,0 UV-I 0 W/m² 11,8 °C 13,9 °C 4,8 km/h (1 Bft)
12.09.2019 20:08 13,9 °C 86 % 1029,1 hPa 0,0 mm 2,9 km/h (1 Bft) N 9 ° 0 min 0,000 mm 0,0 UV-I 0 W/m² 11,6 °C 13,9 °C 3,2 km/h (1 Bft)
12.09.2019 20:09 13,8 °C 86 % 1029,2 hPa 0,0 mm 2,5 km/h (1 Bft) N 9 ° 0 min 0,000 mm 0,0 UV-I 0 W/m² 11,5 °C 13,8 °C 3,2 km/h (1 Bft)
12.09.2019 20:10 13,8 °C 86 % 1029,1 hPa 0,0 mm 1,3 km/h (1 Bft) N 9 ° 0 min 0,000 mm 0,0 UV-I 0 W/m² 11,5 °C 13,8 °C 3,2 km/h (1 Bft)
12.09.2019 20:11 13,7 °C 86 % 1029,2 hPa 0,0 mm 0,7 km/h (0 Bft) N 9 ° 0 min 0,000 mm 0,0 UV-I 0 W/m² 11,4 °C 13,7 °C 1,6 km/h (1 Bft)
12.09.2019 20:12 13,8 °C 87 % 1029,2 hPa 0,0 mm 0,0 km/h (0 Bft) N 9 ° 0 min 0,000 mm 0,0 UV-I 0 W/m² 11,7 °C 13,8 °C 0,0 km/h (0 Bft)
12.09.2019 20:13 13,7 °C 86 % 1029,2 hPa 0,0 mm 0,0 km/h (0 Bft) N 9 ° 0 min 0,000 mm 0,0 UV-I 0 W/m² 11,4 °C 13,7 °C 0,0 km/h (0 Bft)
12.09.2019 20:14 13,7 °C 86 % 1029,2 hPa 0,0 mm 0,0 km/h (0 Bft) N 9 ° 0 min 0,000 mm 0,0 UV-I 0 W/m² 11,4 °C 13,7 °C 0,0 km/h (0 Bft)
12.09.2019 20:15 13,7 °C 87 % 1029,2 hPa 0,0 mm 2,3 km/h (1 Bft) N 9 ° 0 min 0,000 mm 0,0 UV-I 0 W/m² 11,6 °C 13,7 °C 4,8 km/h (1 Bft)
12.09.2019 20:16 13,7 °C 87 % 1029,2 hPa 0,0 mm 3,4 km/h (1 Bft) N 5 ° 0 min 0,000 mm 0,0 UV-I 0 W/m² 11,6 °C 13,7 °C 4,8 km/h (1 Bft)
12.09.2019 20:17 13,8 °C 87 % 1029,2 hPa 0,0 mm 1,9 km/h (1 Bft) N 5 ° 0 min 0,000 mm 0,0 UV-I 0 W/m² 11,7 °C 13,8 °C 3,2 km/h (1 Bft)
12.09.2019 20:18 13,8 °C 87 % 1029,2 hPa 0,0 mm 1,1 km/h (1 Bft) N 5 ° 0 min 0,000 mm 0,0 UV-I 0 W/m² 11,7 °C 13,8 °C 3,2 km/h (1 Bft)
12.09.2019 20:19 13,8 °C 87 % 1029,2 hPa 0,0 mm 1,8 km/h (1 Bft) N 5 ° 0 min 0,000 mm 0,0 UV-I 0 W/m² 11,7 °C 13,8 °C 3,2 km/h (1 Bft)
12.09.2019 20:20 13,8 °C 87 % 1029,2 hPa 0,0 mm 2,7 km/h (1 Bft) N 5 ° 0 min 0,000 mm 0,0 UV-I 0 W/m² 11,7 °C 13,8 °C 3,2 km/h (1 Bft)
12.09.2019 20:21 13,8 °C 87 % 1029,2 hPa 0,0 mm 2,7 km/h (1 Bft) N 360 ° 0 min 0,000 mm 0,0 UV-I 0 W/m² 11,7 °C 13,8 °C 3,2 km/h (1 Bft)
12.09.2019 20:22 13,9 °C 87 % 1029,2 hPa 0,0 mm 3,1 km/h (1 Bft) S 177 ° 0 min 0,000 mm 0,0 UV-I 0 W/m² 11,8 °C 13,9 °C 4,8 km/h (1 Bft)
12.09.2019 20:23 13,8 °C 87 % 1029,2 hPa 0,0 mm 2,2 km/h (1 Bft) S 177 ° 0 min 0,000 mm 0,0 UV-I 0 W/m² 11,7 °C 13,8 °C 3,2 km/h (1 Bft)
12.09.2019 20:24 13,8 °C 87 % 1029,2 hPa 0,0 mm 2,5 km/h (1 Bft) S 177 ° 0 min 0,000 mm 0,0 UV-I 0 W/m² 11,7 °C 13,8 °C 4,8 km/h (1 Bft)
12.09.2019 20:25 13,8 °C 87 % 1029,2 hPa 0,0 mm 3,3 km/h (1 Bft) S 177 ° 0 min 0,000 mm 0,0 UV-I 0 W/m² 11,7 °C 13,8 °C 4,8 km/h (1 Bft)
12.09.2019 20:26 13,8 °C 87 % 1029,2 hPa 0,0 mm 3,1 km/h (1 Bft) S 177 ° 0 min 0,000 mm 0,0 UV-I 0 W/m² 11,7 °C 13,8 °C 4,8 km/h (1 Bft)
12.09.2019 20:27 13,8 °C 87 % 1029,2 hPa 0,0 mm 2,7 km/h (1 Bft) S 177 ° 0 min 0,000 mm 0,0 UV-I 0 W/m² 11,7 °C 13,8 °C 3,2 km/h (1 Bft)
12.09.2019 20:28 13,8 °C 87 % 1029,2 hPa 0,0 mm 2,7 km/h (1 Bft) S 177 ° 0 min 0,000 mm 0,0 UV-I 0 W/m² 11,7 °C 13,8 °C 4,8 km/h (1 Bft)
12.09.2019 20:29 13,8 °C 87 % 1029,2 hPa 0,0 mm 1,9 km/h (1 Bft) S 177 ° 0 min 0,000 mm 0,0 UV-I 0 W/m² 11,7 °C 13,8 °C 3,2 km/h (1 Bft)
12.09.2019 20:30 13,8 °C 87 % 1029,2 hPa 0,0 mm 0,9 km/h (0 Bft) S 177 ° 0 min 0,000 mm 0,0 UV-I 0 W/m² 11,7 °C 13,8 °C 3,2 km/h (1 Bft)
12.09.2019 20:31 13,7 °C 87 % 1029,2 hPa 0,0 mm 0,4 km/h (0 Bft) S 177 ° 0 min 0,000 mm 0,0 UV-I 0 W/m² 11,6 °C 13,7 °C 1,6 km/h (1 Bft)
12.09.2019 20:32 13,7 °C 87 % 1029,2 hPa 0,0 mm 0,5 km/h (0 Bft) S 177 ° 0 min 0,000 mm 0,0 UV-I 0 W/m² 11,6 °C 13,7 °C 3,2 km/h (1 Bft)
12.09.2019 20:33 13,6 °C 87 % 1029,2 hPa 0,0 mm 0,5 km/h (0 Bft) S 177 ° 0 min 0,000 mm 0,0 UV-I 0 W/m² 11,5 °C 13,6 °C 3,2 km/h (1 Bft)
12.09.2019 20:34 13,5 °C 88 % 1029,3 hPa 0,0 mm 1,4 km/h (1 Bft) S 177 ° 0 min 0,000 mm 0,0 UV-I 0 W/m² 11,6 °C 13,5 °C 3,2 km/h (1 Bft)
12.09.2019 20:35 13,4 °C 88 % 1029,3 hPa 0,0 mm 0,0 km/h (0 Bft) S 177 ° 0 min 0,000 mm 0,0 UV-I 0 W/m² 11,5 °C 13,4 °C 0,0 km/h (0 Bft)
12.09.2019 20:36 13,4 °C 88 % 1029,3 hPa 0,0 mm 0,0 km/h (0 Bft) S 177 ° 0 min 0,000 mm 0,0 UV-I 0 W/m² 11,5 °C 13,4 °C 0,0 km/h (0 Bft)
12.09.2019 20:37 13,4 °C 88 % 1029,3 hPa 0,0 mm 0,0 km/h (0 Bft) S 177 ° 0 min 0,000 mm 0,0 UV-I 0 W/m² 11,5 °C 13,4 °C 0,0 km/h (0 Bft)
12.09.2019 20:38 13,4 °C 88 % 1029,3 hPa 0,0 mm 0,0 km/h (0 Bft) S 177 ° 0 min 0,000 mm 0,0 UV-I 0 W/m² 11,5 °C 13,4 °C 0,0 km/h (0 Bft)
12.09.2019 20:39 13,4 °C 88 % 1029,3 hPa 0,0 mm 0,0 km/h (0 Bft) S 177 ° 0 min 0,000 mm 0,0 UV-I 0 W/m² 11,5 °C 13,4 °C 0,0 km/h (0 Bft)
12.09.2019 20:40 13,4 °C 89 % 1029,3 hPa 0,0 mm 0,0 km/h (0 Bft) S 177 ° 0 min 0,000 mm 0,0 UV-I 0 W/m² 11,6 °C 13,4 °C 0,0 km/h (0 Bft)
12.09.2019 20:41 13,4 °C 89 % 1029,3 hPa 0,0 mm 0,0 km/h (0 Bft) S 177 ° 0 min 0,000 mm 0,0 UV-I 0 W/m² 11,6 °C 13,4 °C 0,0 km/h (0 Bft)
12.09.2019 20:42 13,4 °C 89 % 1029,4 hPa 0,0 mm 0,0 km/h (0 Bft) S 177 ° 0 min 0,000 mm 0,0 UV-I 0 W/m² 11,6 °C 13,4 °C 0,0 km/h (0 Bft)
12.09.2019 20:43 13,4 °C 89 % 1029,4 hPa 0,0 mm 0,0 km/h (0 Bft) S 177 ° 0 min 0,000 mm 0,0 UV-I 0 W/m² 11,6 °C 13,4 °C 0,0 km/h (0 Bft)
12.09.2019 20:44 13,5 °C 89 % 1029,4 hPa 0,0 mm 0,0 km/h (0 Bft) S 177 ° 0 min 0,000 mm 0,0 UV-I 0 W/m² 11,7 °C 13,5 °C 0,0 km/h (0 Bft)
12.09.2019 20:45 13,5 °C 89 % 1029,4 hPa 0,0 mm 0,0 km/h (0 Bft) S 177 ° 0 min 0,000 mm 0,0 UV-I 0 W/m² 11,7 °C 13,5 °C 0,0 km/h (0 Bft)
12.09.2019 20:46 13,4 °C 89 % 1029,4 hPa 0,0 mm 0,0 km/h (0 Bft) S 177 ° 0 min 0,000 mm 0,0 UV-I 0 W/m² 11,6 °C 13,4 °C 0,0 km/h (0 Bft)
12.09.2019 20:47 13,4 °C 89 % 1029,4 hPa 0,0 mm 0,0 km/h (0 Bft) S 177 ° 0 min 0,000 mm 0,0 UV-I 0 W/m² 11,6 °C 13,4 °C 0,0 km/h (0 Bft)
12.09.2019 20:48 13,4 °C 89 % 1029,4 hPa 0,0 mm 0,0 km/h (0 Bft) S 177 ° 0 min 0,000 mm 0,0 UV-I 0 W/m² 11,6 °C 13,4 °C 0,0 km/h (0 Bft)
12.09.2019 20:49 13,4 °C 89 % 1029,4 hPa 0,0 mm 0,0 km/h (0 Bft) S 177 ° 0 min 0,000 mm 0,0 UV-I 0 W/m² 11,6 °C 13,4 °C 0,0 km/h (0 Bft)
12.09.2019 20:50 13,4 °C 89 % 1029,4 hPa 0,0 mm 0,0 km/h (0 Bft) S 177 ° 0 min 0,000 mm 0,0 UV-I 0 W/m² 11,6 °C 13,4 °C 0,0 km/h (0 Bft)
12.09.2019 20:51 13,4 °C 89 % 1029,4 hPa 0,0 mm 0,0 km/h (0 Bft) S 177 ° 0 min 0,000 mm 0,0 UV-I 0 W/m² 11,6 °C 13,4 °C 0,0 km/h (0 Bft)
12.09.2019 20:52 13,3 °C 89 % 1029,5 hPa 0,0 mm 0,0 km/h (0 Bft) S 177 ° 0 min 0,000 mm 0,0 UV-I 0 W/m² 11,5 °C 13,3 °C 0,0 km/h (0 Bft)
12.09.2019 20:53 13,3 °C 89 % 1029,4 hPa 0,0 mm 0,0 km/h (0 Bft) S 177 ° 0 min 0,000 mm 0,0 UV-I 0 W/m² 11,5 °C 13,3 °C 0,0 km/h (0 Bft)
12.09.2019 20:54 13,2 °C 89 % 1029,5 hPa 0,0 mm 0,0 km/h (0 Bft) S 177 ° 0 min 0,000 mm 0,0 UV-I 0 W/m² 11,4 °C 13,2 °C 0,0 km/h (0 Bft)
12.09.2019 20:55 13,1 °C 89 % 1029,5 hPa 0,0 mm 0,0 km/h (0 Bft) S 177 ° 0 min 0,000 mm 0,0 UV-I 0 W/m² 11,3 °C 13,1 °C 0,0 km/h (0 Bft)
12.09.2019 20:56 13,1 °C 89 % 1029,5 hPa 0,0 mm 0,0 km/h (0 Bft) S 177 ° 0 min 0,000 mm 0,0 UV-I 0 W/m² 11,3 °C 13,1 °C 0,0 km/h (0 Bft)
12.09.2019 20:57 13,0 °C 89 % 1029,5 hPa 0,0 mm 0,0 km/h (0 Bft) S 177 ° 0 min 0,000 mm 0,0 UV-I 0 W/m² 11,2 °C 13,0 °C 0,0 km/h (0 Bft)
12.09.2019 20:58 12,9 °C 89 % 1029,5 hPa 0,0 mm 0,0 km/h (0 Bft) S 177 ° 0 min 0,000 mm 0,0 UV-I 0 W/m² 11,1 °C 12,9 °C 0,0 km/h (0 Bft)
12.09.2019 20:59 12,9 °C 90 % 1029,5 hPa 0,0 mm 0,0 km/h (0 Bft) S 177 ° 0 min 0,000 mm 0,0 UV-I 0 W/m² 11,3 °C 12,9 °C 0,0 km/h (0 Bft)
12.09.2019 21:00 12,8 °C 89 % 1029,4 hPa 0,0 mm 0,0 km/h (0 Bft) S 177 ° 0 min 0,000 mm 0,0 UV-I 0 W/m² 11,0 °C 12,8 °C 0,0 km/h (0 Bft)
12.09.2019 21:01 12,8 °C 90 % 1029,5 hPa 0,0 mm 0,0 km/h (0 Bft) S 177 ° 0 min 0,000 mm 0,0 UV-I 0 W/m² 11,2 °C 12,8 °C 0,0 km/h (0 Bft)
12.09.2019 21:02 12,8 °C 90 % 1029,4 hPa 0,0 mm 0,0 km/h (0 Bft) S 177 ° 0 min 0,000 mm 0,0 UV-I 0 W/m² 11,2 °C 12,8 °C 0,0 km/h (0 Bft)
12.09.2019 21:03 12,7 °C 90 % 1029,4 hPa 0,0 mm 0,0 km/h (0 Bft) S 177 ° 0 min 0,000 mm 0,0 UV-I 0 W/m² 11,1 °C 12,7 °C 0,0 km/h (0 Bft)
12.09.2019 21:04 12,7 °C 90 % 1029,5 hPa 0,0 mm 0,0 km/h (0 Bft) S 177 ° 0 min 0,000 mm 0,0 UV-I 0 W/m² 11,1 °C 12,7 °C 0,0 km/h (0 Bft)
12.09.2019 21:05 12,6 °C 90 % 1029,5 hPa 0,0 mm 0,0 km/h (0 Bft) S 177 ° 0 min 0,000 mm 0,0 UV-I 0 W/m² 11,0 °C 12,6 °C 0,0 km/h (0 Bft)
12.09.2019 21:06 12,6 °C 91 % 1029,6 hPa 0,0 mm 0,0 km/h (0 Bft) S 177 ° 0 min 0,000 mm 0,0 UV-I 0 W/m² 11,2 °C 12,6 °C 0,0 km/h (0 Bft)
12.09.2019 21:07 12,6 °C 91 % 1029,5 hPa 0,0 mm 0,0 km/h (0 Bft) S 177 ° 0 min 0,000 mm 0,0 UV-I 0 W/m² 11,2 °C 12,6 °C 0,0 km/h (0 Bft)
12.09.2019 21:08 12,6 °C 91 % 1029,5 hPa 0,0 mm 0,0 km/h (0 Bft) S 177 ° 0 min 0,000 mm 0,0 UV-I 0 W/m² 11,2 °C 12,6 °C 0,0 km/h (0 Bft)
12.09.2019 21:09 12,6 °C 91 % 1029,6 hPa 0,0 mm 0,0 km/h (0 Bft) S 177 ° 0 min 0,000 mm 0,0 UV-I 0 W/m² 11,2 °C 12,6 °C 0,0 km/h (0 Bft)
12.09.2019 21:10 12,6 °C 91 % 1029,5 hPa 0,0 mm 0,0 km/h (0 Bft) S 177 ° 0 min 0,000 mm 0,0 UV-I 0 W/m² 11,2 °C 12,6 °C 0,0 km/h (0 Bft)
12.09.2019 21:11 12,6 °C 91 % 1029,5 hPa 0,0 mm 0,0 km/h (0 Bft) S 177 ° 0 min 0,000 mm 0,0 UV-I 0 W/m² 11,2 °C 12,6 °C 0,0 km/h (0 Bft)
12.09.2019 21:12 12,6 °C 91 % 1029,5 hPa 0,0 mm 0,0 km/h (0 Bft) S 177 ° 0 min 0,000 mm 0,0 UV-I 0 W/m² 11,2 °C 12,6 °C 0,0 km/h (0 Bft)
12.09.2019 21:13 12,6 °C 91 % 1029,6 hPa 0,0 mm 0,0 km/h (0 Bft) S 177 ° 0 min 0,000 mm 0,0 UV-I 0 W/m² 11,2 °C 12,6 °C 0,0 km/h (0 Bft)
12.09.2019 21:14 12,6 °C 91 % 1029,6 hPa 0,0 mm 0,0 km/h (0 Bft) S 177 ° 0 min 0,000 mm 0,0 UV-I 0 W/m² 11,2 °C 12,6 °C 0,0 km/h (0 Bft)
12.09.2019 21:15 12,7 °C 91 % 1029,6 hPa 0,0 mm 0,0 km/h (0 Bft) S 177 ° 0 min 0,000 mm 0,0 UV-I 0 W/m² 11,3 °C 12,7 °C 0,0 km/h (0 Bft)
12.09.2019 21:16 12,7 °C 91 % 1029,5 hPa 0,0 mm 0,0 km/h (0 Bft) S 177 ° 0 min 0,000 mm 0,0 UV-I 0 W/m² 11,3 °C 12,7 °C 0,0 km/h (0 Bft)
12.09.2019 21:17 12,7 °C 91 % 1029,5 hPa 0,0 mm 0,0 km/h (0 Bft) S 177 ° 0 min 0,000 mm 0,0 UV-I 0 W/m² 11,3 °C 12,7 °C 0,0 km/h (0 Bft)
12.09.2019 21:18 12,7 °C 91 % 1029,5 hPa 0,0 mm 0,0 km/h (0 Bft) S 177 ° 0 min 0,000 mm 0,0 UV-I 0 W/m² 11,3 °C 12,7 °C 0,0 km/h (0 Bft)
12.09.2019 21:19 12,7 °C 91 % 1029,6 hPa 0,0 mm 0,0 km/h (0 Bft) S 177 ° 0 min 0,000 mm 0,0 UV-I 0 W/m² 11,3 °C 12,7 °C 0,0 km/h (0 Bft)
12.09.2019 21:20 12,7 °C 91 % 1029,6 hPa 0,0 mm 0,0 km/h (0 Bft) S 177 ° 0 min 0,000 mm 0,0 UV-I 0 W/m² 11,3 °C 12,7 °C 0,0 km/h (0 Bft)
12.09.2019 21:21 12,7 °C 91 % 1029,6 hPa 0,0 mm 0,0 km/h (0 Bft) S 177 ° 0 min 0,000 mm 0,0 UV-I 0 W/m² 11,3 °C 12,7 °C 0,0 km/h (0 Bft)
12.09.2019 21:22 12,7 °C 91 % 1029,6 hPa 0,0 mm 0,0 km/h (0 Bft) S 177 ° 0 min 0,000 mm 0,0 UV-I 0 W/m² 11,3 °C 12,7 °C 0,0 km/h (0 Bft)
12.09.2019 21:23 12,7 °C 91 % 1029,6 hPa 0,0 mm 0,0 km/h (0 Bft) S 177 ° 0 min 0,000 mm 0,0 UV-I 0 W/m² 11,3 °C 12,7 °C 0,0 km/h (0 Bft)
12.09.2019 21:24 12,7 °C 91 % 1029,7 hPa 0,0 mm 0,0 km/h (0 Bft) S 177 ° 0 min 0,000 mm 0,0 UV-I 0 W/m² 11,3 °C 12,7 °C 0,0 km/h (0 Bft)
12.09.2019 21:25 12,7 °C 91 % 1029,6 hPa 0,0 mm 0,0 km/h (0 Bft) S 177 ° 0 min 0,000 mm 0,0 UV-I 0 W/m² 11,3 °C 12,7 °C 0,0 km/h (0 Bft)
12.09.2019 21:26 12,7 °C 91 % 1029,6 hPa 0,0 mm 0,0 km/h (0 Bft) S 177 ° 0 min 0,000 mm 0,0 UV-I 0 W/m² 11,3 °C 12,7 °C 0,0 km/h (0 Bft)
12.09.2019 21:27 12,7 °C 91 % 1029,6 hPa 0,0 mm 0,0 km/h (0 Bft) S 177 ° 0 min 0,000 mm 0,0 UV-I 0 W/m² 11,3 °C 12,7 °C 0,0 km/h (0 Bft)
12.09.2019 21:28 12,6 °C 91 % 1029,5 hPa 0,0 mm 0,0 km/h (0 Bft) S 177 ° 0 min 0,000 mm 0,0 UV-I 0 W/m² 11,2 °C 12,6 °C 0,0 km/h (0 Bft)
12.09.2019 21:29 12,6 °C 91 % 1029,6 hPa 0,0 mm 0,0 km/h (0 Bft) S 177 ° 0 min 0,000 mm 0,0 UV-I 0 W/m² 11,2 °C 12,6 °C 0,0 km/h (0 Bft)
12.09.2019 21:30 12,6 °C 91 % 1029,6 hPa 0,0 mm 0,0 km/h (0 Bft) S 177 ° 0 min 0,000 mm 0,0 UV-I 0 W/m² 11,2 °C 12,6 °C 0,0 km/h (0 Bft)
12.09.2019 21:31 12,5 °C 91 % 1029,6 hPa 0,0 mm 0,0 km/h (0 Bft) S 177 ° 0 min 0,000 mm 0,0 UV-I 0 W/m² 11,1 °C 12,5 °C 0,0 km/h (0 Bft)
12.09.2019 21:32 12,5 °C 91 % 1029,6 hPa 0,0 mm 0,0 km/h (0 Bft) S 177 ° 0 min 0,000 mm 0,0 UV-I 0 W/m² 11,1 °C 12,5 °C 0,0 km/h (0 Bft)
12.09.2019 21:33 12,5 °C 91 % 1029,6 hPa 0,0 mm 0,0 km/h (0 Bft) S 177 ° 0 min 0,000 mm 0,0 UV-I 0 W/m² 11,1 °C 12,5 °C 0,0 km/h (0 Bft)
12.09.2019 21:34 12,4 °C 91 % 1029,6 hPa 0,0 mm 0,0 km/h (0 Bft) S 177 ° 0 min 0,000 mm 0,0 UV-I 0 W/m² 11,0 °C 12,4 °C 0,0 km/h (0 Bft)
12.09.2019 21:35 12,4 °C 91 % 1029,5 hPa 0,0 mm 0,0 km/h (0 Bft) S 177 ° 0 min 0,000 mm 0,0 UV-I 0 W/m² 11,0 °C 12,4 °C 0,0 km/h (0 Bft)
12.09.2019 21:36 12,4 °C 91 % 1029,6 hPa 0,0 mm 0,0 km/h (0 Bft) S 177 ° 0 min 0,000 mm 0,0 UV-I 0 W/m² 11,0 °C 12,4 °C 0,0 km/h (0 Bft)
12.09.2019 21:37 12,4 °C 91 % 1029,6 hPa 0,0 mm 0,0 km/h (0 Bft) S 177 ° 0 min 0,000 mm 0,0 UV-I 0 W/m² 11,0 °C 12,4 °C 0,0 km/h (0 Bft)
12.09.2019 21:38 12,4 °C 91 % 1029,5 hPa 0,0 mm 0,0 km/h (0 Bft) S 177 ° 0 min 0,000 mm 0,0 UV-I 0 W/m² 11,0 °C 12,4 °C 0,0 km/h (0 Bft)
12.09.2019 21:39 12,4 °C 92 % 1029,6 hPa 0,0 mm 0,0 km/h (0 Bft) S 177 ° 0 min 0,000 mm 0,0 UV-I 0 W/m² 11,1 °C 12,4 °C 0,0 km/h (0 Bft)
12.09.2019 21:40 12,4 °C 92 % 1029,6 hPa 0,0 mm 0,0 km/h (0 Bft) S 177 ° 0 min 0,000 mm 0,0 UV-I 0 W/m² 11,1 °C 12,4 °C 0,0 km/h (0 Bft)
12.09.2019 21:41 12,3 °C 91 % 1029,6 hPa 0,0 mm 0,0 km/h (0 Bft) S 177 ° 0 min 0,000 mm 0,0 UV-I 0 W/m² 10,9 °C 12,3 °C 0,0 km/h (0 Bft)
12.09.2019 21:42 12,3 °C 92 % 1029,6 hPa 0,0 mm 0,0 km/h (0 Bft) S 177 ° 0 min 0,000 mm 0,0 UV-I 0 W/m² 11,0 °C 12,3 °C 0,0 km/h (0 Bft)
12.09.2019 21:43 12,3 °C 92 % 1029,6 hPa 0,0 mm 0,0 km/h (0 Bft) S 177 ° 0 min 0,000 mm 0,0 UV-I 0 W/m² 11,0 °C 12,3 °C 0,0 km/h (0 Bft)
12.09.2019 21:44 12,2 °C 92 % 1029,6 hPa 0,0 mm 0,0 km/h (0 Bft) S 177 ° 0 min 0,000 mm 0,0 UV-I 0 W/m² 10,9 °C 12,2 °C 0,0 km/h (0 Bft)
12.09.2019 21:45 12,2 °C 92 % 1029,6 hPa 0,0 mm 0,0 km/h (0 Bft) S 177 ° 0 min 0,000 mm 0,0 UV-I 0 W/m² 10,9 °C 12,2 °C 0,0 km/h (0 Bft)
12.09.2019 21:46 12,2 °C 92 % 1029,6 hPa 0,2 mm 0,0 km/h (0 Bft) S 177 ° 0 min 0,000 mm 0,0 UV-I 0 W/m² 10,9 °C 12,2 °C 0,0 km/h (0 Bft)
12.09.2019 21:47 12,2 °C 92 % 1029,5 hPa 0,0 mm 0,0 km/h (0 Bft) S 177 ° 0 min 0,000 mm 0,0 UV-I 0 W/m² 10,9 °C 12,2 °C 0,0 km/h (0 Bft)
12.09.2019 21:48 12,2 °C 92 % 1029,6 hPa 0,0 mm 0,0 km/h (0 Bft) S 177 ° 0 min 0,000 mm 0,0 UV-I 0 W/m² 10,9 °C 12,2 °C 0,0 km/h (0 Bft)
12.09.2019 21:49 12,2 °C 92 % 1029,6 hPa 0,0 mm 0,0 km/h (0 Bft) S 177 ° 0 min 0,000 mm 0,0 UV-I 0 W/m² 10,9 °C 12,2 °C 0,0 km/h (0 Bft)
12.09.2019 21:50 12,2 °C 92 % 1029,6 hPa 0,0 mm 0,0 km/h (0 Bft) S 177 ° 0 min 0,000 mm 0,0 UV-I 0 W/m² 10,9 °C 12,2 °C 0,0 km/h (0 Bft)
12.09.2019 21:51 12,2 °C 92 % 1029,6 hPa 0,0 mm 0,0 km/h (0 Bft) S 177 ° 0 min 0,000 mm 0,0 UV-I 0 W/m² 10,9 °C 12,2 °C 0,0 km/h (0 Bft)
12.09.2019 21:52 12,2 °C 92 % 1029,6 hPa 0,0 mm 0,0 km/h (0 Bft) S 177 ° 0 min 0,000 mm 0,0 UV-I 0 W/m² 10,9 °C 12,2 °C 0,0 km/h (0 Bft)
12.09.2019 21:53 12,2 °C 92 % 1029,6 hPa 0,0 mm 0,0 km/h (0 Bft) S 177 ° 0 min 0,000 mm 0,0 UV-I 0 W/m² 10,9 °C 12,2 °C 0,0 km/h (0 Bft)
12.09.2019 21:54 12,2 °C 92 % 1029,6 hPa 0,0 mm 0,0 km/h (0 Bft) S 177 ° 0 min 0,000 mm 0,0 UV-I 0 W/m² 10,9 °C 12,2 °C 0,0 km/h (0 Bft)
12.09.2019 21:55 12,2 °C 92 % 1029,6 hPa 0,0 mm 0,0 km/h (0 Bft) S 177 ° 0 min 0,000 mm 0,0 UV-I 0 W/m² 10,9 °C 12,2 °C 0,0 km/h (0 Bft)
12.09.2019 21:56 12,2 °C 92 % 1029,6 hPa 0,0 mm 0,0 km/h (0 Bft) S 177 ° 0 min 0,000 mm 0,0 UV-I 0 W/m² 10,9 °C 12,2 °C 0,0 km/h (0 Bft)
12.09.2019 21:57 12,1 °C 92 % 1029,6 hPa 0,0 mm 0,0 km/h (0 Bft) S 177 ° 0 min 0,000 mm 0,0 UV-I 0 W/m² 10,8 °C 12,1 °C 0,0 km/h (0 Bft)
12.09.2019 21:58 12,1 °C 92 % 1029,6 hPa 0,0 mm 0,0 km/h (0 Bft) S 177 ° 0 min 0,000 mm 0,0 UV-I 0 W/m² 10,8 °C 12,1 °C 0,0 km/h (0 Bft)
12.09.2019 21:59 12,1 °C 92 % 1029,6 hPa 0,0 mm 0,0 km/h (0 Bft) S 177 ° 0 min 0,000 mm 0,0 UV-I 0 W/m² 10,8 °C 12,1 °C 0,0 km/h (0 Bft)
12.09.2019 22:00 12,1 °C 92 % 1029,6 hPa 0,0 mm 0,0 km/h (0 Bft) S 177 ° 0 min 0,000 mm 0,0 UV-I 0 W/m² 10,8 °C 12,1 °C 0,0 km/h (0 Bft)
12.09.2019 22:01 12,1 °C 92 % 1029,5 hPa 0,0 mm 0,0 km/h (0 Bft) S 177 ° 0 min 0,000 mm 0,0 UV-I 0 W/m² 10,8 °C 12,1 °C 0,0 km/h (0 Bft)
12.09.2019 22:02 12,1 °C 92 % 1029,6 hPa 0,0 mm 0,0 km/h (0 Bft) S 177 ° 0 min 0,000 mm 0,0 UV-I 0 W/m² 10,8 °C 12,1 °C 0,0 km/h (0 Bft)
12.09.2019 22:03 12,1 °C 92 % 1029,6 hPa 0,0 mm 0,0 km/h (0 Bft) S 177 ° 0 min 0,000 mm 0,0 UV-I 0 W/m² 10,8 °C 12,1 °C 0,0 km/h (0 Bft)
12.09.2019 22:04 12,1 °C 92 % 1029,6 hPa 0,0 mm 0,0 km/h (0 Bft) S 177 ° 0 min 0,000 mm 0,0 UV-I 0 W/m² 10,8 °C 12,1 °C 0,0 km/h (0 Bft)
12.09.2019 22:05 12,1 °C 92 % 1029,6 hPa 0,0 mm 0,0 km/h (0 Bft) S 177 ° 0 min 0,000 mm 0,0 UV-I 0 W/m² 10,8 °C 12,1 °C 0,0 km/h (0 Bft)
12.09.2019 22:06 12,1 °C 92 % 1029,6 hPa 0,0 mm 0,0 km/h (0 Bft) S 177 ° 0 min 0,000 mm 0,0 UV-I 0 W/m² 10,8 °C 12,1 °C 0,0 km/h (0 Bft)
12.09.2019 22:07 12,1 °C 92 % 1029,6 hPa 0,0 mm 0,0 km/h (0 Bft) S 177 ° 0 min 0,000 mm 0,0 UV-I 0 W/m² 10,8 °C 12,1 °C 0,0 km/h (0 Bft)
12.09.2019 22:08 12,1 °C 92 % 1029,6 hPa 0,0 mm 0,0 km/h (0 Bft) S 177 ° 0 min 0,000 mm 0,0 UV-I 0 W/m² 10,8 °C 12,1 °C 0,0 km/h (0 Bft)
12.09.2019 22:09 12,2 °C 92 % 1029,6 hPa 0,0 mm 0,0 km/h (0 Bft) S 177 ° 0 min 0,000 mm 0,0 UV-I 0 W/m² 10,9 °C 12,2 °C 0,0 km/h (0 Bft)
12.09.2019 22:10 12,2 °C 92 % 1029,7 hPa 0,0 mm 0,0 km/h (0 Bft) S 177 ° 0 min 0,000 mm 0,0 UV-I 0 W/m² 10,9 °C 12,2 °C 0,0 km/h (0 Bft)
12.09.2019 22:11 12,2 °C 92 % 1029,6 hPa 0,0 mm 0,0 km/h (0 Bft) S 177 ° 0 min 0,000 mm 0,0 UV-I 0 W/m² 10,9 °C 12,2 °C 0,0 km/h (0 Bft)
12.09.2019 22:12 12,2 °C 92 % 1029,6 hPa 0,0 mm 0,0 km/h (0 Bft) S 177 ° 0 min 0,000 mm 0,0 UV-I 0 W/m² 10,9 °C 12,2 °C 0,0 km/h (0 Bft)
12.09.2019 22:13 12,2 °C 92 % 1029,6 hPa 0,0 mm 0,0 km/h (0 Bft) S 177 ° 0 min 0,000 mm 0,0 UV-I 0 W/m² 10,9 °C 12,2 °C 0,0 km/h (0 Bft)
12.09.2019 22:14 12,3 °C 92 % 1029,6 hPa 0,0 mm 0,0 km/h (0 Bft) S 177 ° 0 min 0,000 mm 0,0 UV-I 0 W/m² 11,0 °C 12,3 °C 0,0 km/h (0 Bft)
12.09.2019 22:15 12,3 °C 92 % 1029,6 hPa 0,0 mm 0,0 km/h (0 Bft) S 177 ° 0 min 0,000 mm 0,0 UV-I 0 W/m² 11,0 °C 12,3 °C 0,0 km/h (0 Bft)
12.09.2019 22:16 12,3 °C 92 % 1029,6 hPa 0,0 mm 0,0 km/h (0 Bft) S 177 ° 0 min 0,000 mm 0,0 UV-I 0 W/m² 11,0 °C 12,3 °C 0,0 km/h (0 Bft)
12.09.2019 22:17 12,3 °C 92 % 1029,6 hPa 0,0 mm 0,0 km/h (0 Bft) S 177 ° 0 min 0,000 mm 0,0 UV-I 0 W/m² 11,0 °C 12,3 °C 0,0 km/h (0 Bft)
12.09.2019 22:18 12,3 °C 92 % 1029,6 hPa 0,0 mm 0,0 km/h (0 Bft) S 177 ° 0 min 0,000 mm 0,0 UV-I 0 W/m² 11,0 °C 12,3 °C 0,0 km/h (0 Bft)
12.09.2019 22:19 12,3 °C 92 % 1029,6 hPa 0,0 mm 0,0 km/h (0 Bft) S 177 ° 0 min 0,000 mm 0,0 UV-I 0 W/m² 11,0 °C 12,3 °C 0,0 km/h (0 Bft)
12.09.2019 22:20 12,3 °C 92 % 1029,6 hPa 0,0 mm 0,0 km/h (0 Bft) S 177 ° 0 min 0,000 mm 0,0 UV-I 0 W/m² 11,0 °C 12,3 °C 0,0 km/h (0 Bft)
12.09.2019 22:21 12,3 °C 92 % 1029,6 hPa 0,0 mm 0,0 km/h (0 Bft) S 177 ° 0 min 0,000 mm 0,0 UV-I 0 W/m² 11,0 °C 12,3 °C 0,0 km/h (0 Bft)
12.09.2019 22:22 12,3 °C 92 % 1029,6 hPa 0,0 mm 0,0 km/h (0 Bft) S 177 ° 0 min 0,000 mm 0,0 UV-I 0 W/m² 11,0 °C 12,3 °C 0,0 km/h (0 Bft)
12.09.2019 22:23 12,3 °C 92 % 1029,7 hPa 0,0 mm 0,0 km/h (0 Bft) S 177 ° 0 min 0,000 mm 0,0 UV-I 0 W/m² 11,0 °C 12,3 °C 0,0 km/h (0 Bft)
12.09.2019 22:24 12,3 °C 92 % 1029,6 hPa 0,0 mm 0,0 km/h (0 Bft) S 177 ° 0 min 0,000 mm 0,0 UV-I 0 W/m² 11,0 °C 12,3 °C 0,0 km/h (0 Bft)
12.09.2019 22:25 12,3 °C 92 % 1029,6 hPa 0,0 mm 0,0 km/h (0 Bft) S 177 ° 0 min 0,000 mm 0,0 UV-I 0 W/m² 11,0 °C 12,3 °C 0,0 km/h (0 Bft)
12.09.2019 22:26 12,3 °C 92 % 1029,7 hPa 0,0 mm 0,0 km/h (0 Bft) S 177 ° 0 min 0,000 mm 0,0 UV-I 0 W/m² 11,0 °C 12,3 °C 0,0 km/h (0 Bft)
12.09.2019 22:27 12,3 °C 92 % 1029,6 hPa 0,0 mm 0,0 km/h (0 Bft) S 177 ° 0 min 0,000 mm 0,0 UV-I 0 W/m² 11,0 °C 12,3 °C 0,0 km/h (0 Bft)
12.09.2019 22:28 12,3 °C 92 % 1029,6 hPa 0,0 mm 0,0 km/h (0 Bft) S 177 ° 0 min 0,000 mm 0,0 UV-I 0 W/m² 11,0 °C 12,3 °C 0,0 km/h (0 Bft)
12.09.2019 22:29 12,3 °C 92 % 1029,7 hPa 0,0 mm 0,0 km/h (0 Bft) S 177 ° 0 min 0,000 mm 0,0 UV-I 0 W/m² 11,0 °C 12,3 °C 0,0 km/h (0 Bft)
12.09.2019 22:30 12,3 °C 92 % 1029,7 hPa 0,0 mm 0,0 km/h (0 Bft) S 177 ° 0 min 0,000 mm 0,0 UV-I 0 W/m² 11,0 °C 12,3 °C 0,0 km/h (0 Bft)
12.09.2019 22:31 12,2 °C 92 % 1029,7 hPa 0,0 mm 0,0 km/h (0 Bft) S 177 ° 0 min 0,000 mm 0,0 UV-I 0 W/m² 10,9 °C 12,2 °C 0,0 km/h (0 Bft)
12.09.2019 22:32 12,2 °C 92 % 1029,7 hPa 0,0 mm 0,0 km/h (0 Bft) S 176 ° 0 min 0,000 mm 0,0 UV-I 0 W/m² 10,9 °C 12,2 °C 0,0 km/h (0 Bft)
12.09.2019 22:33 12,2 °C 92 % 1029,7 hPa 0,0 mm 0,0 km/h (0 Bft) S-SO 158 ° 0 min 0,000 mm 0,0 UV-I 0 W/m² 10,9 °C 12,2 °C 0,0 km/h (0 Bft)
12.09.2019 22:34 12,2 °C 92 % 1029,7 hPa 0,0 mm 0,0 km/h (0 Bft) S-SO 158 ° 0 min 0,000 mm 0,0 UV-I 0 W/m² 10,9 °C 12,2 °C 0,0 km/h (0 Bft)
12.09.2019 22:35 12,2 °C 92 % 1029,6 hPa 0,0 mm 0,0 km/h (0 Bft) S-SO 158 ° 0 min 0,000 mm 0,0 UV-I 0 W/m² 10,9 °C 12,2 °C 0,0 km/h (0 Bft)
12.09.2019 22:36 12,2 °C 92 % 1029,7 hPa 0,0 mm 0,0 km/h (0 Bft) S-SO 158 ° 0 min 0,000 mm 0,0 UV-I 0 W/m² 10,9 °C 12,2 °C 0,0 km/h (0 Bft)
12.09.2019 22:37 12,2 °C 92 % 1029,7 hPa 0,0 mm 0,0 km/h (0 Bft) S-SO 158 ° 0 min 0,000 mm 0,0 UV-I 0 W/m² 10,9 °C 12,2 °C 0,0 km/h (0 Bft)
12.09.2019 22:38 12,2 °C 92 % 1029,7 hPa 0,0 mm 0,0 km/h (0 Bft) SW 214 ° 0 min 0,000 mm 0,0 UV-I 0 W/m² 10,9 °C 12,2 °C 0,0 km/h (0 Bft)
12.09.2019 22:39 12,2 °C 92 % 1029,7 hPa 0,0 mm 0,0 km/h (0 Bft) SW 214 ° 0 min 0,000 mm 0,0 UV-I 0 W/m² 10,9 °C 12,2 °C 0,0 km/h (0 Bft)
12.09.2019 22:40 12,2 °C 92 % 1029,7 hPa 0,0 mm 0,0 km/h (0 Bft) SW 214 ° 0 min 0,000 mm 0,0 UV-I 0 W/m² 10,9 °C 12,2 °C 0,0 km/h (0 Bft)
12.09.2019 22:41 12,2 °C 92 % 1029,7 hPa 0,0 mm 0,0 km/h (0 Bft) SW 214 ° 0 min 0,000 mm 0,0 UV-I 0 W/m² 10,9 °C 12,2 °C 0,0 km/h (0 Bft)
12.09.2019 22:42 12,2 °C 92 % 1029,7 hPa 0,0 mm 0,0 km/h (0 Bft) SW 214 ° 0 min 0,000 mm 0,0 UV-I 0 W/m² 10,9 °C 12,2 °C 0,0 km/h (0 Bft)
12.09.2019 22:43 12,1 °C 92 % 1029,7 hPa 0,0 mm 0,0 km/h (0 Bft) SW 214 ° 0 min 0,000 mm 0,0 UV-I 0 W/m² 10,8 °C 12,1 °C 0,0 km/h (0 Bft)
12.09.2019 22:44 12,1 °C 92 % 1029,6 hPa 0,0 mm 0,0 km/h (0 Bft) SW 214 ° 0 min 0,000 mm 0,0 UV-I 0 W/m² 10,8 °C 12,1 °C 0,0 km/h (0 Bft)
12.09.2019 22:45 12,1 °C 92 % 1029,6 hPa 0,0 mm 0,0 km/h (0 Bft) SW 214 ° 0 min 0,000 mm 0,0 UV-I 0 W/m² 10,8 °C 12,1 °C 0,0 km/h (0 Bft)
12.09.2019 22:46 12,1 °C 92 % 1029,7 hPa 0,0 mm 0,0 km/h (0 Bft) SW 214 ° 0 min 0,000 mm 0,0 UV-I 0 W/m² 10,8 °C 12,1 °C 0,0 km/h (0 Bft)
12.09.2019 22:47 12,0 °C 92 % 1029,7 hPa 0,0 mm 0,0 km/h (0 Bft) SW 214 ° 0 min 0,000 mm 0,0 UV-I 0 W/m² 10,7 °C 12,0 °C 0,0 km/h (0 Bft)
12.09.2019 22:48 12,0 °C 92 % 1029,8 hPa 0,0 mm 0,0 km/h (0 Bft) SW 214 ° 0 min 0,000 mm 0,0 UV-I 0 W/m² 10,7 °C 12,0 °C 0,0 km/h (0 Bft)
12.09.2019 22:49 11,9 °C 92 % 1029,6 hPa 0,0 mm 0,0 km/h (0 Bft) SW 214 ° 0 min 0,000 mm 0,0 UV-I 0 W/m² 10,6 °C 11,9 °C 0,0 km/h (0 Bft)
12.09.2019 22:50 11,8 °C 92 % 1029,7 hPa 0,0 mm 0,0 km/h (0 Bft) SW 214 ° 0 min 0,000 mm 0,0 UV-I 0 W/m² 10,5 °C 11,8 °C 0,0 km/h (0 Bft)
12.09.2019 22:51 11,8 °C 92 % 1029,7 hPa 0,0 mm 0,0 km/h (0 Bft) SW 214 ° 0 min 0,000 mm 0,0 UV-I 0 W/m² 10,5 °C 11,8 °C 0,0 km/h (0 Bft)
12.09.2019 22:52 11,7 °C 92 % 1029,7 hPa 0,0 mm 0,0 km/h (0 Bft) SW 214 ° 0 min 0,000 mm 0,0 UV-I 0 W/m² 10,4 °C 11,7 °C 0,0 km/h (0 Bft)
12.09.2019 22:53 11,6 °C 92 % 1029,7 hPa 0,0 mm 0,0 km/h (0 Bft) SW 214 ° 0 min 0,000 mm 0,0 UV-I 0 W/m² 10,3 °C 11,6 °C 0,0 km/h (0 Bft)
12.09.2019 22:54 11,6 °C 92 % 1029,8 hPa 0,0 mm 0,0 km/h (0 Bft) SW 214 ° 0 min 0,000 mm 0,0 UV-I 0 W/m² 10,3 °C 11,6 °C 0,0 km/h (0 Bft)
12.09.2019 22:55 11,6 °C 92 % 1029,8 hPa 0,0 mm 0,0 km/h (0 Bft) SW 214 ° 0 min 0,000 mm 0,0 UV-I 0 W/m² 10,3 °C 11,6 °C 0,0 km/h (0 Bft)
12.09.2019 22:56 11,6 °C 92 % 1029,8 hPa 0,0 mm 0,0 km/h (0 Bft) SW 214 ° 0 min 0,000 mm 0,0 UV-I 0 W/m² 10,3 °C 11,6 °C 0,0 km/h (0 Bft)
12.09.2019 22:57 11,6 °C 92 % 1029,7 hPa 0,0 mm 0,0 km/h (0 Bft) SW 214 ° 0 min 0,000 mm 0,0 UV-I 0 W/m² 10,3 °C 11,6 °C 0,0 km/h (0 Bft)
12.09.2019 22:58 11,6 °C 92 % 1029,7 hPa 0,0 mm 0,0 km/h (0 Bft) SW 214 ° 0 min 0,000 mm 0,0 UV-I 0 W/m² 10,3 °C 11,6 °C 0,0 km/h (0 Bft)
12.09.2019 22:59 11,5 °C 92 % 1029,7 hPa 0,0 mm 0,0 km/h (0 Bft) SW 214 ° 0 min 0,000 mm 0,0 UV-I 0 W/m² 10,2 °C 11,5 °C 0,0 km/h (0 Bft)
12.09.2019 23:00 11,5 °C 93 % 1029,8 hPa 0,0 mm 0,0 km/h (0 Bft) SW 214 ° 0 min 0,000 mm 0,0 UV-I 0 W/m² 10,4 °C 11,5 °C 0,0 km/h (0 Bft)
12.09.2019 23:01 11,5 °C 93 % 1029,8 hPa 0,0 mm 0,0 km/h (0 Bft) SW 214 ° 0 min 0,000 mm 0,0 UV-I 0 W/m² 10,4 °C 11,5 °C 0,0 km/h (0 Bft)
12.09.2019 23:02 11,4 °C 93 % 1029,8 hPa 0,0 mm 0,0 km/h (0 Bft) SW 214 ° 0 min 0,000 mm 0,0 UV-I 0 W/m² 10,3 °C 11,4 °C 0,0 km/h (0 Bft)
12.09.2019 23:03 11,4 °C 93 % 1029,8 hPa 0,0 mm 0,0 km/h (0 Bft) SW 214 ° 0 min 0,000 mm 0,0 UV-I 0 W/m² 10,3 °C 11,4 °C 0,0 km/h (0 Bft)
12.09.2019 23:04 11,4 °C 93 % 1029,8 hPa 0,0 mm 0,0 km/h (0 Bft) SW 214 ° 0 min 0,000 mm 0,0 UV-I 0 W/m² 10,3 °C 11,4 °C 0,0 km/h (0 Bft)
12.09.2019 23:05 11,4 °C 93 % 1029,9 hPa 0,0 mm 0,0 km/h (0 Bft) SW 214 ° 0 min 0,000 mm 0,0 UV-I 0 W/m² 10,3 °C 11,4 °C 0,0 km/h (0 Bft)
12.09.2019 23:06 11,4 °C 93 % 1029,9 hPa 0,0 mm 0,0 km/h (0 Bft) SW 214 ° 0 min 0,000 mm 0,0 UV-I 0 W/m² 10,3 °C 11,4 °C 0,0 km/h (0 Bft)
12.09.2019 23:07 11,4 °C 93 % 1029,9 hPa 0,0 mm 0,0 km/h (0 Bft) SW 214 ° 0 min 0,000 mm 0,0 UV-I 0 W/m² 10,3 °C 11,4 °C 0,0 km/h (0 Bft)
12.09.2019 23:08 11,3 °C 93 % 1029,9 hPa 0,0 mm 0,0 km/h (0 Bft) SW 214 ° 0 min 0,000 mm 0,0 UV-I 0 W/m² 10,2 °C 11,3 °C 0,0 km/h (0 Bft)
12.09.2019 23:09 11,3 °C 93 % 1029,9 hPa 0,0 mm 0,0 km/h (0 Bft) SW 214 ° 0 min 0,000 mm 0,0 UV-I 0 W/m² 10,2 °C 11,3 °C 0,0 km/h (0 Bft)
12.09.2019 23:10 11,3 °C 93 % 1029,9 hPa 0,0 mm 0,0 km/h (0 Bft) SW 214 ° 0 min 0,000 mm 0,0 UV-I 0 W/m² 10,2 °C 11,3 °C 0,0 km/h (0 Bft)
12.09.2019 23:11 11,3 °C 93 % 1030,0 hPa 0,0 mm 0,0 km/h (0 Bft) SW 214 ° 0 min 0,000 mm 0,0 UV-I 0 W/m² 10,2 °C 11,3 °C 0,0 km/h (0 Bft)
12.09.2019 23:12 11,2 °C 93 % 1029,9 hPa 0,0 mm 0,0 km/h (0 Bft) SW 214 ° 0 min 0,000 mm 0,0 UV-I 0 W/m² 10,1 °C 11,2 °C 0,0 km/h (0 Bft)
12.09.2019 23:13 11,3 °C 93 % 1029,9 hPa 0,0 mm 0,0 km/h (0 Bft) SW 214 ° 0 min 0,000 mm 0,0 UV-I 0 W/m² 10,2 °C 11,3 °C 0,0 km/h (0 Bft)
12.09.2019 23:14 11,2 °C 93 % 1029,9 hPa 0,0 mm 0,0 km/h (0 Bft) SW 214 ° 0 min 0,000 mm 0,0 UV-I 0 W/m² 10,1 °C 11,2 °C 0,0 km/h (0 Bft)
12.09.2019 23:15 11,2 °C 93 % 1029,9 hPa 0,0 mm 0,0 km/h (0 Bft) SW 214 ° 0 min 0,000 mm 0,0 UV-I 0 W/m² 10,1 °C 11,2 °C 0,0 km/h (0 Bft)
12.09.2019 23:16 11,2 °C 93 % 1029,9 hPa 0,0 mm 0,0 km/h (0 Bft) SW 214 ° 0 min 0,000 mm 0,0 UV-I 0 W/m² 10,1 °C 11,2 °C 0,0 km/h (0 Bft)
12.09.2019 23:17 11,1 °C 93 % 1029,9 hPa 0,0 mm 0,0 km/h (0 Bft) SW 214 ° 0 min 0,000 mm 0,0 UV-I 0 W/m² 10,0 °C 11,1 °C 0,0 km/h (0 Bft)
12.09.2019 23:18 11,1 °C 93 % 1030,0 hPa 0,0 mm 0,0 km/h (0 Bft) SW 214 ° 0 min 0,000 mm 0,0 UV-I 0 W/m² 10,0 °C 11,1 °C 0,0 km/h (0 Bft)
12.09.2019 23:19 11,1 °C 93 % 1029,9 hPa 0,0 mm 0,0 km/h (0 Bft) SW 214 ° 0 min 0,000 mm 0,0 UV-I 0 W/m² 10,0 °C 11,1 °C 0,0 km/h (0 Bft)
12.09.2019 23:20 11,0 °C 93 % 1030,0 hPa 0,0 mm 0,0 km/h (0 Bft) SW 214 ° 0 min 0,000 mm 0,0 UV-I 0 W/m² 9,9 °C 11,0 °C 0,0 km/h (0 Bft)
12.09.2019 23:21 11,0 °C 93 % 1030,0 hPa 0,0 mm 0,0 km/h (0 Bft) SW 214 ° 0 min 0,000 mm 0,0 UV-I 0 W/m² 9,9 °C 11,0 °C 0,0 km/h (0 Bft)
12.09.2019 23:22 11,0 °C 93 % 1029,9 hPa 0,0 mm 0,0 km/h (0 Bft) SW 214 ° 0 min 0,000 mm 0,0 UV-I 0 W/m² 9,9 °C 11,0 °C 0,0 km/h (0 Bft)
12.09.2019 23:23 11,0 °C 93 % 1030,0 hPa 0,0 mm 0,0 km/h (0 Bft) SW 214 ° 0 min 0,000 mm 0,0 UV-I 0 W/m² 9,9 °C 11,0 °C 0,0 km/h (0 Bft)
12.09.2019 23:24 11,0 °C 93 % 1030,0 hPa 0,0 mm 0,0 km/h (0 Bft) SW 214 ° 0 min 0,000 mm 0,0 UV-I 0 W/m² 9,9 °C 11,0 °C 0,0 km/h (0 Bft)
12.09.2019 23:25 11,0 °C 93 % 1030,0 hPa 0,0 mm 0,0 km/h (0 Bft) SW 214 ° 0 min 0,000 mm 0,0 UV-I 0 W/m² 9,9 °C 11,0 °C 0,0 km/h (0 Bft)
12.09.2019 23:26 10,9 °C 93 % 1030,0 hPa 0,0 mm 0,0 km/h (0 Bft) SW 214 ° 0 min 0,000 mm 0,0 UV-I 0 W/m² 9,8 °C 10,9 °C 0,0 km/h (0 Bft)
12.09.2019 23:27 11,0 °C 93 % 1030,0 hPa 0,0 mm 0,0 km/h (0 Bft) SW 214 ° 0 min 0,000 mm 0,0 UV-I 0 W/m² 9,9 °C 11,0 °C 0,0 km/h (0 Bft)
12.09.2019 23:28 10,9 °C 93 % 1030,0 hPa 0,0 mm 0,0 km/h (0 Bft) SW 214 ° 0 min 0,000 mm 0,0 UV-I 0 W/m² 9,8 °C 10,9 °C 0,0 km/h (0 Bft)
12.09.2019 23:29 10,9 °C 94 % 1030,0 hPa 0,0 mm 0,0 km/h (0 Bft) SW 214 ° 0 min 0,000 mm 0,0 UV-I 0 W/m² 10,0 °C 10,9 °C 0,0 km/h (0 Bft)
12.09.2019 23:30 10,9 °C 94 % 1030,0 hPa 0,0 mm 0,0 km/h (0 Bft) SW 214 ° 0 min 0,000 mm 0,0 UV-I 0 W/m² 10,0 °C 10,9 °C 0,0 km/h (0 Bft)
12.09.2019 23:31 10,9 °C 94 % 1030,1 hPa 0,0 mm 0,0 km/h (0 Bft) SW 214 ° 0 min 0,000 mm 0,0 UV-I 0 W/m² 10,0 °C 10,9 °C 0,0 km/h (0 Bft)
12.09.2019 23:32 10,9 °C 94 % 1030,0 hPa 0,0 mm 0,0 km/h (0 Bft) SW 214 ° 0 min 0,000 mm 0,0 UV-I 0 W/m² 10,0 °C 10,9 °C 0,0 km/h (0 Bft)
12.09.2019 23:33 10,9 °C 94 % 1030,0 hPa 0,0 mm 0,0 km/h (0 Bft) SW 214 ° 0 min 0,000 mm 0,0 UV-I 0 W/m² 10,0 °C 10,9 °C 0,0 km/h (0 Bft)
12.09.2019 23:34 10,9 °C 94 % 1030,0 hPa 0,0 mm 0,0 km/h (0 Bft) SW 214 ° 0 min 0,000 mm 0,0 UV-I 0 W/m² 10,0 °C 10,9 °C 0,0 km/h (0 Bft)
12.09.2019 23:35 10,9 °C 94 % 1030,0 hPa 0,0 mm 0,0 km/h (0 Bft) SW 214 ° 0 min 0,000 mm 0,0 UV-I 0 W/m² 10,0 °C 10,9 °C 0,0 km/h (0 Bft)
12.09.2019 23:36 10,9 °C 94 % 1030,0 hPa 0,0 mm 0,0 km/h (0 Bft) SW 214 ° 0 min 0,000 mm 0,0 UV-I 0 W/m² 10,0 °C 10,9 °C 0,0 km/h (0 Bft)
12.09.2019 23:37 10,9 °C 94 % 1030,1 hPa 0,0 mm 0,0 km/h (0 Bft) SW 214 ° 0 min 0,000 mm 0,0 UV-I 0 W/m² 10,0 °C 10,9 °C 0,0 km/h (0 Bft)
12.09.2019 23:38 10,9 °C 94 % 1030,1 hPa 0,0 mm 0,0 km/h (0 Bft) SW 214 ° 0 min 0,000 mm 0,0 UV-I 0 W/m² 10,0 °C 10,9 °C 0,0 km/h (0 Bft)
12.09.2019 23:39 10,9 °C 94 % 1030,1 hPa 0,0 mm 0,0 km/h (0 Bft) SW 214 ° 0 min 0,000 mm 0,0 UV-I 0 W/m² 10,0 °C 10,9 °C 0,0 km/h (0 Bft)
12.09.2019 23:40 10,9 °C 94 % 1030,1 hPa 0,0 mm 0,0 km/h (0 Bft) SW 214 ° 0 min 0,000 mm 0,0 UV-I 0 W/m² 10,0 °C 10,9 °C 0,0 km/h (0 Bft)
12.09.2019 23:41 10,9 °C 94 % 1030,1 hPa 0,0 mm 0,0 km/h (0 Bft) SW 214 ° 0 min 0,000 mm 0,0 UV-I 0 W/m² 10,0 °C 10,9 °C 0,0 km/h (0 Bft)
12.09.2019 23:42 10,8 °C 94 % 1030,1 hPa 0,0 mm 0,0 km/h (0 Bft) SW 214 ° 0 min 0,000 mm 0,0 UV-I 0 W/m² 9,9 °C 10,8 °C 0,0 km/h (0 Bft)
12.09.2019 23:43 10,8 °C 94 % 1030,1 hPa 0,0 mm 0,0 km/h (0 Bft) SW 214 ° 0 min 0,000 mm 0,0 UV-I 0 W/m² 9,9 °C 10,8 °C 0,0 km/h (0 Bft)
12.09.2019 23:44 10,8 °C 94 % 1030,1 hPa 0,0 mm 0,0 km/h (0 Bft) SW 214 ° 0 min 0,000 mm 0,0 UV-I 0 W/m² 9,9 °C 10,8 °C 0,0 km/h (0 Bft)
12.09.2019 23:45 10,8 °C 94 % 1030,1 hPa 0,0 mm 0,0 km/h (0 Bft) SW 214 ° 0 min 0,000 mm 0,0 UV-I 0 W/m² 9,9 °C 10,8 °C 0,0 km/h (0 Bft)
12.09.2019 23:46 10,8 °C 94 % 1030,1 hPa 0,0 mm 0,0 km/h (0 Bft) SW 214 ° 0 min 0,000 mm 0,0 UV-I 0 W/m² 9,9 °C 10,8 °C 0,0 km/h (0 Bft)
12.09.2019 23:47 10,8 °C 94 % 1030,1 hPa 0,0 mm 0,0 km/h (0 Bft) SW 214 ° 0 min 0,000 mm 0,0 UV-I 0 W/m² 9,9 °C 10,8 °C 0,0 km/h (0 Bft)
12.09.2019 23:48 10,9 °C 94 % 1030,2 hPa 0,0 mm 0,0 km/h (0 Bft) SW 214 ° 0 min 0,000 mm 0,0 UV-I 0 W/m² 10,0 °C 10,9 °C 0,0 km/h (0 Bft)
12.09.2019 23:49 10,9 °C 94 % 1030,1 hPa 0,0 mm 0,0 km/h (0 Bft) SW 214 ° 0 min 0,000 mm 0,0 UV-I 0 W/m² 10,0 °C 10,9 °C 0,0 km/h (0 Bft)
12.09.2019 23:50 11,0 °C 94 % 1030,1 hPa 0,0 mm 0,0 km/h (0 Bft) SW 214 ° 0 min 0,000 mm 0,0 UV-I 0 W/m² 10,1 °C 11,0 °C 0,0 km/h (0 Bft)
12.09.2019 23:51 11,1 °C 94 % 1030,1 hPa 0,0 mm 0,0 km/h (0 Bft) SW 214 ° 0 min 0,000 mm 0,0 UV-I 0 W/m² 10,2 °C 11,1 °C 0,0 km/h (0 Bft)
12.09.2019 23:52 11,1 °C 94 % 1030,2 hPa 0,0 mm 0,0 km/h (0 Bft) SW 214 ° 0 min 0,000 mm 0,0 UV-I 0 W/m² 10,2 °C 11,1 °C 0,0 km/h (0 Bft)
12.09.2019 23:53 11,2 °C 94 % 1030,1 hPa 0,0 mm 0,0 km/h (0 Bft) SW 214 ° 0 min 0,000 mm 0,0 UV-I 0 W/m² 10,3 °C 11,2 °C 0,0 km/h (0 Bft)
12.09.2019 23:54 11,2 °C 94 % 1030,1 hPa 0,0 mm 0,0 km/h (0 Bft) SW 214 ° 0 min 0,000 mm 0,0 UV-I 0 W/m² 10,3 °C 11,2 °C 0,0 km/h (0 Bft)
12.09.2019 23:55 11,3 °C 94 % 1030,1 hPa 0,0 mm 0,0 km/h (0 Bft) SW 214 ° 0 min 0,000 mm 0,0 UV-I 0 W/m² 10,4 °C 11,3 °C 0,0 km/h (0 Bft)
12.09.2019 23:56 11,3 °C 94 % 1030,0 hPa 0,0 mm 0,0 km/h (0 Bft) SW 214 ° 0 min 0,000 mm 0,0 UV-I 0 W/m² 10,4 °C 11,3 °C 0,0 km/h (0 Bft)
12.09.2019 23:57 11,3 °C 94 % 1030,0 hPa 0,0 mm 0,0 km/h (0 Bft) SW 214 ° 0 min 0,000 mm 0,0 UV-I 0 W/m² 10,4 °C 11,3 °C 0,0 km/h (0 Bft)
12.09.2019 23:58 11,3 °C 94 % 1030,1 hPa 0,0 mm 0,0 km/h (0 Bft) SW 214 ° 0 min 0,000 mm 0,0 UV-I 0 W/m² 10,4 °C 11,3 °C 0,0 km/h (0 Bft)
12.09.2019 23:59 11,3 °C 94 % 1030,0 hPa 0,0 mm 0,0 km/h (0 Bft) SW 214 ° 0 min 0,000 mm 0,0 UV-I 0 W/m² 10,4 °C 11,3 °C 0,0 km/h (0 Bft)
_ Min-Zeit 23:47 17:37 01:04 - 23:59 - - - - - - 05:21 23:47 23:59
Minimum _ 10,8 °C 59 % 1026,4 hPa - 0,0 km/h (0 Bft) - - - - - - 9,8 °C 10,8 °C 0,0 km/h (0 Bft)
_ Max-Zeit 16:20 23:59 23:52 21:46 14:37 - - 15:29 14:01 13:27 14:03 13:42 16:27 16:17
Maximum _ 20,9 °C 94 % 1030,2 hPa 0,2 mm 8,4 km/h
W-SW (2 Bft)
- - 1 min 0,406 mm 5,9 UV-I 863 W/m² 14,3 °C 20,8 °C 14,5 km/h
N-NW (3 Bft)
Durchschnitt _ 15,2 °C 80 % 1028,5 hPa #1,4 mm 1,3 km/h (1 Bft) S-SW - #3:25 h #2,489 mm 3,3 UV-I 173 W/m² 11,5 °C 15,2 °C 2,4 km/h (1 Bft)